[[{"header":{"parameterUnit":"m.s-1","parameterCategory":1,"la1":30.6,"la2":29.2853,"lo1":-89.7004,"lo2":-87.6739,"dy":0.0162,"dx":0.0183,"nx":112,"ny":82,"refTime":"2023-05-05T00:00:00:Z","depth":0,"parameterNumber":2,"parameterNumberName":"U-component_of_WINDS"},"data":[0.0,0.0,0.0,0.0,0.0,0.0,0.0,0.0,0.0,0.0,0.0,0.0,0.0,0.0,0.0,0.0,0.0,0.0,0.0,0.0,0.0,0.0,0.0,0.0,0.0,0.0,0.0,0.0,0.0,0.0,0.0,0.0,0.0,0.0,0.0,0.0,0.0,0.0,0.0,0.0,0.0,0.0,0.0,0.0,0.0,0.0,0.0,0.0,0.0,0.0,0.0,0.0,0.0,0.0,0.0,0.0,0.0,0.0,0.0,0.0,0.0,0.0,0.0,0.0,0.0,0.0,0.0,0.0,0.0,0.0,0.0,0.0,0.0,0.0,0.0,0.0,0.0,0.0,0.0,0.0,0.0,0.0,0.0,0.0,0.0,0.0,0.0,0.0,0.0,0.0,-3.8707,-3.8707,-3.8707,-3.8707,-3.8707,-3.8707,-3.8269,-3.7248,0.0,0.0,0.0,0.0,0.0,0.0,0.0,0.0,0.0,0.0,0.0,0.0,0.0,0.0,0.0,0.0,0.0,0.0,0.0,0.0,0.0,0.0,0.0,0.0,0.0,0.0,0.0,0.0,0.0,0.0,0.0,0.0,0.0,0.0,0.0,0.0,0.0,0.0,0.0,0.0,0.0,0.0,0.0,0.0,0.0,0.0,0.0,0.0,0.0,0.0,0.0,0.0,0.0,0.0,0.0,0.0,0.0,0.0,0.0,0.0,0.0,0.0,0.0,0.0,0.0,0.0,0.0,0.0,0.0,0.0,0.0,0.0,0.0,0.0,0.0,0.0,0.0,0.0,0.0,0.0,0.0,0.0,0.0,0.0,0.0,0.0,0.0,0.0,0.0,0.0,0.0,0.0,0.0,0.0,0.0,0.0,0.0,0.0,0.0,0.0,0.0,0.0,0.0,0.0,-3.8707,-3.8707,-3.8707,-3.8707,-3.8707,-3.8707,-3.8269,-3.7248,0.0,0.0,0.0,0.0,0.0,0.0,0.0,0.0,0.0,0.0,0.0,0.0,0.0,0.0,0.0,0.0,0.0,0.0,0.0,0.0,0.0,0.0,0.0,0.0,0.0,0.0,0.0,0.0,0.0,0.0,0.0,0.0,0.0,0.0,0.0,0.0,0.0,0.0,0.0,0.0,0.0,0.0,0.0,0.0,0.0,0.0,0.0,0.0,0.0,0.0,0.0,0.0,0.0,0.0,0.0,0.0,0.0,0.0,0.0,0.0,0.0,0.0,0.0,0.0,0.0,0.0,0.0,0.0,0.0,0.0,0.0,0.0,0.0,0.0,0.0,0.0,0.0,0.0,0.0,0.0,0.0,0.0,0.0,0.0,0.0,0.0,0.0,0.0,0.0,0.0,0.0,0.0,0.0,0.0,0.0,0.0,0.0,0.0,0.0,0.0,0.0,0.0,0.0,-3.8707,-3.8707,-3.8707,-3.8707,-3.8707,-3.8707,-3.8707,-3.8269,-3.7248,-3.7209,0.0,0.0,0.0,0.0,0.0,0.0,0.0,0.0,0.0,0.0,0.0,0.0,0.0,0.0,0.0,0.0,0.0,0.0,0.0,0.0,0.0,0.0,0.0,0.0,0.0,0.0,0.0,0.0,0.0,0.0,0.0,0.0,0.0,0.0,0.0,0.0,0.0,0.0,0.0,0.0,0.0,0.0,0.0,0.0,0.0,0.0,0.0,0.0,0.0,0.0,0.0,0.0,0.0,0.0,0.0,0.0,0.0,0.0,0.0,0.0,0.0,0.0,0.0,0.0,0.0,0.0,0.0,0.0,0.0,0.0,0.0,0.0,0.0,0.0,0.0,0.0,0.0,0.0,0.0,0.0,0.0,0.0,0.0,0.0,0.0,0.0,0.0,0.0,0.0,0.0,0.0,0.0,0.0,0.0,0.0,0.0,0.0,0.0,0.0,0.0,0.0,0.0,-3.8707,-3.8707,-3.8707,-3.8707,-3.8707,-3.8707,-3.8707,-3.8269,-3.7248,-3.7209,0.0,0.0,0.0,0.0,0.0,0.0,0.0,0.0,0.0,0.0,0.0,0.0,0.0,0.0,0.0,0.0,0.0,0.0,0.0,0.0,0.0,0.0,0.0,0.0,0.0,0.0,0.0,0.0,0.0,0.0,0.0,0.0,0.0,0.0,0.0,0.0,0.0,0.0,0.0,0.0,0.0,0.0,0.0,0.0,0.0,0.0,0.0,0.0,0.0,0.0,0.0,0.0,0.0,0.0,0.0,0.0,0.0,0.0,0.0,0.0,0.0,0.0,0.0,0.0,0.0,0.0,0.0,0.0,0.0,0.0,0.0,0.0,0.0,0.0,0.0,0.0,0.0,0.0,0.0,0.0,0.0,0.0,0.0,0.0,0.0,0.0,0.0,0.0,0.0,0.0,0.0,0.0,0.0,0.0,0.0,0.0,0.0,0.0,0.0,0.0,0.0,0.0,-3.8707,-3.8707,-3.8707,-3.8707,-3.8707,-3.8707,-3.8707,-3.8269,-3.7248,-3.7209,0.0,0.0,0.0,0.0,0.0,0.0,0.0,0.0,0.0,0.0,0.0,0.0,0.0,0.0,0.0,0.0,0.0,0.0,0.0,0.0,0.0,0.0,0.0,0.0,0.0,0.0,0.0,0.0,0.0,0.0,0.0,0.0,0.0,0.0,0.0,0.0,0.0,0.0,0.0,0.0,0.0,0.0,0.0,0.0,0.0,0.0,0.0,0.0,0.0,0.0,0.0,0.0,0.0,0.0,0.0,0.0,0.0,0.0,0.0,0.0,0.0,0.0,0.0,0.0,0.0,0.0,0.0,0.0,0.0,0.0,0.0,0.0,0.0,0.0,0.0,0.0,0.0,0.0,0.0,0.0,0.0,0.0,0.0,0.0,0.0,0.0,0.0,0.0,0.0,0.0,0.0,0.0,0.0,0.0,0.0,0.0,0.0,0.0,0.0,0.0,0.0,0.0,-3.8707,-3.8707,-3.8707,-3.8707,-3.8707,-3.8707,-3.8707,-3.8269,-3.7248,0.0,0.0,0.0,0.0,0.0,0.0,0.0,0.0,0.0,0.0,0.0,0.0,0.0,0.0,0.0,0.0,0.0,0.0,0.0,0.0,0.0,0.0,0.0,0.0,0.0,0.0,0.0,0.0,0.0,0.0,0.0,0.0,0.0,0.0,0.0,0.0,0.0,0.0,0.0,0.0,0.0,0.0,0.0,0.0,0.0,0.0,0.0,0.0,0.0,0.0,0.0,0.0,0.0,0.0,0.0,0.0,0.0,0.0,0.0,0.0,0.0,0.0,0.0,0.0,0.0,0.0,0.0,0.0,0.0,0.0,0.0,0.0,0.0,0.0,0.0,0.0,0.0,0.0,0.0,0.0,0.0,0.0,0.0,0.0,0.0,0.0,0.0,0.0,0.0,0.0,0.0,0.0,0.0,0.0,0.0,0.0,0.0,0.0,0.0,0.0,0.0,0.0,-3.8707,-3.8707,-3.8707,-3.8707,-3.8707,-3.8707,-3.8707,-3.8546,-3.8083,-3.7248,0.0,0.0,0.0,0.0,0.0,0.0,0.0,0.0,0.0,0.0,0.0,0.0,0.0,0.0,0.0,0.0,0.0,0.0,0.0,0.0,0.0,0.0,0.0,0.0,0.0,0.0,0.0,0.0,0.0,0.0,0.0,0.0,0.0,0.0,0.0,0.0,0.0,0.0,0.0,0.0,0.0,0.0,0.0,0.0,0.0,0.0,0.0,0.0,0.0,0.0,0.0,0.0,0.0,0.0,0.0,0.0,0.0,0.0,0.0,0.0,0.0,0.0,0.0,0.0,0.0,0.0,0.0,0.0,0.0,0.0,0.0,0.0,0.0,0.0,0.0,0.0,0.0,0.0,0.0,0.0,0.0,0.0,0.0,0.0,0.0,0.0,0.0,0.0,0.0,0.0,0.0,0.0,0.0,0.0,0.0,0.0,0.0,0.0,0.0,0.0,0.0,0.0,-3.8707,-3.8707,-3.8707,-3.8707,-3.8707,-3.8707,-3.8707,-3.82,-3.7702,0.0,0.0,0.0,0.0,0.0,0.0,0.0,0.0,0.0,0.0,0.0,0.0,0.0,0.0,0.0,0.0,0.0,0.0,0.0,0.0,0.0,0.0,0.0,0.0,0.0,0.0,0.0,0.0,0.0,0.0,0.0,0.0,0.0,0.0,0.0,0.0,0.0,0.0,0.0,0.0,0.0,0.0,0.0,0.0,0.0,0.0,0.0,0.0,0.0,0.0,0.0,0.0,0.0,0.0,0.0,0.0,0.0,0.0,0.0,0.0,0.0,0.0,0.0,0.0,0.0,0.0,0.0,0.0,0.0,0.0,0.0,0.0,0.0,0.0,0.0,0.0,0.0,0.0,0.0,0.0,0.0,0.0,0.0,0.0,0.0,0.0,0.0,0.0,0.0,0.0,0.0,0.0,0.0,0.0,0.0,0.0,0.0,0.0,0.0,0.0,0.0,0.0,0.0,-3.8707,-3.8707,-3.8707,-3.8707,-3.8707,-3.8707,-3.8707,-3.82,-3.7702,-3.7229,0.0,0.0,0.0,0.0,0.0,0.0,0.0,0.0,0.0,0.0,0.0,0.0,0.0,0.0,0.0,0.0,0.0,0.0,0.0,0.0,0.0,0.0,0.0,0.0,0.0,0.0,0.0,0.0,0.0,0.0,0.0,0.0,0.0,0.0,0.0,0.0,0.0,0.0,0.0,0.0,0.0,0.0,0.0,0.0,0.0,0.0,0.0,0.0,0.0,0.0,0.0,0.0,0.0,0.0,0.0,0.0,0.0,0.0,0.0,0.0,0.0,0.0,0.0,0.0,0.0,0.0,0.0,0.0,0.0,0.0,0.0,0.0,0.0,0.0,0.0,0.0,0.0,0.0,0.0,0.0,0.0,0.0,0.0,0.0,0.0,0.0,0.0,0.0,0.0,0.0,0.0,0.0,0.0,0.0,0.0,0.0,0.0,0.0,0.0,0.0,0.0,0.0,-3.8707,-3.8707,-3.8707,-3.8707,-3.8707,-3.8707,-3.8707,-3.805,-3.7506,-3.7228,0.0,0.0,0.0,0.0,0.0,0.0,0.0,0.0,0.0,0.0,0.0,0.0,0.0,0.0,0.0,0.0,0.0,0.0,0.0,0.0,0.0,0.0,0.0,0.0,0.0,0.0,0.0,0.0,0.0,0.0,0.0,0.0,0.0,0.0,0.0,0.0,0.0,0.0,0.0,0.0,0.0,0.0,0.0,0.0,0.0,0.0,0.0,0.0,0.0,0.0,0.0,0.0,0.0,0.0,0.0,0.0,0.0,0.0,0.0,0.0,0.0,0.0,0.0,0.0,0.0,0.0,0.0,0.0,0.0,0.0,0.0,0.0,0.0,0.0,0.0,0.0,0.0,0.0,0.0,0.0,0.0,0.0,0.0,0.0,0.0,0.0,0.0,0.0,0.0,0.0,0.0,0.0,0.0,0.0,0.0,0.0,0.0,0.0,0.0,0.0,0.0,0.0,-3.8707,-3.8707,-3.8707,-3.8707,-3.8707,-3.8707,-3.8707,-3.7773,-3.7209,-3.7209,0.0,0.0,0.0,0.0,0.0,0.0,0.0,0.0,0.0,0.0,0.0,0.0,0.0,0.0,0.0,0.0,0.0,0.0,0.0,0.0,0.0,0.0,0.0,0.0,0.0,0.0,0.0,0.0,0.0,0.0,0.0,0.0,0.0,0.0,0.0,0.0,0.0,0.0,0.0,0.0,0.0,0.0,0.0,0.0,0.0,0.0,0.0,0.0,0.0,0.0,0.0,0.0,0.0,0.0,0.0,0.0,0.0,0.0,0.0,0.0,-4.0496,-4.0496,0.0,0.0,0.0,0.0,0.0,0.0,0.0,0.0,0.0,0.0,0.0,0.0,0.0,0.0,0.0,0.0,0.0,0.0,0.0,0.0,0.0,0.0,0.0,0.0,0.0,0.0,0.0,0.0,0.0,0.0,0.0,0.0,0.0,0.0,0.0,0.0,0.0,0.0,0.0,0.0,-3.8707,-3.8707,-3.8707,-3.8707,-3.8707,-3.8707,-3.8707,-3.7773,-3.7209,-3.7209,-3.6186,0.0,0.0,0.0,0.0,0.0,0.0,0.0,0.0,0.0,0.0,0.0,0.0,0.0,0.0,0.0,0.0,0.0,0.0,0.0,0.0,0.0,0.0,0.0,0.0,0.0,0.0,0.0,0.0,0.0,0.0,0.0,0.0,0.0,0.0,0.0,0.0,0.0,0.0,0.0,0.0,0.0,0.0,0.0,0.0,0.0,0.0,0.0,0.0,0.0,0.0,0.0,0.0,0.0,0.0,0.0,0.0,0.0,0.0,0.0,-4.0496,-4.0496,0.0,0.0,0.0,0.0,0.0,0.0,0.0,0.0,0.0,0.0,0.0,0.0,0.0,0.0,0.0,0.0,0.0,0.0,0.0,0.0,0.0,0.0,0.0,0.0,0.0,0.0,0.0,0.0,0.0,0.0,0.0,0.0,0.0,0.0,0.0,0.0,0.0,0.0,0.0,0.0,-3.8707,-3.8707,-3.8707,-3.8707,-3.8707,-3.8611,-3.835,-3.7632,-3.7078,-3.6843,-3.6054,0.0,0.0,0.0,0.0,0.0,0.0,0.0,0.0,0.0,0.0,0.0,0.0,0.0,0.0,0.0,0.0,0.0,0.0,0.0,0.0,0.0,0.0,0.0,0.0,0.0,0.0,0.0,0.0,0.0,0.0,0.0,0.0,0.0,0.0,0.0,0.0,0.0,0.0,0.0,0.0,0.0,0.0,0.0,0.0,0.0,0.0,0.0,0.0,0.0,0.0,0.0,0.0,0.0,-4.0718,-4.0661,-4.053,-4.053,-4.0527,-4.0496,-4.0496,-4.0496,-4.0496,-4.0496,0.0,0.0,0.0,0.0,0.0,0.0,0.0,0.0,0.0,0.0,0.0,0.0,0.0,0.0,0.0,0.0,0.0,0.0,0.0,0.0,0.0,0.0,-3.8707,-3.8707,-3.8707,-3.8707,-3.8707,0.0,0.0,0.0,0.0,0.0,0.0,0.0,0.0,0.0,0.0,0.0,-3.8707,-3.8707,-3.8707,-3.8707,-3.8707,-3.853,-3.8082,-3.7524,-3.7001,-3.658,-3.5963,-3.56,0.0,0.0,0.0,0.0,0.0,0.0,0.0,0.0,0.0,0.0,0.0,0.0,0.0,0.0,0.0,0.0,0.0,0.0,0.0,0.0,0.0,0.0,0.0,0.0,0.0,0.0,0.0,0.0,0.0,0.0,0.0,0.0,-4.1191,-4.1191,0.0,0.0,0.0,0.0,0.0,0.0,0.0,0.0,0.0,0.0,0.0,0.0,0.0,-4.1105,-4.0966,-4.0964,-4.0911,-4.0796,-4.0796,-4.0752,-4.0667,-4.0667,-4.061,-4.0496,-4.0496,0.0,-4.0496,-4.0496,0.0,0.0,0.0,0.0,0.0,0.0,0.0,0.0,0.0,0.0,0.0,0.0,0.0,0.0,0.0,0.0,0.0,0.0,0.0,0.0,0.0,0.0,-3.8707,-3.8707,-3.8707,-3.8707,-3.8707,-3.8707,-3.8707,-3.8707,-3.8707,-3.8707,0.0,0.0,0.0,0.0,0.0,0.0,-3.8707,-3.8707,-3.8707,-3.8707,-3.8707,-3.8658,-3.8611,-3.7738,-3.7154,-3.7097,-3.6143,-3.56,-3.56,-3.56,0.0,0.0,0.0,0.0,0.0,0.0,0.0,0.0,0.0,0.0,0.0,0.0,0.0,0.0,0.0,0.0,0.0,0.0,0.0,0.0,0.0,0.0,0.0,0.0,0.0,0.0,0.0,0.0,0.0,-4.1023,-4.0986,-4.0986,-4.092,-4.0914,0.0,0.0,0.0,0.0,0.0,0.0,0.0,0.0,0.0,-4.1191,-4.1191,-4.1171,-4.1106,-4.1105,-4.1051,-4.0914,-4.0914,-4.087,-4.0757,-4.0718,-4.0661,-4.061,-4.0523,-4.0496,-4.0496,-4.0496,-4.0496,-4.0496,0.0,0.0,0.0,0.0,-3.9377,-3.9058,-3.8788,-3.8707,-3.8707,-3.8707,0.0,0.0,0.0,0.0,0.0,0.0,0.0,-3.8707,-3.8707,-3.8707,-3.8707,-3.8707,-3.8707,-3.8707,-3.8707,-3.8707,-3.8707,-3.8707,-3.8707,-3.8707,-3.8707,-3.8707,0.0,0.0,0.0,-3.8707,-3.8707,-3.8707,-3.8707,-3.8707,-3.8707,-3.8483,-3.7913,-3.7451,-3.6943,-3.6336,-3.5854,-3.56,-3.56,-3.56,-3.56,0.0,0.0,0.0,0.0,0.0,0.0,0.0,0.0,0.0,0.0,0.0,0.0,0.0,0.0,0.0,0.0,0.0,0.0,0.0,0.0,0.0,0.0,0.0,0.0,0.0,0.0,0.0,0.0,-4.0864,-4.0797,-4.0797,-4.0773,-4.0788,0.0,0.0,0.0,0.0,0.0,0.0,-4.1082,-4.1128,-4.115,-4.115,-4.1171,-4.1191,-4.1191,-4.1191,-4.115,-4.1052,-4.1052,-4.0988,-4.0854,-4.0762,-4.0718,-4.0692,-4.0559,-4.0496,-4.0496,-4.0496,-4.0496,-4.0496,-4.0496,-4.0372,-4.0167,-3.984,-3.9576,-3.9308,-3.8942,-3.8803,-3.8788,-3.8719,-3.8707,-3.8707,-3.8707,0.0,0.0,0.0,0.0,-3.8707,-3.8707,-3.8707,-3.8707,-3.8707,-3.8707,-3.8707,-3.8707,-3.8707,-3.8707,-3.8707,-3.8707,-3.8707,-3.8707,-3.8707,0.0,-3.8707,-3.8707,-3.8707,-3.8707,-3.8707,-3.8707,-3.8707,-3.8707,-3.8401,-3.765,-3.7469,-3.7001,-3.6075,-3.5876,-3.5739,-3.56,-3.56,-3.56,-3.56,0.0,0.0,0.0,0.0,0.0,0.0,0.0,0.0,0.0,0.0,0.0,0.0,0.0,0.0,0.0,0.0,0.0,0.0,0.0,0.0,0.0,0.0,0.0,0.0,0.0,0.0,0.0,0.0,0.0,-4.0797,-4.0738,0.0,0.0,0.0,0.0,-4.0797,-4.0805,-4.0809,-4.0813,-4.095,-4.1019,-4.1019,-4.1129,-4.1191,-4.1191,-4.1191,-4.1191,-4.1191,-4.1191,-4.1126,-4.099,-4.0857,-4.0767,-4.0692,-4.0559,-4.0496,-4.0496,-4.0496,-4.0496,-4.0496,-4.0496,-4.0489,-4.0457,-4.0177,-4.0052,-3.9962,-3.932,-3.9085,-3.9036,-3.8773,-3.8707,-3.8707,-3.8707,-3.8707,0.0,0.0,-3.8707,-3.8707,-3.8707,-3.8707,-3.8707,-3.8707,-3.8707,-3.8707,-3.8707,-3.8707,-3.8707,-3.8707,-3.8707,-3.8707,-3.8707,0.0,-3.8707,-3.8707,-3.8707,-3.8707,-3.8707,-3.8707,-3.8707,-3.8707,-3.8707,-3.8692,-3.8627,-3.8167,-3.7649,-3.7154,-3.6643,-3.6139,-3.5622,-3.56,-3.56,-3.56,-3.56,0.0,0.0,0.0,0.0,0.0,0.0,0.0,0.0,0.0,0.0,0.0,0.0,0.0,0.0,0.0,0.0,0.0,0.0,0.0,0.0,0.0,0.0,0.0,0.0,0.0,0.0,0.0,0.0,-4.0617,-4.0596,0.0,-4.061,-4.0596,-4.061,-4.0726,-4.0736,-4.0757,-4.0793,-4.0854,-4.087,-4.087,-4.0996,-4.1077,-4.1077,-4.115,-4.1191,-4.1191,-4.1191,-4.1171,-4.1127,-4.0992,-4.088,-4.0767,-4.0666,-4.0588,-4.0496,-4.0496,-4.0496,-4.0496,-4.0496,-4.0496,-4.0473,-4.0195,-4.0101,-4.0032,-3.9587,-3.9276,-3.9063,-3.8788,-3.8707,-3.8707,-3.8707,-3.8707,-3.8707,-3.8707,-3.8707,-3.8707,-3.8707,-3.8707,-3.8707,-3.8707,-3.8707,-3.8707,-3.8707,-3.8707,-3.8707,-3.8707,-3.8707,-3.8707,-3.8707,-3.8707,-3.8707,-3.8707,-3.8707,-3.8707,-3.8707,-3.8707,-3.8707,-3.8707,-3.8707,-3.8433,-3.7791,-3.756,-3.7079,-3.6228,-3.5989,-3.5805,-3.5622,-3.56,-3.56,-3.56,-3.56,-3.56,0.0,0.0,0.0,0.0,0.0,0.0,0.0,0.0,0.0,0.0,0.0,0.0,0.0,0.0,0.0,0.0,0.0,0.0,0.0,0.0,0.0,0.0,0.0,0.0,0.0,-4.0559,-4.0496,-4.0496,-4.0496,-4.0496,-4.0496,-4.0496,-4.0549,-4.063,-4.0636,-4.0648,-4.0692,-4.0738,-4.0781,-4.0781,-4.0864,-4.0957,-4.0996,-4.1082,-4.115,-4.1191,-4.1191,-4.1191,-4.1191,-4.1055,-4.0955,-4.086,-4.0747,-4.0655,-4.0566,-4.0519,-4.0496,-4.0496,-4.0496,-4.0496,-4.0481,-4.0304,-4.0177,-4.0051,-3.9587,-3.9218,-3.8952,-3.8762,-3.8707,-3.8707,-3.8707,-3.8707,-3.8707,-3.8707,-3.8707,-3.8707,-3.8707,-3.8707,-3.8707,-3.8707,-3.8707,-3.8707,-3.8707,-3.8707,-3.8707,-3.8707,-3.8707,-3.8707,-3.8707,-3.8707,-3.8707,-3.8707,-3.8707,-3.8707,-3.8707,-3.8707,-3.8707,-3.8707,-3.8707,-3.8417,-3.7773,-3.7721,-3.7267,-3.6207,-3.6143,-3.5968,-3.5622,-3.56,-3.56,-3.56,-3.56,-3.56,-3.56,0.0,0.0,0.0,0.0,0.0,0.0,0.0,0.0,0.0,0.0,0.0,0.0,0.0,0.0,0.0,0.0,0.0,0.0,0.0,0.0,0.0,0.0,0.0,-4.0496,-4.0496,-4.0496,-4.0496,-4.0496,-4.0496,-4.0496,-4.0496,-4.0496,-4.0496,-4.0496,-4.0516,-4.0535,-4.0662,-4.075,-4.0769,-4.0849,-4.0938,-4.1068,-4.1051,-4.1094,-4.123,-4.1211,-4.1191,-4.1191,-4.1076,-4.0998,-4.099,-4.0791,-4.0709,-4.0686,-4.0559,-4.0504,-4.0496,-4.0496,-4.0496,-4.0496,-4.0496,-4.0339,-4.0022,-3.9339,-3.8952,-3.8719,-3.8707,-3.8707,-3.8707,-3.8707,-3.8707,-3.8707,-3.8707,-3.8707,-3.8707,-3.8707,-3.8707,-3.8707,-3.8707,-3.8707,-3.8707,-3.8707,-3.8707,-3.8707,-3.8707,-3.8707,-3.8707,-3.8707,-3.8707,-3.8707,-3.8707,-3.8707,0.0,-3.8707,-3.8707,-3.8707,-3.8707,-3.8707,-3.8692,-3.8676,-3.8643,-3.8218,-3.721,-3.7135,-3.6686,-3.5627,-3.56,-3.56,-3.56,-3.56,-3.56,-3.56,0.0,0.0,0.0,0.0,0.0,0.0,0.0,0.0,0.0,0.0,0.0,0.0,0.0,0.0,0.0,0.0,0.0,0.0,0.0,0.0,0.0,-4.0053,-4.0286,-4.0473,-4.0496,-4.0496,-4.0496,-4.0496,-4.0496,-4.0496,-4.0496,-4.0496,-4.0496,-4.0496,-4.0785,-4.1412,-4.1478,-4.1797,-4.2414,-4.2512,-4.2554,-4.2592,-4.2062,-4.1869,-4.1986,-4.1364,-4.1104,-4.1191,-4.1151,-4.1082,-4.0994,-4.0939,-4.082,-4.0697,-4.0649,-4.0602,-4.0496,-4.0496,-4.0496,-4.0496,-4.0496,-4.0457,-4.0302,-3.9671,-3.9408,-3.9294,-3.8833,-3.8707,-3.8707,-3.8707,-3.8707,-3.8707,-3.8707,-3.8707,-3.8707,-3.8707,-3.8707,-3.8707,-3.8707,-3.8707,-3.8707,-3.8707,-3.8707,-3.8707,-3.8707,-3.8707,-3.8707,-3.8707,-3.8707,-3.8707,-3.8707,-3.8707,-3.8707,-3.8707,-3.8707,-3.8707,-3.8707,-3.8707,-3.8401,-3.7667,-3.7614,-3.7154,-3.6101,-3.6054,-3.592,-3.5622,-3.56,-3.56,-3.56,-3.56,-3.56,0.0,0.0,0.0,0.0,0.0,0.0,0.0,0.0,0.0,0.0,0.0,0.0,0.0,0.0,0.0,0.0,0.0,0.0,0.0,0.0,0.0,0.0,-3.9765,-3.9934,-4.011,-4.0239,-4.0339,-4.0339,-4.0339,-4.0339,-4.0339,-4.0339,-4.0526,-4.1,-4.1046,-4.1431,-4.2297,-4.2335,-4.2585,-4.3085,-4.3138,-4.3174,-4.3208,-4.2444,-4.2144,-4.2297,-4.1423,-4.1077,-4.1191,-4.1191,-4.115,-4.108,-4.1025,-4.0893,-4.0747,-4.0707,-4.0623,-4.0496,0.0,0.0,0.0,0.0,-4.0339,-4.023,-3.9603,-3.9389,-3.932,-3.8862,-3.8707,-3.8707,-3.8707,-3.8707,-3.8707,-3.8707,-3.8707,-3.8707,-3.8707,-3.8707,-3.8707,-3.8707,-3.8707,-3.8707,-3.8707,-3.8707,-3.8707,-3.8707,-3.8707,0.0,-3.8707,-3.8707,-3.8707,-3.8707,-3.8707,-3.8707,-3.8707,-3.8707,-3.8707,-3.8707,-3.8707,-3.8449,-3.7878,-3.7826,0.0,0.0,0.0,-3.6075,-3.5622,-3.56,0.0,0.0,0.0,-3.56,-3.56,-3.56,0.0,0.0,-3.56,-3.56,0.0,0.0,0.0,0.0,0.0,0.0,0.0,0.0,0.0,0.0,0.0,0.0,0.0,0.0,0.0,0.0,-3.9529,-3.9534,-3.9534,-3.9797,-4.0002,-4.0032,-4.0032,-4.007,-4.0166,-4.0185,-4.0654,-4.1797,-4.189,-4.2283,-4.3201,-4.3239,0.0,0.0,0.0,-4.3405,-4.3466,-4.2583,-4.2223,-4.2393,-4.143,-4.1051,-4.1171,-4.1191,-4.1191,-4.1191,-4.1078,-4.0952,-4.0828,-4.0747,-4.0623,-4.0496,-4.0496,-4.0496,-4.0473,-4.0223,-4.0139,-4.0052,-3.9426,0.0,0.0,-3.8829,-3.8719,-3.8707,-3.8707,-3.8707,-3.8707,-3.8707,-3.8707,-3.8707,-3.8707,-3.8707,-3.8707,-3.8707,-3.8707,-3.8707,-3.8707,-3.8707,-3.8707,-3.8707,-3.8707,-3.8707,-3.8707,-3.8707,-3.8707,-3.8707,-3.8707,-3.8707,-3.8707,-3.8707,-3.8707,-3.8707,-3.8707,0.0,-3.8611,-3.852,-3.8111,-3.7248,-3.7135,-3.6666,-3.5739,-3.5644,-3.56,-3.56,-3.56,-3.56,-3.56,-3.56,-3.56,-3.56,-3.56,-3.56,0.0,0.0,0.0,0.0,0.0,0.0,0.0,0.0,0.0,0.0,0.0,0.0,0.0,0.0,0.0,-3.8942,-3.9073,-3.9205,-3.9205,-3.9251,-3.9389,-3.9656,-3.9709,-3.9944,-4.0601,-4.0658,-4.1143,-4.2277,-4.2354,-4.2852,-4.4019,-4.4066,-4.4393,-4.5094,-4.5114,-4.5131,-4.5153,-4.3643,-4.2927,-4.3006,-4.1544,0.0,-4.1049,-4.115,-4.1191,-4.1191,-4.1171,-4.1081,-4.0955,-4.0832,-4.0668,-4.0496,-4.0496,-4.0496,-4.0489,-4.0449,-4.0414,-4.0372,-4.0023,-3.9731,-3.9457,-3.9131,-3.8884,-3.8707,-3.8707,-3.8707,0.0,-3.8707,-3.8707,-3.8707,-3.8707,-3.8707,-3.8707,-3.8707,-3.8707,-3.8707,-3.8707,-3.8707,-3.8707,-3.8707,-3.8707,-3.8707,-3.8707,-3.8707,-3.8707,-3.8707,-3.8707,-3.8707,-3.8707,-3.8707,-3.8707,-3.8707,-3.8707,-3.8512,-3.8082,-3.7469,-3.7125,-3.7211,-3.6803,-3.6457,-3.6249,-3.5832,-3.56,-3.56,-3.56,-3.56,-3.56,-3.56,-3.56,-3.56,-3.56,-3.56,0.0,0.0,0.0,0.0,0.0,0.0,0.0,0.0,0.0,0.0,0.0,-3.9064,-3.8765,0.0,-3.905,-3.875,-3.88,-3.8894,-3.8894,-3.8894,-3.9017,-3.9302,-3.9702,-4.0101,-4.0501,-4.0931,-4.1669,-4.281,-4.3055,-4.3604,-4.4643,-4.4851,-4.5152,-4.5594,-4.5594,-4.5402,-4.4951,-4.372,-4.2938,-4.2569,-4.1383,-4.087,-4.0998,-4.1149,-4.1191,-4.1191,-4.1191,-4.1127,-4.099,-4.0824,-4.0641,-4.0496,-4.0496,-4.0496,-4.0496,-4.0496,-4.0496,-4.0465,-4.0186,-3.9992,-3.9797,-3.945,-3.9262,-3.9127,-3.8952,-3.8894,-3.8869,-3.875,-3.8707,-3.8707,-3.8707,-3.8707,-3.8707,-3.8707,-3.8707,-3.8707,-3.8707,-3.8707,-3.8707,-3.8707,-3.8707,-3.8707,-3.8707,-3.8707,-3.8707,-3.8707,-3.8707,-3.8707,-3.8707,-3.834,-3.8102,-3.8102,-3.7734,-3.7387,-3.7132,-3.6476,-3.6071,-3.5988,-3.5531,-3.5301,-3.5429,-3.5183,-3.5211,-3.5583,-3.56,-3.56,-3.56,-3.56,-3.56,-3.56,-3.56,-3.56,0.0,0.0,0.0,0.0,0.0,0.0,0.0,-3.8251,-3.8643,-3.8451,-3.8562,-3.8643,-3.8433,-3.8481,-3.8496,-3.8417,-3.8499,-3.8546,-3.8546,-3.8755,-3.9013,-3.9222,-3.983,-4.035,-4.0651,-4.1334,-4.222,-4.3361,-4.3686,-4.4178,-4.4969,-4.5253,-4.5438,-4.5504,-4.5504,-4.5118,-4.4316,-4.3508,-4.2722,-4.1944,-4.1175,-4.086,-4.0962,-4.1127,-4.1191,-4.1191,-4.1191,-4.1127,-4.0988,-4.0805,-4.0655,-4.0549,-4.0512,-4.0496,-4.0496,-4.0496,-4.0496,-4.0473,-4.0241,-4.011,-3.9972,-3.9765,-3.9611,-3.945,-3.9251,-3.9205,-3.9152,-3.8927,-3.8833,-3.8788,-3.8862,-3.8792,-3.8704,-3.8762,-3.875,-3.8707,-3.8707,-3.8707,-3.8707,-3.8707,-3.8707,-3.8707,-3.8707,-3.8707,-3.8707,-3.8707,-3.8579,-3.8469,-3.8469,-3.7768,-3.7272,-3.7272,-3.6703,-3.6229,-3.6064,-3.5809,-3.5409,-3.4881,-3.446,-3.4328,-3.4541,-3.4381,-3.4641,-3.5363,-3.538,-3.5447,-3.56,-3.56,-3.56,-3.56,-3.56,-3.56,-3.7521,-3.765,-3.7851,-3.7434,-3.8015,-3.8449,0.0,-3.8016,-3.8451,-3.7542,-3.8085,-3.8417,-3.7524,-3.772,-3.786,-3.7451,-3.772,-3.798,-3.798,-3.9,-3.9769,-3.9798,-3.9887,-4.0496,-4.1948,-4.2169,-4.268,-4.3841,-4.3957,-4.4182,-4.4631,-4.4682,-4.4849,-4.5159,-4.5169,-4.4881,-4.4316,-4.3508,-4.267,-4.1809,-4.1135,-4.0805,-4.0824,-4.1081,-4.1191,-4.1191,-4.1191,-4.1127,-4.099,-4.0847,-4.0747,-4.0681,-4.0545,-4.0496,-4.0496,-4.0496,-4.0496,-4.0489,-4.0465,-4.011,-3.969,-3.9972,-3.9634,-3.9199,-3.9481,-3.9534,-3.9541,-3.9505,-3.9282,-3.9112,-3.942,-3.9087,-3.8762,-3.8999,-3.8869,-3.8707,-3.8707,-3.8707,-3.8707,-3.8707,-3.8707,-3.8707,-3.8707,-3.8707,-3.8707,-3.8707,-3.8083,-3.7639,-3.7639,-3.6927,-3.6431,-3.6431,-3.634,-3.5991,-3.5206,-3.5801,-3.5868,-3.5023,-3.4821,-3.4729,-3.4763,-3.3971,-3.388,-3.4607,-3.4624,-3.4945,-3.56,-3.56,-3.56,-3.56,-3.56,-3.56,-3.632,-3.6968,-3.7378,-3.6845,-3.7284,-3.765,-3.6902,-3.7285,-3.7721,-3.7284,-3.7524,-3.7703,-3.7284,-3.736,-3.7433,-3.7229,-3.736,-3.7648,-3.8076,-3.8617,-3.9301,-4.0199,-4.0583,-4.1174,-4.2197,-4.2708,-4.3197,-4.3675,-4.3896,-4.4058,-4.4233,-4.4474,-4.4745,-4.5085,-4.5096,-4.4622,-4.3605,-4.3278,-4.2412,-4.1035,-4.0846,-4.0752,-4.0805,-4.0994,-4.1127,-4.1191,-4.1191,-4.108,-4.0874,-4.0816,-4.0708,-4.0588,-4.0527,-4.0496,-4.0496,-4.0496,-4.0496,-4.0496,-4.0496,-4.023,-3.9912,-4.0042,-3.9775,-3.9377,-3.9327,-3.9302,-3.9282,-3.9127,-3.8984,-3.8898,-3.9036,-3.8888,-3.8735,-3.8844,-3.8773,-3.8707,-3.8707,-3.8707,-3.8707,-3.8707,-3.8707,-3.8707,-3.8707,-3.8303,-3.7991,-3.7991,-3.7731,-3.7327,-3.6868,-3.6064,-3.5367,-3.4908,-3.4853,-3.4706,-3.4325,-3.4633,-3.4586,-3.3993,-3.3898,-3.382,-3.3754,-3.3392,-3.3376,-3.3846,-3.4269,-3.4641,-3.4962,-3.538,-3.56,-3.56,-3.56,-3.56,-3.5397,-3.6065,-3.6359,-3.6211,-3.6548,-3.6773,-3.6291,-3.6704,-3.7133,-3.6825,-3.6981,-3.7097,-3.6805,-3.6865,-3.6941,-3.6786,-3.704,-3.7453,-3.7996,-3.8574,-3.9343,-4.0474,-4.1125,-4.1754,-4.2356,-4.3061,-4.3515,-4.3515,-4.3726,-4.3865,-4.3865,-4.4136,-4.446,-4.4793,-4.468,-4.4077,-4.2944,-4.2802,-4.1989,-4.0496,-4.0643,-4.0736,-4.0801,-4.0986,-4.1105,-4.1191,-4.1191,-4.1082,-4.0908,-4.0824,-4.0718,-4.0584,-4.0523,-4.0496,-4.0496,-4.0496,-4.0496,-4.0496,-4.0496,-4.033,-4.011,-4.0186,-3.9993,-3.9701,-3.9545,-3.9419,-3.9333,-3.9127,-3.8942,-3.8829,-3.8931,-3.8818,-3.8719,-3.8788,-3.8747,-3.8707,-3.8707,-3.8707,-3.8707,-3.8707,-3.8707,-3.8634,-3.8414,-3.7896,-3.7345,-3.6886,-3.6798,-3.6597,-3.6028,-3.5188,-3.4454,-3.3862,-3.3807,-3.3807,-3.3807,-3.3807,-3.3638,-3.3229,-3.3075,-3.2915,-3.2675,-3.256,-3.2689,-3.3106,-3.3609,-3.4083,-3.4489,-3.5047,-3.5397,-3.56,-3.56,-3.56,-3.5003,-3.49,-3.4591,-3.5419,-3.5895,-3.6049,-3.5688,-3.644,-3.6904,-3.5854,-3.6481,-3.6884,-3.5832,-3.6075,-3.6249,-3.5739,-3.6676,-3.7507,-3.7525,-3.9263,-4.0545,-4.0598,-4.1294,-4.2006,-4.2619,-4.3178,-4.3515,-4.3515,-4.3496,-4.3513,-4.3513,-4.3531,-4.3695,-4.4013,-4.3584,-4.3085,-4.2512,-4.2063,-4.1393,-4.0496,-4.0643,-4.0736,-4.0805,-4.1078,-4.1191,-4.1191,-4.1191,-4.1191,-4.1171,-4.0911,-4.0793,-4.0768,-4.0584,-4.0496,-4.0496,-4.0496,-4.0496,-4.0496,-4.0496,-4.033,-4.0139,-4.0397,-4.0313,-4.0129,-4.0381,-4.0276,-4.0071,-4.0061,-3.9587,-3.9165,-3.9493,-3.9141,-3.8777,-3.9022,-3.8898,-3.8707,-3.8707,-3.8707,-3.8707,-3.8707,-3.8707,-3.845,-3.7676,-3.7529,-3.696,-3.5316,-3.5078,-3.5078,-3.5041,-3.4325,-3.3825,-3.3807,-3.3807,-3.3807,-3.3807,-3.3807,-3.3638,-3.3229,-3.2761,-3.2316,-3.186,-3.1464,-3.1582,-3.2327,-3.2361,-3.3072,-3.4489,-3.4506,-3.4912,-3.56,-3.56,-3.56,-3.3186,-3.3584,-3.3922,-3.4211,-3.4365,-3.4412,-3.4293,-3.455,-3.4841,-3.4925,-3.4875,-3.4958,-3.5498,-3.5397,-3.5295,-3.556,-3.6407,-3.7206,-3.77,-3.8785,-3.9714,-4.0212,-4.081,-4.1273,-4.149,-4.2384,-4.3124,-4.3462,-4.3515,-4.3515,-4.3515,-4.3515,-4.3646,-4.4001,-4.3328,-4.2824,-4.2502,-4.181,-4.1135,-4.0496,-4.0643,-4.0707,-4.0742,-4.0972,-4.1076,-4.1077,-4.1151,-4.115,-4.1054,-4.087,-4.0775,-4.0715,-4.0554,-4.0496,-4.0496,-4.0496,-4.0496,-4.0496,-4.0496,-4.033,-4.011,-4.0204,-4.0013,-3.9786,-3.9893,-3.9832,-3.9775,-3.9775,-3.9611,-3.942,-3.9289,-3.9131,-3.8933,-3.8873,-3.8777,-3.8707,-3.8707,-3.8707,-3.8707,-3.8707,-3.8707,-3.8432,-3.7639,-3.707,-3.6119,-3.4468,-3.4197,-3.4197,-3.4197,-3.3972,-3.3807,-3.3807,-3.3807,-3.3807,-3.3807,-3.3807,-3.3734,-3.3606,-3.3447,-3.3163,-3.2761,-3.2299,-3.2036,-3.1963,-3.2182,-3.2547,-3.3038,-3.4015,-3.4624,-3.4878,-3.5363,-3.56,-3.1421,-3.1706,-3.2143,-3.294,-3.2956,-3.2934,-3.3463,-3.3582,-3.371,-3.4161,-3.3912,-3.3862,-3.4728,-3.4728,-3.4747,-3.5171,-3.6333,-3.7361,-3.7802,-3.8756,-3.9571,-4.0045,-4.0417,-4.0703,-4.088,-4.1599,-4.2384,-4.316,-4.3392,-4.3515,-4.3515,-4.3515,-4.3597,-4.3802,-4.288,-4.2358,-4.231,-4.1366,-4.0748,-4.0496,-4.0643,-4.0697,-4.0709,-4.0859,-4.0957,-4.0998,-4.1082,-4.1113,-4.1055,-4.0922,-4.0855,-4.0791,-4.063,-4.0581,-4.0566,-4.0519,-4.0496,-4.0496,-4.0496,-4.0381,-4.0232,-4.0232,-4.0091,-3.9915,-3.9915,-3.9842,-3.9775,-3.9775,-3.9679,-3.9552,-3.9327,-3.9276,-3.9231,-3.9059,-3.8927,-3.8844,-3.8844,-3.8777,-3.8707,-3.8707,-3.8469,-3.801,-3.7217,-3.6138,-3.5037,-3.3954,-3.3807,-3.3807,-3.3807,-3.3807,-3.3807,-3.3807,-3.3807,-3.3807,-3.3807,-3.3807,-3.3734,-3.3592,-3.3578,-3.339,-3.2968,-3.2665,-3.2282,-3.1825,-3.2008,-3.2185,-3.2293,-3.3258,-3.3964,-3.4506,-3.4996,-3.5346,-2.9675,-2.9378,-2.942,-3.1548,-3.1566,-3.1528,-3.3082,-3.3411,-3.3453,-3.3531,-3.3521,-3.3505,-3.3582,-3.4144,-3.4611,-3.4657,-3.6506,-3.7917,-3.7876,-3.9158,-4.0096,-4.0096,-4.0096,-4.0311,-4.0803,-4.088,-4.1402,-4.2577,-4.3142,-4.3462,-4.3515,-4.3515,-4.3478,-4.3441,-4.2214,-4.167,-4.1908,-4.0718,-4.0223,-4.0481,-4.063,-4.0686,-4.0692,-4.0757,-4.0864,-4.0992,-4.0994,-4.1078,-4.1191,-4.1054,-4.0996,-4.0983,-4.0772,-4.0697,-4.068,-4.0545,-4.0496,-4.0496,-4.0496,-4.0496,-4.0496,-4.0496,-4.0496,-4.0496,-4.0496,-4.033,-4.012,-4.012,-3.9901,-3.9645,-3.9634,-3.9622,-3.9622,-3.9599,-3.9352,-3.9139,-3.9139,-3.8923,-3.875,-3.875,-3.8036,-3.721,-3.6387,-3.4885,-3.3807,-3.3807,-3.3807,-3.3807,-3.3807,-3.3807,-3.3807,-3.3807,-3.3807,-3.3807,-3.3807,-3.3807,-3.3652,-3.3258,-3.3229,-3.3029,-3.2583,-3.255,-3.2333,-3.188,-3.1861,-3.1985,-3.2306,-3.2337,-3.3062,-3.4414,-3.4477,-3.4878,-2.7565,-2.7571,-2.8013,-2.8587,-2.8614,-2.8938,-3.072,-3.113,-3.1476,-3.261,-3.2422,-3.2351,-3.3417,-3.4195,-3.4845,-3.5346,-3.7277,-3.8719,-3.8715,-3.9497,-4.0096,-4.0096,-4.0096,-4.0146,-4.0286,-4.0655,-4.1206,-4.1979,-4.2578,-4.3069,-4.3479,-4.3515,-4.3222,-4.2616,-4.1705,-4.1055,-4.0741,-4.0317,-4.0129,-4.0204,-4.0434,-4.0552,-4.0552,-4.0666,-4.0771,-4.086,-4.0957,-4.1078,-4.1191,-4.1054,-4.0996,-4.0983,-4.0772,-4.0697,-4.068,-4.0545,-4.0496,-4.0496,-4.0496,-4.0496,-4.0496,-4.0496,-4.0496,-4.0496,-4.0496,-4.0457,-4.0389,-4.0389,-4.0336,-4.023,-4.0013,-3.9982,-3.9912,-3.9656,-3.9522,-3.9462,-3.9462,-3.942,-3.9377,-3.9377,-3.8033,-3.6655,-3.5843,-3.4642,-3.3807,-3.3807,-3.3807,-3.3807,-3.3807,-3.3807,-3.3807,-3.3807,-3.3807,-3.3807,-3.3807,-3.3807,-3.3748,-3.3648,-3.3652,-3.3592,-3.3476,-3.3181,-3.2968,-3.2856,-3.2501,-3.2353,-3.2442,-3.2707,-3.3001,-3.3414,-3.4155,-3.459,-2.6761,-2.6735,-2.7154,-2.7505,-2.7885,-2.8434,-2.949,-3.0299,-3.097,-3.1492,-3.1537,-3.1739,-3.2528,-3.3509,-3.4413,-3.5134,-3.7077,-3.8589,-3.8906,-3.9623,-4.0096,-4.0096,-4.0096,-4.0096,-4.0096,-4.0368,-4.0797,-4.1358,-4.1958,-4.2638,-4.3444,-4.3268,-4.2885,-4.2306,-4.1517,-4.0677,-3.9774,-3.9992,-4.0101,-4.0101,-4.0372,-4.0496,-4.0496,-4.0588,-4.0682,-4.0801,-4.0874,-4.1023,-4.1191,-4.1126,-4.1081,-4.1076,-4.0899,-4.0805,-4.0742,-4.0623,-4.0552,-4.0496,-4.0496,-4.0496,-4.0496,-4.0496,-4.0496,-4.0496,-4.0496,-4.0496,-4.0496,-4.0496,-4.0496,-4.0465,-4.0302,-4.0286,-4.0232,-4.0034,-3.9903,-3.9819,-3.9819,-3.969,-3.9373,-3.8648,-3.7626,-3.6503,-3.5349,-3.4494,-3.3974,-3.3974,-3.3881,-3.3807,-3.3807,-3.3807,-3.3807,-3.3807,-3.3807,-3.3807,-3.3807,-3.3807,-3.3807,-3.3807,-3.3807,-3.3807,-3.3807,-3.3578,-3.3375,-3.3199,-3.2952,-3.2697,-3.2501,-3.2704,-3.2948,-3.3262,-3.3672,-3.4202,-2.6769,-2.6461,-2.6598,-2.7204,-2.7894,-2.8561,-2.8925,-3.0103,-3.1029,-3.0554,-3.0999,-3.1511,-3.1511,-3.2686,-3.3932,-3.4724,-3.6587,-3.8216,-3.8933,-3.9662,-4.0096,-4.0096,-4.0096,-4.0096,-4.0096,-4.0096,-4.0336,-4.0856,-4.1313,-4.2124,-4.3321,-4.2958,-4.254,-4.2159,-4.1258,-4.0222,-3.9068,-3.9664,-3.9992,-4.0032,-4.0302,-4.0465,-4.0496,-4.0496,-4.061,-4.0796,-4.0793,-4.093,-4.1171,-4.1191,-4.1191,-4.1191,-4.1052,-4.0922,-4.0824,-4.0721,-4.063,-4.0508,-4.0504,-4.0496,-4.0496,-4.0496,-4.0496,-4.0496,-4.0496,-4.0496,-4.0496,-4.0496,-4.0496,-4.0496,-4.0496,-4.0496,-4.0496,-4.0496,-4.033,-4.0148,-4.0148,-3.9913,-3.9213,-3.7528,-3.7186,-3.6644,-3.5028,-3.4478,-3.4277,-3.4277,-3.4056,-3.3915,-3.3915,-3.3855,-3.3807,-3.3807,-3.3807,-3.3807,-3.3807,-3.3807,-3.3807,-3.3807,-3.3807,-3.3807,-3.3807,-3.3807,-3.3652,-3.3288,-3.3273,-3.3075,-3.2681,-3.2616,-3.292,-3.3543,-3.3228,-3.3824,-2.6966,-2.6336,-2.6189,-2.5615,-2.558,-2.6271,-2.8497,-2.9223,-2.9797,-3.1029,-3.1409,-3.1511,-3.1511,-3.314,-3.4735,-3.547,-3.733,-3.9007,-3.9765,-4.002,-4.0096,-4.0096,-4.0096,-4.0096,-4.0096,-4.0096,-4.0336,-4.0856,-4.0594,-4.1099,-4.2751,-4.275,-4.2286,-4.1335,-3.9866,-3.8995,-3.8777,-3.909,-3.9401,-3.9679,-4.0003,-4.0295,-4.0496,-4.0496,-4.0575,-4.0724,-4.0779,-4.088,-4.1031,-4.115,-4.1191,-4.1191,-4.1052,-4.099,-4.0947,-4.0776,-4.068,-4.0655,-4.053,-4.0496,-4.0496,-4.0496,-4.0496,-4.0496,-4.0496,-4.0496,-4.0496,-4.0496,-4.0496,-4.0496,-4.0496,-4.0496,-4.0496,-4.0496,-4.0465,-4.0441,-4.0441,-4.037,-3.9846,-3.8169,-3.7653,-3.6985,-3.5311,-3.4803,-3.4603,-3.4603,-3.4561,-3.4548,-3.4548,-3.4099,-3.3807,-3.3807,-3.3807,-3.3807,-3.3807,-3.3807,-3.3807,-3.3807,-3.3807,-3.3807,-3.3807,-3.3807,-3.378,-3.3694,-3.3694,-3.3666,-3.356,-3.3225,-3.3147,-3.3276,-3.3434,-3.3988,-2.8166,-2.7709,-2.7611,-2.7206,-2.7426,-2.7984,-2.8798,-2.9659,-3.0419,-3.0807,-3.1219,-3.1615,-3.1959,-3.3154,-3.4418,-3.5527,-3.7187,-3.8596,-3.9385,-3.9833,-4.0096,-4.0096,-4.0096,-4.0096,-4.0096,-4.0096,-4.0204,-4.0473,-4.0254,-4.0861,-4.2616,-4.2159,-4.1444,-4.0508,-3.9331,-3.8707,-3.8707,-3.8975,-3.9264,-3.9599,-3.9932,-4.0232,-4.0496,-4.0496,-4.0561,-4.0703,-4.0736,-4.0848,-4.0998,-4.1077,-4.1148,-4.1191,-4.1128,-4.1055,-4.0986,-4.082,-4.0726,-4.0674,-4.0545,-4.0496,-4.0496,-4.0496,-4.0496,-4.0496,-4.0496,-4.0496,-4.0496,-4.0496,-4.0496,-4.0496,-4.0496,-4.0496,-4.0496,-4.0496,-4.0496,-4.0496,-4.0496,-4.0496,-3.9996,-3.8334,-3.7894,-3.7274,-3.5592,-3.5088,-3.4917,-3.4917,-3.4784,-3.4694,-3.4694,-3.4461,-3.4189,-3.4018,-3.3876,-3.3807,-3.3807,-3.3807,-3.3807,-3.3807,-3.3807,-3.3807,-3.3807,-3.3807,-3.3807,-3.3807,-3.3807,-3.3807,-3.3807,-3.3606,-3.3508,-3.3508,-3.3422,-3.3789,-2.9552,-2.9286,-2.9223,-2.9066,-2.9504,-2.9889,-2.938,-3.0299,-3.1117,-3.0644,-3.1058,-3.1705,-3.2392,-3.3051,-3.3955,-3.5365,-3.6704,-3.7847,-3.8772,-3.9437,-3.9901,-4.007,-4.0096,-4.0096,-4.0096,-4.0096,-4.0096,-4.0096,-4.0204,-4.0845,-4.2169,-4.1397,-4.0593,-3.9918,-3.9129,-3.8707,-3.8707,-3.8909,-3.9205,-3.9599,-3.987,-4.0167,-4.0496,-4.0496,-4.0559,-4.0668,-4.0686,-4.0786,-4.0936,-4.0986,-4.1055,-4.1151,-4.1191,-4.1148,-4.1025,-4.0883,-4.0784,-4.0707,-4.0582,-4.0508,-4.0496,-4.0496,-4.0496,-4.0496,-4.0496,-4.0496,-4.0496,-4.0496,-4.0496,-4.0496,-4.0496,-4.0496,-4.0496,-4.0496,-4.0496,-4.0496,-4.0496,-4.0496,-3.9996,-3.8334,-3.8007,-3.7469,-3.5788,-3.5339,-3.519,-3.519,-3.4999,-3.4879,-3.4879,-3.4813,-3.4675,-3.4416,-3.4093,-3.3889,-3.3889,-3.3829,-3.3807,-3.3807,-3.3807,-3.3807,-3.3807,-3.3807,-3.3807,-3.3807,-3.3807,-3.3807,-3.3807,-3.3807,-3.3807,-3.3775,-3.348,-3.3737,-3.0585,-3.0178,-2.9981,-2.9192,-2.9066,-2.9317,-3.0011,-3.0299,-3.0614,-3.1248,-3.1438,-3.1705,-3.2392,-3.3051,-3.3955,-3.5365,-3.6226,-3.7217,-3.8674,-3.8962,-3.9289,-4.002,-4.0096,-4.0096,-4.0096,-4.0096,-4.0096,-4.0096,-4.0552,-4.0814,-4.0781,-4.0464,-4.0163,-3.9918,-3.9129,-3.8707,-3.8707,-3.8719,-3.9022,-3.9599,-3.9634,-3.9954,-4.0496,-4.0496,-4.0504,-4.0534,-4.0655,-4.0715,-4.074,-4.0928,-4.1017,-4.1026,-4.115,-4.1191,-4.1171,-4.1026,-4.0905,-4.0788,-4.0713,-4.0596,-4.0496,-4.0496,-4.0496,-4.0496,-4.0496,-4.0496,-4.0496,-4.0496,-4.0496,-4.0496,-4.0496,-4.0496,-4.0496,-4.0496,-4.0496,-4.0496,-4.0496,-4.0496,-3.9996,-3.8334,-3.8007,-3.7469,-3.5788,-3.5486,-3.5453,-3.5453,-3.5439,-3.5432,-3.5432,-3.5215,-3.5043,-3.5016,-3.4492,-3.4152,-3.4152,-3.3935,-3.3807,-3.3807,-3.3807,-3.3807,-3.3807,-3.3807,-3.3807,-3.3807,-3.3807,-3.3807,-3.3807,-3.3807,-3.3807,-3.3807,-3.3762,-3.4174,-3.1834,-3.1349,-3.094,-3.0584,-3.0494,-3.0614,-3.094,-3.1029,-3.1117,-3.1438,-3.1511,-3.1824,-3.2901,-3.332,-3.3952,-3.5319,-3.6137,-3.6797,-3.7438,-3.7917,-3.8525,-3.9289,-3.9368,-3.9584,-4.0045,-4.0096,-4.0096,-4.0096,-3.9878,-3.9651,-3.9399,-3.9911,-3.9893,-3.9205,-3.8872,-3.8707,-3.8707,-3.8707,-3.8898,-3.9289,-3.9498,-3.984,-4.0258,-4.0433,-4.0496,-4.0496,-4.0559,-4.063,-4.0715,-4.084,-4.0922,-4.1,-4.115,-4.1191,-4.1172,-4.1052,-4.0962,-4.0899,-4.0742,-4.0674,-4.0603,-4.0534,-4.0496,-4.0496,-4.0496,-4.0496,-4.0496,-4.0496,-4.0496,-4.0496,-4.0496,-4.0496,-4.0496,-4.0496,-4.0496,-4.0496,-4.0496,-4.0496,-3.9996,-3.8334,-3.8007,-3.7469,-3.5788,-3.55,-3.55,-3.55,-3.55,-3.55,-3.55,-3.5417,-3.5346,-3.5346,-3.4851,-3.4508,-3.4508,-3.4398,-3.4249,-3.4056,-3.4043,-3.3974,-3.382,-3.3807,-3.3807,-3.3807,-3.3807,-3.3807,-3.3807,-3.3807,-3.3807,-3.3807,-3.3807,-3.3972,-3.2722,-3.2216,-3.1768,-3.1553,-3.1511,-3.1511,-3.1511,-3.1511,-3.1511,-3.1511,-3.1511,-3.1854,-3.2991,-3.3365,-3.3858,-3.5011,-3.5821,-3.6368,-3.6584,-3.71,-3.7732,-3.8469,-3.8772,-3.9113,-3.9688,-3.9952,-4.0011,-3.9791,-3.9276,-3.8778,-3.8308,-3.9,-3.9103,-3.8485,-3.8465,-3.8546,-3.8707,-3.8707,-3.8829,-3.9093,-3.9438,-3.9775,-4.011,-4.0372,-4.0496,-4.0496,-4.0496,-4.0552,-4.0642,-4.0732,-4.0832,-4.0957,-4.1082,-4.1171,-4.1191,-4.1083,-4.1028,-4.0983,-4.0843,-4.0762,-4.0704,-4.0603,-4.0559,-4.0552,-4.0512,-4.0496,-4.0496,-4.0496,-4.0496,-4.0496,-4.0496,-4.0496,-4.0496,-4.0496,-4.0496,-4.0496,-4.0496,-4.0496,-3.9996,-3.8334,-3.8007,-3.7469,-3.5788,-3.55,-3.55,-3.55,-3.55,-3.55,-3.55,-3.55,-3.55,-3.55,-3.5155,-3.4908,-3.4832,-3.4753,-3.4593,-3.4368,-3.4345,-3.4253,-3.4062,-3.3979,-3.3928,-3.3928,-3.3842,-3.3807,-3.3807,-3.3807,-3.3807,-3.3807,-3.3807,-3.3807,-3.296,-3.2586,-3.241,-3.1682,-3.1511,-3.1511,-3.1511,-3.1511,-3.1511,-3.1511,-3.1511,-3.1705,-3.2378,-3.3051,-3.3709,-3.4414,-3.5055,-3.575,-3.6492,-3.6615,-3.6904,-3.7719,-3.8442,-3.8908,-3.8908,-3.9636,-3.9808,-3.9056,-3.8988,-3.8557,-3.7564,-3.7521,-3.7654,-3.7912,-3.7893,-3.8167,-3.8692,-3.8707,-3.8829,-3.9093,-3.9438,-3.9775,-4.011,-4.0372,-4.0496,-4.0496,-4.0496,-4.0496,-4.0512,-4.0655,-4.0747,-4.0809,-4.0955,-4.1081,-4.1191,-4.1191,-4.1106,-4.0996,-4.0994,-4.0911,-4.0796,-4.0724,-4.0697,-4.0667,-4.0537,-4.0496,-4.0496,-4.0496,-4.0496,-4.0496,-4.0496,-4.0496,-4.0496,-4.0496,-4.0496,-4.0496,-4.0496,-4.0496,-3.9996,-3.8334,-3.8007,-3.7469,-3.5788,-3.55,-3.55,-3.55,-3.55,-3.55,-3.55,-3.55,-3.55,-3.55,-3.55,-3.5383,-3.5113,-3.4841,-3.4694,-3.4713,-3.4684,-3.4684,-3.4684,-3.4368,-3.4206,-3.4206,-3.3954,-3.3807,-3.3807,-3.3807,-3.3807,-3.3807,-3.3807,-3.3807,-3.4087,-3.3633,-3.3235,-3.2997,-3.2944,-3.2826,-3.2355,-3.2598,-3.2826,-3.2355,-3.2625,-3.3121,-3.3811,-3.4516,-3.5049,-3.517,-3.6257,-3.6965,-3.6646,-3.7054,-3.7703,-3.8469,-3.9236,-3.9731,-3.9731,-3.9952,-3.9791,-3.9056,-3.8531,-3.7899,-3.7064,-3.6502,-3.6727,-3.7859,-3.7893,-3.8167,-3.8692,-3.8707,-3.8732,-3.8829,-3.9117,-3.9426,-3.9775,-4.0091,-4.033,-4.0496,-4.0496,-4.0496,-4.0512,-4.063,-4.0747,-4.0809,-4.0952,-4.108,-4.1191,-4.1191,-4.1171,-4.1127,-4.1026,-4.0964,-4.0917,-4.08,-4.0766,-4.0743,-4.0654,-4.0581,-4.0496,-4.0496,-4.0496,-4.0496,-4.0496,-4.0496,-4.0496,-4.0496,-4.0496,-4.0496,-4.0496,-4.0496,-3.9996,-3.8334,-3.8007,-3.7469,-3.5788,-3.55,-3.55,-3.55,-3.55,-3.55,-3.55,-3.55,-3.55,-3.55,-3.55,-3.5479,-3.5376,-3.5297,-3.5174,-3.4981,-3.4972,-3.4898,-3.4704,-3.4612,-3.454,-3.454,-3.423,-3.4062,-3.408,-3.3889,-3.3807,-3.3807,-3.3807,-3.3807,-3.4774,-3.4309,-3.3912,-3.3659,-3.3582,-3.3479,-3.3066,-3.3287,-3.3495,-3.3066,-3.3313,-3.3726,-3.4132,-3.5038,-3.5673,-3.5595,-3.6838,-3.7632,-3.7114,-3.7485,-3.8064,-3.8799,-3.9342,-3.9782,-4.007,-3.9859,-3.9377,-3.8633,-3.7905,-3.7144,-3.6383,-3.5853,-3.6232,-3.7596,-3.7632,-3.7981,-3.8692,-3.8707,-3.8707,-3.8707,-3.8957,-3.9276,-3.9611,-3.9962,-4.026,-4.0496,-4.0496,-4.0496,0.0,-4.0582,-4.0684,-4.0766,-4.087,-4.1017,-4.1128,-4.1171,-4.1191,-4.1191,-4.1104,-4.1078,-4.1054,-4.0917,-4.085,-4.0796,-4.0724,-4.0603,-4.0496,-4.0496,-4.0496,-4.0496,-4.0496,-4.0496,-4.0496,-4.0496,-4.0496,-4.0496,-4.0496,-4.0496,-3.9996,-3.8334,-3.8007,-3.7469,-3.5788,-3.55,-3.55,-3.55,-3.55,-3.55,-3.55,-3.55,-3.55,-3.55,-3.55,-3.55,-3.55,-3.55,-3.5432,-3.5266,-3.5239,-3.5182,-3.5008,-3.4908,-3.486,-3.486,-3.4416,-3.4258,-3.439,-3.4093,-3.3902,-3.3807,-3.3807,-3.3807,0.0,-3.4767,-3.4576,-3.3912,-3.3735,-3.3735,-3.3684,-3.371,0.0,-3.3684,-3.371,-3.3751,-3.3815,-3.4941,-3.5846,-3.5856,-3.7038,-3.7921,-3.7908,-3.7921,-3.8234,-3.8908,-3.9005,-3.9272,-3.9935,-3.9394,-3.8667,-3.7889,-3.7178,-3.6434,-3.5633,-3.56,-3.6058,-3.7097,-3.7173,-3.7667,-3.8692,-3.8707,-3.8707,-3.8707,-3.8961,-3.9238,-3.9576,-3.9912,-4.0213,-4.0473,-4.0489,-4.0496,-4.0496,-4.0496,-4.0588,-4.0715,-4.0766,-4.087,-4.1021,-4.1149,-4.1191,-4.1191,-4.1191,-4.1191,-4.1171,-4.1054,-4.092,-4.0793,-4.0731,-4.061,-4.0512,-4.0496,-4.0496,-4.0496,-4.0496,-4.0496,-4.0496,-4.0496,-4.0496,-4.0496,-4.0496,-4.0458,-3.9938,-3.8315,-3.795,-3.7392,-3.5788,-3.55,-3.55,-3.55,-3.55,-3.55,-3.55,-3.55,-3.55,-3.55,-3.55,-3.55,-3.55,-3.55,-3.55,-3.55,-3.55,-3.55,-3.55,-3.5266,-3.5122,-3.5122,-3.4555,-3.4401,-3.4663,-3.4357,-3.4068,-3.3807,-3.3807,-3.3807,-3.6792,0.0,-3.583,-3.526,-3.5138,-3.5005,0.0,0.0,0.0,0.0,0.0,-3.5322,-3.593,-3.6783,-3.7369,-3.7324,-3.8576,-3.9332,-3.8718,-3.9156,-3.961,-3.9808,-3.9808,-3.9682,-3.9292,-3.9089,-3.8447,-3.7168,-3.6897,-3.6434,-3.5633,-3.56,-3.5898,-3.658,-3.6999,-3.7667,-3.8692,-3.8707,-3.8707,-3.8707,-3.8762,-3.8952,-3.9225,-3.9564,-3.9882,-4.0204,-4.0406,-4.0496,-4.0496,-4.0496,-4.0588,-4.0703,-4.0718,-4.0832,-4.0998,-4.1048,-4.1105,-4.1191,-4.1191,-4.1191,-4.1191,-4.1151,-4.1055,-4.0952,-4.0936,-4.0809,-4.0636,-4.0534,-4.0496,-4.0496,-4.0496,-4.0496,-4.0496,-4.0496,-4.0496,-4.0496,-4.0496,-4.0015,-3.9265,-3.82,-3.7469,-3.6673,-3.5673,-3.55,-3.55,-3.55,-3.55,-3.55,-3.55,-3.55,-3.55,-3.55,-3.55,-3.55,-3.55,-3.55,-3.55,-3.55,-3.55,-3.55,-3.55,-3.5439,-3.5417,-3.5417,-3.5069,-3.4696,-3.4323,-3.4235,-3.4068,-3.3807,-3.3807,-3.3807,-3.659,-3.6397,-3.6312,-3.6032,-3.5783,-3.5492,-3.5144,0.0,0.0,0.0,0.0,-3.5859,-3.666,-3.7398,-3.8005,-3.8304,-3.9337,-3.9952,-3.9516,-3.985,-4.0096,-4.0096,-3.9808,-3.9453,-3.9039,-3.8379,-3.7675,-3.6863,-3.6451,-3.6062,-3.5616,-3.56,-3.5849,-3.6374,-3.6921,-3.756,-3.8334,-3.8596,-3.8707,-3.8707,-3.8707,-3.8844,-3.9125,-3.9457,-3.9786,-4.011,-4.0381,-4.0496,-4.0496,-4.0496,-4.0537,-4.0616,-4.0674,-4.0776,-4.0863,-4.0976,-4.1051,-4.1126,-4.1171,-4.1191,-4.1191,-4.1191,-4.115,-4.108,-4.1023,-4.0925,-4.0809,-4.0636,-4.0582,-4.0588,-4.0519,-4.0496,-4.0496,-4.0496,-4.0496,-4.0496,-4.0496,-3.9881,-3.9034,-3.8161,-3.7296,-3.6442,-3.5635,-3.55,-3.55,-3.55,-3.55,-3.55,-3.55,-3.55,-3.55,-3.55,-3.55,-3.55,-3.55,-3.55,-3.55,-3.55,-3.55,-3.55,-3.55,-3.55,-3.5439,-3.5312,-3.5297,-3.4988,-3.4423,-3.4553,-3.4401,-3.3986,-3.3986,-3.3928,-3.5975,-3.6114,-3.6409,-3.6263,-3.5878,-3.5559,-3.5588,0.0,0.0,0.0,-3.56,-3.5859,-3.666,-3.7398,-3.8142,-3.887,-3.9622,-4.0096,-4.0096,-4.0011,-3.9943,-3.9943,-3.9276,-3.8785,-3.8667,-3.754,-3.6745,-3.6643,-3.5994,-3.56,-3.56,-3.56,-3.5827,-3.6249,-3.6803,-3.7267,-3.7667,-3.835,-3.8707,-3.8707,-3.8707,-3.8815,-3.9049,-3.9383,-3.972,-4.0032,-4.033,-4.0465,-4.0496,-4.0496,-4.0496,-4.0512,-4.063,-4.068,-4.0713,-4.0899,-4.0962,-4.1023,-4.115,-4.1191,-4.1191,-4.1191,-4.1191,-4.1171,-4.1056,-4.1026,-4.0988,-4.0795,-4.0729,-4.0684,-4.0582,-4.0547,-4.054,-4.053,-4.0523,-4.0515,-4.0504,-3.9765,-3.8873,-3.8142,-3.7199,-3.6308,-3.5615,-3.55,-3.55,-3.55,-3.55,-3.55,-3.55,-3.55,-3.55,-3.55,-3.55,-3.55,-3.55,-3.55,-3.55,-3.55,-3.55,-3.55,-3.55,-3.55,-3.5383,-3.5174,-3.5383,-3.5266,-3.4754,-3.499,-3.4813,-3.4288,-3.4288,-3.4141,-3.7103,-3.6937,-3.6453,-3.5588,-3.5324,-3.5328,-3.5559,-3.56,-3.56,-3.56,-3.56,-3.5859,-3.666,-3.7398,-3.8142,-3.887,-3.9622,-4.0096,-4.0096,-3.9571,-3.9157,-3.9157,-3.8514,-3.7821,-3.7202,-3.6931,-3.6502,-3.5836,-3.5667,-3.56,-3.56,-3.56,-3.5644,-3.5717,-3.6228,-3.656,-3.6623,-3.8016,-3.8707,-3.8707,-3.8707,-3.8719,-3.8777,-3.9054,-3.9352,-3.969,-4.0032,-4.0295,-4.0496,-4.0496,-4.0496,-4.0496,-4.0527,-4.0596,-4.0703,-4.0729,-4.084,-4.1023,-4.115,-4.1191,-4.1191,-4.1191,-4.1191,-4.1191,-4.1171,-4.1171,-4.1148,-4.0988,-4.088,-4.0788,-4.0751,-4.0746,-4.0738,-4.0678,-4.0661,-4.0643,-4.0515,-3.9284,-3.8161,-3.8027,-3.6757,-3.5635,-3.5519,-3.55,-3.55,-3.55,-3.55,-3.55,-3.55,-3.55,-3.55,-3.55,-3.55,-3.55,-3.55,-3.55,-3.55,-3.55,-3.55,-3.55,-3.55,-3.55,-3.5486,-3.5439,-3.5486,-3.5354,-3.5044,-3.5088,-3.4944,-3.4614,-3.4614,-3.4453,-3.6754,-3.6683,-3.6411,-3.6079,-3.6136,-3.6247,-3.6075,-3.6032,-3.5963,-3.565,-3.56,-3.5859,-3.666,-3.7083,-3.755,-3.8294,-3.8684,-3.8903,-3.8903,-3.8616,-3.8413,-3.8413,-3.7753,-3.7161,-3.6829,-3.64,-3.6011,-3.5616,-3.56,-3.56,-3.56,-3.56,-3.56,-3.56,-3.6118,-3.6395,-3.6395,-3.7396,-3.8016,-3.8267,-3.8562,-3.8707,-3.8723,-3.8971,-3.9173,-3.9352,-3.988,-4.0167,-4.0304,-4.0449,-4.0496,-4.0496,-4.0496,-4.053,-4.0596,-4.0667,-4.0831,-4.1019,-4.1077,-4.1149,-4.1191,-4.1191,-4.1191,-4.1191,-4.1191,-4.1191,-4.1191,-4.1127,-4.1019,-4.0883,-4.0813,-4.0797,-4.0785,-4.0752,-4.0757,-4.0742,-4.0623,-3.9297,-3.8099,-3.801,-3.6654,-3.55,-3.55,-3.55,-3.55,-3.55,-3.55,-3.55,-3.55,-3.55,-3.55,-3.55,-3.55,-3.55,-3.55,-3.55,-3.55,-3.55,-3.55,-3.55,-3.55,-3.55,-3.55,-3.55,-3.55,-3.5439,-3.5312,-3.5312,-3.5182,-3.4917,-3.4917,-3.4764,-3.6535,-3.6632,-3.667,-3.706,-3.7041,-3.681,-3.6484,-3.6291,-3.6097,-3.5672,-3.56,-3.5785,-3.64,-3.6677,-3.7049,-3.7787,-3.7905,-3.7905,-3.7905,-3.7753,-3.7652,-3.7652,-3.6975,-3.6502,-3.6502,-3.596,-3.56,-3.56,-3.56,-3.56,-3.56,-3.56,-3.56,-3.56,-3.6006,-3.6224,-3.6224,-3.6744,-3.7304,-3.7893,-3.8334,-3.8486,-3.8429,-3.8627,-3.8659,-3.8561,-3.9078,-3.9382,-3.9528,-3.9744,-3.9977,-4.0227,-4.0227,-4.0323,-4.0519,-4.0662,-4.0795,-4.0933,-4.095,-4.1049,-4.115,-4.115,-4.1171,-4.1191,-4.1191,-4.1191,-4.1191,-4.1191,-4.1127,-4.1023,-4.092,-4.0883,-4.0899,-4.0857,-4.0854,-4.0766,-4.0509,-3.9259,-3.8106,-3.779,-3.6535,-3.55,-3.55,-3.55,-3.55,-3.55,-3.55,-3.55,-3.55,-3.55,-3.55,-3.55,-3.55,-3.55,-3.55,-3.55,-3.55,-3.55,-3.55,-3.55,-3.55,-3.55,-3.55,-3.55,-3.55,-3.55,-3.55,-3.55,-3.5391,-3.5198,-3.5198,-3.5062,-3.7449,-3.76,-3.7588,-3.8365,-3.7265,-3.6066,-3.6345,-3.6011,-3.5644,-3.5622,-3.56,-3.5616,-3.5667,-3.6299,-3.7049,-3.7787,-3.7905,-3.7905,-3.7905,-3.7313,-3.688,-3.688,-3.618,-3.5684,-3.5684,-3.5633,-3.56,-3.56,-3.56,-3.56,-3.56,-3.56,-3.56,-3.56,-3.5644,-3.565,-3.565,-3.6203,-3.6943,-3.7893,-3.7946,-3.7834,-3.7584,-3.7614,-3.7336,-3.6889,-3.692,-3.7254,-3.7782,-3.78,-3.8427,-3.94,-3.94,-3.9842,-4.0519,-4.0662,-4.0715,-4.0729,-4.0796,-4.0908,-4.1002,-4.1002,-4.1103,-4.1191,-4.1191,-4.1191,-4.1191,-4.1191,-4.1191,-4.1172,-4.1171,-4.1171,-4.1149,-4.1021,-4.099,-4.0757,-3.9867,-3.8899,-3.7964,-3.7144,-3.617,-3.55,-3.55,-3.55,-3.55,-3.55,-3.55,-3.55,-3.55,-3.55,-3.55,-3.55,-3.55,-3.55,-3.55,-3.55,-3.55,-3.55,-3.55,-3.55,-3.55,-3.55,-3.55,-3.55,-3.55,-3.55,-3.55,-3.55,-3.5493,-3.546,-3.546,-3.5339,-3.8407,-3.8446,-3.8322,-3.8615,-3.7696,-3.6745,-3.687,-3.6481,-3.5989,-3.5672,-3.56,-3.56,-3.56,-3.5859,-3.6146,-3.6411,-3.6462,-3.6462,-3.6462,-3.6248,-3.6062,-3.6062,-3.5785,-3.56,-3.56,-3.56,-3.56,-3.56,-3.56,-3.56,-3.56,-3.56,-3.56,-3.56,-3.56,-3.56,-3.56,-3.5805,-3.627,-3.6981,-3.7596,-3.7581,-3.7019,-3.7354,-3.7106,-3.6468,-3.6638,-3.6918,-3.7316,-3.7509,-3.795,-3.8488,-3.8488,-3.8681,-3.8945,-3.8998,-3.9071,-3.9152,-3.917,-3.9249,-3.9335,-3.9369,-3.9429,-3.9463,-3.955,-3.9961,-4.0391,-4.0391,-4.0781,-4.1191,-4.1191,-4.1191,-4.1191,-4.1148,-4.1127,-4.0866,-3.988,-3.8951,-3.8045,-3.7094,-3.6182,-3.5552,-3.5501,-3.55,-3.55,-3.55,-3.55,-3.55,-3.55,-3.55,-3.55,-3.55,-3.55,-3.55,-3.55,-3.55,-3.55,-3.55,-3.55,-3.55,-3.55,-3.55,-3.55,-3.55,-3.55,-3.55,-3.55,-3.55,-3.55,-3.55,-3.55,-3.5446,-3.9114,-3.904,-3.8818,-3.8719,-3.805,-3.7378,-3.7229,-3.6664,-3.6032,-3.5689,-3.56,-3.56,-3.56,-3.56,-3.56,-3.56,-3.56,-3.56,-3.56,-3.56,-3.56,-3.56,-3.56,-3.56,-3.56,-3.56,-3.56,-3.56,-3.56,-3.56,-3.56,-3.56,-3.56,-3.56,-3.56,-3.56,-3.56,-3.56,-3.5766,-3.6161,-3.6775,-3.6808,-3.6325,-3.6587,-3.6266,-3.5509,-3.5708,-3.5944,-3.6208,-3.6439,-3.6898,-3.7502,-3.787,-3.8007,-3.8007,-3.8007,-3.806,-3.8142,-3.8142,-3.819,-3.8272,-3.8312,-3.8376,-3.8429,-3.8509,-3.8983,-3.9492,-3.9492,-4.0117,-4.0781,-4.0781,-4.0996,-4.1191,-4.1191,-4.0996,-4.0527,-3.9557,-3.8645,-3.7737,-3.676,-3.6065,-3.5626,-3.5566,-3.5568,-3.5568,-3.5568,-3.554,-3.5528,-3.5528,-3.5515,-3.55,-3.55,-3.55,-3.55,-3.55,-3.55,-3.55,-3.55,-3.55,-3.55,-3.55,-3.55,-3.55,-3.55,-3.55,-3.55,-3.55,-3.55,-3.55,-3.55,-3.55,-3.55,-3.9452,-3.9352,-3.9036,-3.8777,-3.83,-3.7772,-3.7304,-3.6378,-3.56,-3.56,-3.56,-3.56,-3.56,-3.56,-3.56,-3.56,-3.56,-3.56,-3.56,-3.56,-3.56,-3.56,-3.56,-3.56,-3.56,-3.56,-3.56,-3.56,-3.56,-3.56,-3.56,-3.56,-3.56,-3.56,-3.56,-3.56,-3.56,-3.56,-3.56,-3.5583,-3.539,-3.5358,-3.5479,-3.5133,-3.4564,-3.3788,-3.3807,-3.3948,-3.42,-3.42,-3.5036,-3.6398,-3.7529,-3.7969,-3.7988,-3.7988,-3.7988,-3.7988,-3.7988,-3.8061,-3.8164,-3.8164,-3.8264,-3.8364,-3.8385,-3.8467,-3.8594,-3.8594,-3.9219,-3.9883,-3.9883,-4.0527,-4.1172,-4.1191,-4.0527,-3.9668,-3.8789,-3.7862,-3.6939,-3.6077,-3.5799,-3.5707,-3.5707,-3.5707,-3.5707,-3.5707,-3.5633,-3.5591,-3.5611,-3.5534,-3.55,-3.55,-3.55,-3.55,-3.55,-3.55,-3.55,-3.55,-3.55,-3.55,-3.55,-3.55,-3.55,-3.55,-3.55,-3.55,-3.55,-3.55,-3.55,-3.55,-3.55,-3.55,-3.9622,-3.9352,-3.9036,-3.8777,-3.83,-3.7859,-3.772,-3.6904,-3.6071,-3.5672,-3.56,-3.56,-3.56,-3.56,-3.56,-3.56,-3.56,-3.56,-3.56,-3.56,-3.56,-3.56,-3.56,-3.56,-3.56,-3.56,-3.56,-3.56,-3.56,-3.56,-3.56,-3.56,-3.56,-3.56,-3.56,-3.56,-3.56,-3.56,-3.56,-3.5583,-3.4813,-3.4471,-3.451,-3.4559,-3.4141,-3.339,-3.368,-3.3948,-3.4211,-3.4445,-3.4916,-3.5495,-3.5829,-3.6075,-3.6231,-3.6231,-3.6231,-3.6231,-3.6231,-3.6272,-3.6305,-3.6358,-3.6406,-3.6452,-3.6603,-3.7103,-3.7624,-3.7675,-3.8301,-3.8984,-3.8984,-3.918,-3.9531,-4.0137,-4.0098,-3.9492,-3.8008,-3.748,-3.7005,-3.6084,-3.5871,-3.5807,-3.5717,-3.5707,-3.5707,-3.5707,-3.5682,-3.565,-3.5601,-3.5574,-3.5558,-3.5514,-3.55,-3.55,-3.55,-3.55,-3.55,-3.55,-3.55,-3.55,-3.55,-3.55,-3.55,-3.55,-3.55,-3.55,-3.55,-3.55,-3.55,-3.55,-3.55,-3.55,-3.9872,-3.9552,-3.9231,-3.8937,-3.8535,-3.8167,-3.7946,-3.7117,-3.6245,-3.5717,-3.56,-3.56,-3.56,-3.56,-3.56,-3.56,-3.56,-3.56,-3.56,-3.56,-3.56,-3.56,-3.56,-3.56,-3.56,-3.5362,-3.5207,-3.5207,-3.4958,-3.4934,-3.5184,-3.5207,-3.5316,-3.56,-3.56,-3.56,-3.56,-3.56,-3.56,-3.5583,-3.4379,-3.3825,-3.3814,-3.389,-3.365,-3.3229,-3.3638,-3.3889,-3.4068,-3.4368,-3.4603,-3.4774,-3.5008,-3.5198,-3.5361,-3.5453,-3.55,-3.55,-3.55,-3.55,-3.552,-3.5546,-3.5582,-3.5621,-3.5735,-3.6162,-3.6627,-3.6727,-3.7377,-3.8043,-3.8086,-3.834,-3.873,-3.9258,-3.9121,-3.8574,-3.7539,-3.7031,-3.662,-3.6045,-3.5944,-3.5918,-3.5836,-3.581,-3.581,-3.581,-3.5809,-3.5743,-3.5642,-3.5648,-3.5621,-3.5574,-3.5582,-3.5582,-3.5582,-3.5582,-3.5579,-3.5534,-3.5547,-3.5534,-3.55,-3.55,-3.55,-3.55,-3.55,-3.55,-3.55,-3.55,-3.55,-3.55,-3.55,-3.55,-4.0167,-3.988,-3.9564,-3.9186,-3.8894,-3.8546,-3.7963,-3.7117,-3.6312,-3.5766,-3.5627,-3.56,-3.56,-3.56,-3.56,-3.56,-3.56,-3.56,-3.56,-3.56,-3.56,-3.56,-3.5554,-3.5515,-3.5515,-3.4894,-3.4503,-3.4503,-3.3937,-3.3862,-3.4479,-3.4576,-3.4894,-3.5492,-3.5577,-3.56,-3.56,-3.56,-3.56,-3.5583,-3.4095,-3.3406,-3.3397,-3.3174,-3.3105,-3.3229,-3.3638,-3.3807,-3.3815,-3.4068,-3.4183,-3.4258,-3.4832,-3.5079,-3.513,-3.5391,-3.55,-3.55,-3.55,-3.55,-3.55,-3.55,-3.5534,-3.559,-3.5605,-3.5633,-3.571,-3.5841,-3.6466,-3.7103,-3.7166,-3.7754,-3.8359,-3.8359,-3.7812,-3.7285,-3.7207,-3.6562,-3.5996,-3.5996,-3.5996,-3.5996,-3.5996,-3.5996,-3.5996,-3.5996,-3.5948,-3.5853,-3.5726,-3.5717,-3.5713,-3.5707,-3.5707,-3.5707,-3.5707,-3.5707,-3.5667,-3.5616,-3.5606,-3.5582,-3.5515,-3.5507,-3.55,-3.55,-3.55,-3.55,-3.55,-3.55,-3.55,-3.55,-3.55,-3.55,-4.0167,-4.0061,-3.9859,-3.9238,-3.8894,-3.8449,-3.756,-3.7173,-3.6882,-3.6333,-3.5898,-3.56,-3.56,-3.56,-3.56,-3.56,-3.56,-3.56,-3.56,-3.56,-3.56,-3.56,-3.5138,-3.4823,-3.4823,-3.4211,-3.3811,-3.3811,-3.3684,-3.3659,-3.3811,-3.4309,-3.4664,-3.4807,-3.5339,-3.56,-3.56,-3.56,-3.56,-3.5583,-3.4095,-3.3406,-3.3376,-3.2498,-3.25,-3.3229,-3.3638,-3.3807,-3.3802,-3.385,-3.4006,-3.4235,-3.4634,-3.4917,-3.513,-3.5391,-3.55,-3.55,-3.55,-3.55,-3.55,-3.55,-3.5508,-3.5528,-3.5574,-3.5611,-3.5639,-3.5726,-3.5948,-3.6178,-3.6207,-3.6381,-3.6562,-3.6562,-3.6934,-3.7109,-3.6426,-3.6133,-3.5996,-3.5996,-3.5996,-3.5996,-3.5996,-3.5996,-3.5996,-3.5996,-3.5995,-3.5949,-3.5873,-3.5867,-3.5829,-3.5713,-3.5707,-3.5707,-3.5707,-3.5707,-3.5696,-3.5675,-3.5675,-3.5642,-3.5588,-3.5534,-3.55,-3.55,-3.55,-3.55,-3.55,-3.55,-3.55,-3.55,-3.55,-3.55,-4.033,-4.0195,-3.9932,-3.9264,-3.8999,-3.8733,-3.8065,-3.772,-3.7396,-3.6902,-3.6143,-3.56,-3.56,-3.56,-3.56,-3.56,-3.56,-3.56,-3.56,-3.56,-3.547,-3.5161,-3.4807,-3.4479,-3.4161,-3.3505,-3.3119,-3.3119,-3.2799,-3.2745,-3.3119,-3.3469,-3.3937,-3.4576,-3.4941,-3.5276,-3.56,-3.56,-3.56,-3.5583,-3.4095,-3.3034,-3.2327,-3.1982,-3.2315,-3.3214,-3.3419,-3.3606,-3.3807,-3.3807,-3.3876,-3.4031,-3.4334,-3.4645,-3.4944,-3.5207,-3.5383,-3.55,-3.55,-3.55,-3.55,-3.55,-3.55,-3.552,-3.5534,-3.5558,-3.5574,-3.5635,-3.5723,-3.5812,-3.5877,-3.5948,-3.5996,-3.5996,-3.6348,-3.6543,-3.6094,-3.5996,-3.5996,-3.5996,-3.5996,-3.5996,-3.5996,-3.5996,-3.5996,-3.5996,-3.5996,-3.5995,-3.5949,-3.5948,-3.5923,-3.5845,-3.5843,-3.5843,-3.5843,-3.5843,-3.5832,-3.5802,-3.5799,-3.5746,-3.5646,-3.5616,-3.5574,-3.55,-3.55,-3.55,-3.55,-3.55,-3.55,-3.55,-3.55,-3.55,-4.0504,-4.0294,-3.9972,-3.9401,-3.9192,-3.9022,-3.8725,-3.8265,-3.7772,-3.7285,-3.6419,-3.5717,-3.5622,-3.56,-3.56,-3.56,-3.56,-3.56,-3.56,-3.56,-3.5362,-3.4688,-3.4503,-3.4161,-3.3479,-3.2815,-3.241,-3.241,-3.1853,-3.1768,-3.2382,-3.2532,-3.3119,-3.4211,-3.4358,-3.4736,-3.5407,-3.5447,-3.5492,-3.5583,-3.4095,-3.2696,-3.1396,-3.1596,-3.2161,-3.2965,-3.3196,-3.3447,-3.3707,-3.3762,-3.3807,-3.3829,-3.4105,-3.4368,-3.4645,-3.4981,-3.5231,-3.5439,-3.5486,-3.55,-3.55,-3.55,-3.55,-3.55,-3.55,-3.55,-3.5515,-3.5574,-3.563,-3.5703,-3.5836,-3.5922,-3.5995,-3.5996,-3.5996,-3.5996,-3.5996,-3.5996,-3.5996,-3.5996,-3.5996,-3.5996,-3.5996,-3.5996,-3.5996,-3.5996,-3.5996,-3.5996,-3.5996,-3.5996,-3.5996,-3.5996,-3.5996,-3.5996,-3.5996,-3.5996,-3.5974,-3.5916,-3.5913,-3.5855,-3.5729,-3.5726,-3.5663,-3.554,-3.5522,-3.5528,-3.5528,-3.5514,-3.55,-3.55,-3.55,-3.55,-4.0523,-4.0294,-4.0081,-3.9992,-3.9541,-3.8966,-3.8541,-3.8156,-3.7772,-3.7285,-3.6724,-3.6161,-3.5689,-3.56,-3.56,-3.56,-3.56,-3.56,-3.56,-3.56,-3.5362,-3.4688,-3.4087,-3.3453,-3.2788,-3.2076,-3.164,-3.164,-3.1553,-3.1524,-3.164,-3.2244,-3.2668,-3.2868,-3.3443,-3.4062,-3.4736,-3.4736,-3.5028,-3.5583,-3.4095,-3.2966,-3.2124,-3.1557,-3.1545,-3.2057,-3.3207,-3.355,-3.3302,-3.3666,-3.3807,-3.3829,-3.4105,-3.4242,-3.4327,-3.4898,-3.5122,-3.519,-3.5424,-3.55,-3.55,-3.55,-3.55,-3.55,-3.55,-3.55,-3.5507,-3.5508,-3.5562,-3.5626,-3.5719,-3.5814,-3.5939,-3.5995,-3.5996,-3.5996,-3.5996,-3.5996,-3.5996,-3.5996,-3.5996,-3.5996,-3.5996,-3.5996,-3.5996,-3.5996,-3.5996,-3.5996,-3.5996,-3.5996,-3.5996,-3.5996,-3.5996,-3.5996,-3.5996,-3.5996,-3.5996,-3.5995,-3.5995,-3.595,-3.5875,-3.5873,-3.5802,-3.5687,-3.5621,-3.5579,-3.5599,-3.5534,-3.55,-3.55,-3.55,-3.55,-4.0549,-4.0406,-4.0295,-4.0139,-3.9742,-3.9289,-3.8892,-3.8573,-3.82,-3.7685,-3.7192,-3.6684,-3.6161,-3.5788,-3.56,-3.56,-3.56,-3.56,-3.56,-3.5276,-3.48,-3.4112,-3.3443,-3.2761,-3.2064,-3.1697,-3.1511,-3.1511,-3.1511,-3.1511,-3.1511,-3.1796,-3.216,-3.2602,-3.2895,-3.3531,-3.4576,-3.46,-3.4742,-3.4979,-3.4336,-3.3626,-3.2903,-3.2422,-3.2184,-3.223,-3.2825,-3.324,-3.355,-3.3721,-3.3807,-3.3802,-3.3923,-3.4068,-3.4279,-3.5055,-3.5514,-3.5846,-3.6427,-3.6731,-3.6815,-3.6327,-3.6173,-3.6096,-3.5635,-3.55,-3.55,-3.55,-3.5552,-3.5601,-3.5644,-3.5768,-3.5907,-3.5942,-3.5974,-3.5996,-3.5996,-3.5996,-3.5996,-3.5996,-3.5996,-3.5996,-3.5996,-3.5996,-3.5996,-3.5996,-3.5996,-3.5996,-3.5996,-3.5996,-3.5996,-3.5996,-3.5996,-3.5996,-3.5996,-3.5996,-3.5996,-3.5996,-3.5996,-3.5995,-3.5951,-3.597,-3.5926,-3.5872,-3.5683,-3.5611,-3.5611,-3.5528,-3.55,-3.55,-3.55,-3.55,-4.0588,-4.0534,-4.0457,-4.0241,-3.9963,-3.9634,-3.9302,-3.9017,-3.8664,-3.8216,-3.772,-3.721,-3.6704,-3.6054,-3.56,-3.56,-3.56,-3.5538,-3.5362,-3.4918,-3.4284,-3.3443,-3.2879,-3.2299,-3.1582,-3.1511,-3.1511,-3.1511,-3.1511,-3.1511,-3.1511,-3.1511,-3.1739,-3.2299,-3.2327,-3.2879,-3.4087,-3.4431,-3.4659,-3.4776,-3.459,-3.4201,-3.3681,-3.3288,-3.3024,-3.2897,-3.2744,-3.2981,-3.349,-3.3707,-3.3807,-3.3825,-3.4027,-3.4242,-3.4525,-3.5467,-3.6058,-3.6511,-3.7243,-3.767,-3.7778,-3.7216,-3.6885,-3.6596,-3.5981,-3.5654,-3.55,-3.55,-3.554,-3.5582,-3.56,-3.5702,-3.5846,-3.5896,-3.5944,-3.5975,-3.5996,-3.5996,-3.5996,-3.5996,-3.5996,-3.5996,-3.5996,-3.5996,-3.5996,-3.5996,-3.5996,-3.5996,-3.5996,-3.5996,-3.5996,-3.5996,-3.5996,-3.5996,-3.5996,-3.5996,-3.5996,-3.5996,-3.5996,-3.5996,-3.5996,-3.5996,-3.5996,-3.5996,-3.5786,-3.5685,-3.5685,-3.5574,-3.5528,-3.5528,-3.5501,-3.55,-4.0686,-4.0589,-4.0496,-4.0481,-4.0267,-3.9992,-3.9645,-3.9333,-3.8994,-3.8716,-3.8216,-3.772,-3.7248,-3.6295,-3.56,-3.56,-3.56,-3.5385,-3.4736,-3.4624,-3.4112,-3.2815,-3.2614,-3.2299,-3.1582,-3.1511,-3.1511,-3.1511,-3.1511,-3.1511,-3.1511,-3.1511,-3.1511,-3.1553,-3.1553,-3.1923,-3.2695,-3.3962,-3.4925,-3.5532,-3.4827,-3.4472,-3.4404,-3.3698,-3.3615,-3.3994,-3.3421,-3.2937,-3.2632,-3.3462,-3.3807,-3.388,-3.4637,-3.4963,-3.5092,-3.6207,-3.6664,-3.677,-3.7317,-3.7517,-3.7571,-3.7844,-3.7373,-3.6692,-3.6654,-3.6096,-3.55,-3.55,-3.5507,-3.5515,-3.5574,-3.5621,-3.5653,-3.5858,-3.5903,-3.5916,-3.5995,-3.5996,-3.5996,-3.5996,-3.5996,-3.5996,-3.5996,-3.5996,-3.5996,-3.5996,-3.5996,-3.5996,-3.5996,-3.5996,-3.5996,-3.5996,-3.5996,-3.5996,-3.5996,-3.5996,-3.5996,-3.5996,-3.5996,-3.5996,-3.5996,-3.5996,-3.5996,-3.5996,-3.5918,-3.5875,-3.5875,-3.5698,-3.56,-3.5595,-3.5522,-3.55,-4.0735,-4.0655,-4.0603,-4.0527,-4.0304,-4.0071,-3.9943,-3.9505,-3.9072,-3.899,-3.8384,-3.7755,-3.7285,-3.6603,-3.6006,-3.5667,-3.56,-3.5515,-3.5276,-3.4496,-3.3786,-3.3287,-3.2449,-3.1796,-3.1539,-3.1511,-3.1511,-3.1511,-3.1511,-3.1511,-3.1511,-3.1511,-3.1511,-3.1511,-3.1511,-3.2048,-3.3235,-3.4137,-3.4941,-3.56,-3.5329,-3.5216,-3.5182,-3.4438,-3.4207,-3.4332,-3.3955,-3.4021,-3.4474,-3.5133,-3.5404,-3.5422,-3.5716,-3.5844,-3.595,-3.6869,-3.7317,-3.7598,-3.8535,-3.9,-3.9127,-3.89,-3.8623,-3.8161,-3.7038,-3.65,-3.6154,-3.5654,-3.55,-3.5514,-3.5522,-3.5579,-3.5654,-3.5858,-3.5901,-3.5914,-3.5995,-3.5996,-3.5996,-3.5996,-3.5996,-3.5996,-3.5996,-3.5996,-3.5996,-3.5996,-3.5996,-3.5996,-3.5996,-3.5996,-3.5996,-3.5996,-3.5996,-3.5996,-3.5996,-3.5996,-3.5996,-3.5996,-3.5996,-3.5996,-3.5996,-3.5996,-3.5996,-3.5996,-3.5974,-3.5946,-3.5901,-3.5733,-3.5633,-3.5591,-3.5631,-3.5568,-4.0776,-4.0718,-4.0661,-4.0523,-4.0364,-4.0204,-4.012,-3.9668,-3.9244,-3.9107,-3.86,-3.8015,-3.7524,-3.702,-3.6437,-3.5717,-3.56,-3.5447,-3.4981,-3.4178,-3.3427,-3.2944,-3.2076,-3.1511,-3.1511,-3.1511,-3.1511,-3.1511,-3.1511,-3.1511,-3.1511,-3.1511,-3.1511,-3.1511,-3.1511,-3.2173,-3.3582,-3.4037,-3.4712,-3.56,-3.56,-3.56,-3.5583,-3.5098,-3.4861,-3.4866,-3.4868,-3.4925,-3.508,-3.5758,-3.6024,-3.6075,-3.6534,-3.6703,-3.6813,-3.7621,-3.8022,-3.8289,-3.9146,-3.9645,-3.9897,-3.9655,-3.9453,-3.9034,-3.7584,-3.6923,-3.6519,-3.5731,-3.55,-3.55,-3.55,-3.5552,-3.5645,-3.5791,-3.5871,-3.5914,-3.5995,-3.5996,-3.5996,-3.5996,-3.5996,-3.5996,-3.5996,-3.5996,-3.5996,-3.5996,-3.5996,-3.5996,-3.5996,-3.5996,-3.5996,-3.5996,-3.5996,-3.5996,-3.5996,-3.5996,-3.5996,-3.5996,-3.5996,-3.5996,-3.5996,-3.5996,-3.5996,-3.5996,-3.5996,-3.5975,-3.5922,-3.5817,-3.5736,-3.5694,-3.5709,-3.5648,0.0,0.0,0.0,-4.0523,-4.0496,-4.0422,-4.0167,-3.9859,-3.9517,-3.9173,-3.888,-3.8546,-3.7997,-3.7524,-3.6865,-3.581,-3.5622,-3.5138,-3.3836,-3.3633,-3.313,-3.1739,-3.1524,-3.1524,-3.1511,-3.1511,-3.1511,-3.1511,-3.1511,-3.1511,-3.1511,-3.1511,-3.1511,-3.1511,-3.1511,-3.2173,-3.3582,-3.3582,-3.4276,-3.56,-3.56,-3.56,-3.56,-3.56,-3.56,-3.5644,-3.6161,-3.5544,-3.4235,-3.5169,-3.557,-3.5708,-3.7016,-3.7529,-3.7621,-3.8414,-3.8707,-3.875,-3.9013,-3.9314,-3.9656,-3.9992,-3.975,-3.9169,-3.8277,-3.7411,-3.6577,-3.5731,-3.55,-3.55,-3.55,-3.5552,-3.5616,-3.5678,-3.5799,-3.591,-3.5975,-3.5996,-3.5996,-3.5996,-3.5996,-3.5996,-3.5996,-3.5996,-3.5996,-3.5996,-3.5996,-3.5996,-3.5996,-3.5996,-3.5996,-3.5996,-3.5996,-3.5996,-3.5996,-3.5996,-3.5996,-3.5996,-3.5996,-3.5996,-3.5996,-3.5996,-3.5996,-3.5996,-3.5996,-3.5996,-3.5996,-3.5922,-3.5903,-3.5901,-3.5764,-3.5671,-4.0864,0.0,0.0,0.0,0.0,0.0,-4.0417,-3.9984,-3.9576,-3.9493,-3.9064,-3.8546,-3.7997,-3.779,-3.7506,-3.6865,-3.6118,-3.547,-3.5091,-3.4616,-3.4012,-3.313,-3.2598,-3.2092,-3.1553,-3.1511,-3.1511,-3.1511,-3.1511,-3.1511,-3.1511,-3.1511,-3.1511,-3.1511,-3.1511,-3.2173,-3.3582,-3.3582,-3.4276,-3.56,-3.56,-3.56,-3.56,-3.56,-3.56,-3.5622,-3.5761,-3.581,-3.5853,-3.6827,-3.7227,-3.7313,-3.8076,-3.8377,-3.8395,-3.8615,-3.8707,-3.875,-3.9013,-3.9314,-3.9656,-3.9992,-4.0133,-3.99,-3.843,-3.7834,-3.7334,-3.5904,-3.55,-3.55,-3.55,-3.5521,-3.554,-3.5611,-3.5668,-3.5702,-3.5775,-3.5859,-3.5945,-3.5996,-3.5996,-3.5996,-3.5996,-3.5996,-3.5996,-3.5996,-3.5996,-3.5996,-3.5996,-3.5996,-3.5996,-3.5996,-3.5996,-3.5996,-3.5996,-3.5996,-3.5996,-3.5996,-3.5996,-3.5996,-3.5996,-3.5996,-3.5996,-3.5996,-3.5996,-3.5996,-3.5996,-3.5975,-3.5948,-3.5901,-3.5764,-3.5693,-4.086,-4.0797,-4.0775,-4.0623,0.0,0.0,-4.0496,-4.0138,-3.9808,-3.9808,-3.932,-3.8778,-3.8462,-3.8127,-3.7807,-3.7542,-3.6805,-3.6084,-3.5587,-3.4978,-3.4358,-3.3684,-3.3277,-3.2853,-3.2407,-3.2132,-3.1951,-3.1951,-3.1653,-3.1511,-3.1511,-3.1511,-3.1511,-3.1511,-3.1511,-3.2048,-3.3156,-3.3469,-3.4137,-3.5184,-3.547,-3.56,-3.56,-3.56,-3.56,-3.56,-3.56,-3.5898,-3.6457,-3.7268,-3.772,-3.7963,-3.8481,-3.8707,-3.8707,-3.8707,-3.8707,-3.8719,-3.8884,-3.9131,-3.9457,-3.9786,-4.0101,-4.0106,-3.8908,-3.8296,-3.7719,-3.6385,-3.575,-3.55,-3.55,-3.55,-3.5528,-3.5574,-3.5611,-3.5626,-3.5686,-3.5805,-3.591,-3.5948,-3.5975,-3.5996,-3.5996,-3.5996,-3.5996,-3.5996,-3.5996,-3.5996,-3.5996,-3.5996,-3.5996,-3.5996,-3.5996,-3.5996,-3.5996,-3.5996,-3.5996,-3.5996,-3.5996,-3.5996,-3.5996,-3.5996,-3.5996,-3.5996,-3.5996,-3.5996,-3.5996,-3.5996,-3.5975,-3.5945,-3.5866,-3.5802,-4.0857,-4.0809,-4.0773,-4.0718,-4.0596,0.0,-4.0496,-4.0285,-4.0101,-4.0101,-3.9599,-3.9133,-3.9112,-3.8521,-3.8029,-3.7997,-3.7578,-3.689,-3.5758,-3.5136,-3.4535,-3.3896,-3.3761,-3.3684,-3.3608,-3.3066,-3.2668,-3.2629,-3.1938,-3.1511,-3.1511,-3.1511,-3.1511,-3.1511,-3.1511,-3.1894,-3.2695,-3.3287,-3.3987,-3.4712,-3.5316,-3.56,-3.56,-3.56,-3.56,-3.56,-3.56,-3.5941,-3.6539,-3.7001,-3.747,-3.7963,-3.8481,-3.8707,-3.8707,-3.8707,-3.8707,-3.8707,-3.8707,-3.8884,-3.9165,-3.9486,-3.9819,-3.9996,-3.9465,-3.8681,-3.7796,-3.6846,-3.6058,-3.55,-3.55,-3.55,-3.5521,-3.5571,-3.5585,-3.5601,-3.5652,-3.578,-3.5864,-3.5864,-3.5946,-3.5996,-3.5996,-3.5996,-3.5996,-3.5996,-3.5996,-3.5996,-3.5996,-3.5996,-3.5996,-3.5996,-3.5996,-3.5996,-3.5996,-3.5996,-3.5996,-3.5996,-3.5996,-3.5996,-3.5996,-3.5996,-3.5996,-3.5996,-3.5996,-3.5996,-3.5996,-3.5996,-3.5996,-3.5996,-3.5996,-3.5952,-4.0962,-4.0877,-4.0773,-4.0718,-4.0596,0.0,-4.0496,-4.0285,-4.0101,-4.0101,-3.9786,-3.9414,-3.9147,-3.8971,-3.881,-3.859,-3.8099,-3.7542,-3.6946,-3.6385,-3.5795,-3.5132,-3.4669,-3.4186,-3.3659,-3.3495,-3.3198,-3.2641,-3.1938,-3.1511,-3.1511,-3.1511,-3.1511,-3.1511,-3.1511,-3.2104,-3.3391,-3.3531,-3.4202,-3.5407,-3.5554,-3.56,-3.56,-3.56,-3.56,-3.56,-3.56,-3.6143,-3.7039,-3.7171,-3.747,-3.7963,-3.8481,-3.8707,-3.8707,-3.8707,-3.8707,-3.8707,-3.8707,-3.8884,-3.9165,-3.9486,-3.9819,-3.9996,-3.9465,-3.8681,-3.768,-3.6154,-3.5615,-3.55,-3.55,-3.55,-3.5507,-3.5528,-3.5515,-3.5522,-3.554,-3.5609,-3.5663,-3.5663,-3.5849,-3.5975,-3.5939,-3.5952,-3.5996,-3.5996,-3.5996,-3.5996,-3.5996,-3.5996,-3.5996,-3.5996,-3.5996,-3.5996,-3.5996,-3.5996,-3.5996,-3.5996,-3.5996,-3.5996,-3.5996,-3.5996,-3.5996,-3.5996,-3.5996,-3.5996,-3.5996,-3.5996,-3.5996,-3.5996,-3.5996,-3.5952,-4.0988,-4.0908,-4.0785,-4.0767,-4.0623,0.0,0.0,-4.0389,-4.0304,-4.0304,-4.0053,-3.9797,-3.9634,-3.945,-3.9308,-3.9163,-3.8929,-3.8615,-3.82,-3.738,-3.6586,-3.5972,-3.5664,-3.5255,-3.4657,-3.4284,-3.3684,-3.2668,-3.1938,-3.1511,-3.1511,-3.1511,-3.1511,-3.1511,-3.1511,-3.2035,-3.3093,-3.3443,-3.4128,-3.5098,-3.543,-3.56,-3.56,-3.56,-3.56,-3.5622,-3.5876,-3.646,-3.7228,-3.7451,-3.7843,-3.8334,-3.8578,-3.8707,-3.8707,-3.8707,-3.8707,-3.8707,-3.8707,-3.8788,-3.8975,-3.9445,-3.9701,-3.9867,-3.9893,-3.9008,-3.7642,-3.5962,-3.55,-3.55,-3.55,-3.55,-3.55,-3.55,-3.55,-3.55,-3.55,-3.5538,-3.559,-3.555,-3.5702,-3.5864,-3.5882,-3.597,-3.5996,-3.5996,-3.5996,-3.5996,-3.5996,-3.5996,-3.5996,-3.5996,-3.5996,-3.5996,-3.5996,-3.5996,-3.5996,-3.5996,-3.5996,-3.5996,-3.5996,-3.5996,-3.5996,-3.5996,-3.5996,-3.5996,-3.5996,-3.5996,-3.5996,-3.5996,-3.5996,-3.5975,-4.0959,-4.092,-4.0824,-4.0805,-4.0663,-4.0523,0.0,0.0,0.0,-4.0496,-4.033,-4.0158,-4.011,-3.988,-3.9668,-3.9611,-3.9599,-3.9517,-3.9225,-3.8308,-3.7416,-3.6766,-3.6603,-3.6333,-3.5805,-3.5058,-3.4161,-3.3066,-3.2312,-3.1879,-3.1879,-3.1796,-3.1768,-3.1894,-3.1796,-3.2104,-3.2986,-3.3521,-3.4137,-3.4783,-3.5339,-3.56,-3.56,-3.56,-3.56,-3.5644,-3.6161,-3.6704,-3.7247,-3.7702,-3.8216,-3.8707,-3.8707,-3.8707,-3.8707,-3.8707,-3.8707,-3.8707,-3.8707,-3.8707,-3.8807,-3.9396,-3.9679,-3.9806,-3.9961,-3.9065,-3.7642,-3.5962,-3.55,-3.55,-3.55,-3.55,-3.55,-3.55,-3.55,-3.55,-3.55,-3.5534,-3.5568,-3.5508,-3.5605,-3.5726,-3.5838,-3.5923,-3.5995,-3.5996,-3.5996,-3.5996,-3.5996,-3.5996,-3.5996,-3.5996,-3.5996,-3.5996,-3.5996,-3.5996,-3.5996,-3.5996,-3.5996,-3.5996,-3.5996,-3.5996,-3.5996,-3.5996,-3.5996,-3.5996,-3.5996,-3.5996,-3.5996,-3.5996,-3.5996,-3.5996,-4.0959,-4.0992,-4.0952,-4.082,-4.0738,-4.0655,-4.0534,0.0,-4.0496,-4.0496,0.0,-4.0381,-4.0139,0.0,0.0,-3.9645,-3.9599,-3.9587,-3.9552,-3.9419,-3.8938,-3.7857,-3.736,-3.6902,-3.6354,-3.5278,-3.4528,-3.4382,-3.3761,-3.3349,-3.3349,-3.2788,-3.2761,-3.3323,-3.2788,-3.3093,-3.4358,-3.4455,-3.4823,-3.5492,-3.556,-3.56,-3.56,-3.56,-3.56,-3.5644,-3.6161,-3.6704,-3.7247,-3.7702,-3.8216,-3.8707,-3.8707,-3.8707,-3.8707,-3.8707,-3.8707,-3.8707,-3.8707,-3.8707,-3.8807,-3.9396,-3.9955,-4.0126,-3.8704,-3.8142,-3.7642,-3.5962,-3.55,-3.55,-3.55,-3.55,-3.55,-3.55,-3.55,-3.55,-3.55,-3.5514,-3.5508,-3.5507,-3.5556,-3.5635,-3.5703,-3.5838,-3.5921,-3.5996,-3.5996,-3.5996,-3.5996,-3.5996,-3.5996,-3.5996,-3.5996,-3.5996,-3.5996,-3.5996,-3.5996,-3.5996,-3.5996,-3.5996,-3.5996,-3.5996,-3.5996,-3.5996,-3.5996,-3.5996,-3.5996,-3.5996,-3.5996,-3.5996,-3.5996,-3.5996,-4.095,-4.0919,-4.0816,-4.0793,-4.0747,-4.0655,-4.0523,-4.0559,-4.0589,-4.0519,0.0,0.0,0.0,0.0,0.0,0.0,-4.011,-4.0082,-3.9912,-3.9891,-3.9512,-3.853,-3.8111,-3.763,-3.6923,-3.5766,-3.5057,-3.5057,-3.4137,-3.3582,-3.3582,-3.3339,-3.3313,-3.3582,-3.3339,-3.3633,-3.4576,-3.46,-3.4941,-3.56,-3.56,-3.56,-3.56,-3.56,-3.56,-3.5667,-3.6501,-3.6981,-3.7266,-3.805,-3.8515,-3.8707,-3.8707,-3.8707,-3.8707,-3.8707,-3.8707,-3.8707,-3.8707,-3.8707,-3.8807,-3.9396,-4.0014,-4.0189,-3.8507,-3.8007,-3.7642,-3.5962,-3.55,-3.55,-3.55,-3.55,-3.55,-3.55,-3.55,-3.55,-3.55,-3.55,-3.5635,-3.6115,-3.6215,-3.6412,-3.6983,-3.6436,-3.5908,-3.5944,-3.5974,-3.5996,-3.5996,-3.5996,-3.5996,-3.5996,-3.5996,-3.5996,-3.5996,-3.5996,-3.5996,-3.5996,-3.5996,-3.5996,-3.5996,-3.5996,-3.5996,-3.5996,-3.5996,-3.5996,-3.5996,-3.5996,-3.5996,-3.5996,-3.5996,-3.5996,-4.0886,-4.0816,-4.0736,-4.0776,-4.0747,-4.0701,-4.0575,-4.0629,-4.0682,-4.0575,-4.0552,0.0,0.0,0.0,-4.0554,-4.0584,0.0,-4.0504,-4.0315,-4.029,-3.9976,-3.9133,-3.865,-3.8164,-3.7596,-3.6544,-3.5904,-3.5904,-3.4941,-3.4374,-3.4374,-3.4046,-3.3962,-3.4137,-3.3962,-3.4186,-3.4871,-3.4871,-3.5121,-3.56,-3.56,-3.56,-3.56,-3.5761,-3.581,-3.5876,-3.6925,-3.7396,-3.7451,-3.8334,-3.8707,-3.8707,-3.8707,-3.8707,-3.8707,-3.8707,-3.8707,-3.8707,-3.8707,-3.8807,-3.9027,-3.9457,-4.0014,-4.0189,-3.8507,-3.8007,-3.7642,-3.5962,-3.55,-3.55,-3.55,-3.55,-3.55,-3.55,-3.55,-3.55,-3.55,-3.5673,-3.6,-3.6596,-3.6885,-3.728,-3.7957,-3.7202,-3.6526,-3.6579,-3.6412,-3.6307,-3.6348,-3.6152,-3.5996,-3.5996,-3.5996,-3.5996,-3.5996,-3.5996,-3.5996,-3.5996,-3.5996,-3.5996,-3.5996,-3.5996,-3.5996,-3.5996,-3.5996,-3.5996,-3.5996,-3.5996,-3.5996,-3.5996,-3.5996,-3.5996,-4.0709,-4.0747,-4.0788,-4.0724,-4.0747,-4.0784,-4.0707,-4.0747,-4.0779,-4.0701,-4.0692,-4.0692,-4.0692,-4.0692,-4.0699,-4.0773,-4.0789,0.0,0.0,-4.0781,-4.0473,-3.9667,-3.8878,-3.8398,-3.8368,-3.7613,-3.7135,-3.7135,-3.6643,-3.6312,-3.6312,-3.5193,-3.4871,-3.5515,-3.4918,-3.4894,-3.556,-3.5577,-3.5577,-3.56,-3.56,-3.56,-3.5622,-3.6139,-3.6374,-3.6437,-3.7433,-3.7876,-3.7929,-3.8465,-3.8707,-3.8707,-3.8707,-3.8707,-3.8707,-3.8707,-3.8707,-3.8707,-3.8707,-3.9073,-3.9576,-3.9599,-4.0014,-4.0189,-3.8507,-3.8007,-3.7642,-3.5962,-3.55,-3.55,-3.55,-3.55,-3.55,-3.55,-3.55,-3.55,-3.55,-3.6115,-3.6673,-3.6692,-3.7392,-3.7969,-3.7995,-3.8028,-3.8103,-3.828,-3.7595,-3.7105,-3.7246,-3.6523,-3.5996,-3.5996,-3.5996,-3.5996,-3.5996,-3.5996,-3.5996,-3.5996,-3.5996,-3.5996,-3.5996,-3.5996,-3.5996,-3.5996,-3.5996,-3.5996,-3.5996,-3.5996,-3.5996,-3.5996,-3.5996,-3.5996,-4.0667,-4.0642,-4.0617,-4.0686,-4.0718,-4.0721,-4.0709,-4.0752,-4.0789,-4.077,-4.0781,-4.0781,-4.0781,-4.0781,-4.0775,-4.0793,-4.0797,-4.0797,0.0,-4.0797,-4.0703,-4.043,-3.9923,-3.9488,-3.9214,-3.8456,-3.7985,-3.7985,-3.7343,-3.6941,-3.6941,-3.6533,-3.6264,-3.6139,-3.5912,-3.5715,-3.56,-3.56,-3.56,-3.56,-3.56,-3.56,-3.5622,-3.6161,-3.6395,-3.6457,-3.7452,-3.7893,-3.7946,-3.8481,-3.8707,-3.8707,-3.8707,-3.8707,-3.8707,-3.8707,-3.8707,-3.8707,-3.8707,-3.9105,-3.9599,-3.9599,-4.0014,-4.0285,-3.9188,-3.845,-3.7757,-3.6615,-3.5904,-3.55,-3.55,-3.55,-3.55,-3.55,-3.55,-3.5654,-3.6173,-3.65,-3.7038,-3.82,-3.8661,-3.9027,-3.9554,-3.9675,-3.9392,-3.8465,-3.812,-3.8003,-3.8144,-3.7402,-3.6855,-3.6855,-3.6348,-3.5996,-3.5996,-3.5996,-3.5996,-3.5996,-3.5996,-3.5996,-3.5996,-3.5996,-3.5996,-3.5996,-3.5996,-3.5996,-3.5996,-3.5996,-3.5996,-3.5996,-3.5996,-3.5996,-4.0603,-4.0566,-4.0527,-4.0603,-4.0655,-4.0697,-4.0697,-4.0785,-4.085,-4.0775,-4.0821,-4.085,-4.0775,-4.0824,-4.087,-4.087,-4.0914,-4.093,0.0,-4.093,-4.0803,-4.0442,-4.0285,-4.0106,-3.985,-3.9227,-3.8823,-3.8823,-3.8083,-3.7631,-3.7631,-3.736,-3.7057,-3.6704,-3.6684,-3.6522,-3.6165,-3.6165,-3.6165,-3.6165,-3.6165,-3.6165,-3.6186,-3.6706,-3.6943,-3.6981,-3.7825,-3.8183,-3.82,-3.8562,-3.8707,-3.8707,-3.8707,-3.8707,-3.8707,-3.8707,-3.8707,-3.8707,-3.8707,-3.9105,-3.9599,-3.9599,-4.0014,-4.0342,-3.9534,-3.8911,-3.8219,-3.7019,-3.6327,-3.5865,-3.5577,-3.5712,-3.5923,-3.5923,-3.6154,-3.6519,-3.7046,-3.7411,-3.7969,-3.9092,-3.9534,-3.99,-4.0419,-4.0496,-4.0195,-3.9291,-3.8978,-3.8875,-3.8976,-3.8237,-3.7712,-3.7754,-3.7225,-3.6755,-3.6484,-3.6465,-3.6328,-3.6016,-3.5996,-3.5996,-3.5996,-3.5996,-3.6152,-3.6465,-3.6152,-3.6152,-3.6465,-3.6152,-3.5996,-3.5996,-3.5996,-3.5996]},{"header":{"parameterUnit":"m.s-1","parameterCategory":1,"la1":30.6,"la2":29.2853,"lo1":-89.7004,"lo2":-87.6739,"dy":0.0162,"dx":0.0183,"nx":112,"ny":82,"refTime":"2023-05-05T00:00:00:Z","depth":0,"parameterNumber":3,"parameterNumberName":"V-component_of_WINDS"},"data":[0.0,0.0,0.0,0.0,0.0,0.0,0.0,0.0,0.0,0.0,0.0,0.0,0.0,0.0,0.0,0.0,0.0,0.0,0.0,0.0,0.0,0.0,0.0,0.0,0.0,0.0,0.0,0.0,0.0,0.0,0.0,0.0,0.0,0.0,0.0,0.0,0.0,0.0,0.0,0.0,0.0,0.0,0.0,0.0,0.0,0.0,0.0,0.0,0.0,0.0,0.0,0.0,0.0,0.0,0.0,0.0,0.0,0.0,0.0,0.0,0.0,0.0,0.0,0.0,0.0,0.0,0.0,0.0,0.0,0.0,0.0,0.0,0.0,0.0,0.0,0.0,0.0,0.0,0.0,0.0,0.0,0.0,0.0,0.0,0.0,0.0,0.0,0.0,0.0,0.0,-1.4088,-1.4088,-1.4088,-1.4088,-1.4088,-1.4088,-1.5026,-1.7172,0.0,0.0,0.0,0.0,0.0,0.0,0.0,0.0,0.0,0.0,0.0,0.0,0.0,0.0,0.0,0.0,0.0,0.0,0.0,0.0,0.0,0.0,0.0,0.0,0.0,0.0,0.0,0.0,0.0,0.0,0.0,0.0,0.0,0.0,0.0,0.0,0.0,0.0,0.0,0.0,0.0,0.0,0.0,0.0,0.0,0.0,0.0,0.0,0.0,0.0,0.0,0.0,0.0,0.0,0.0,0.0,0.0,0.0,0.0,0.0,0.0,0.0,0.0,0.0,0.0,0.0,0.0,0.0,0.0,0.0,0.0,0.0,0.0,0.0,0.0,0.0,0.0,0.0,0.0,0.0,0.0,0.0,0.0,0.0,0.0,0.0,0.0,0.0,0.0,0.0,0.0,0.0,0.0,0.0,0.0,0.0,0.0,0.0,0.0,0.0,0.0,0.0,0.0,0.0,-1.4088,-1.4088,-1.4088,-1.4088,-1.4088,-1.4088,-1.5026,-1.7172,0.0,0.0,0.0,0.0,0.0,0.0,0.0,0.0,0.0,0.0,0.0,0.0,0.0,0.0,0.0,0.0,0.0,0.0,0.0,0.0,0.0,0.0,0.0,0.0,0.0,0.0,0.0,0.0,0.0,0.0,0.0,0.0,0.0,0.0,0.0,0.0,0.0,0.0,0.0,0.0,0.0,0.0,0.0,0.0,0.0,0.0,0.0,0.0,0.0,0.0,0.0,0.0,0.0,0.0,0.0,0.0,0.0,0.0,0.0,0.0,0.0,0.0,0.0,0.0,0.0,0.0,0.0,0.0,0.0,0.0,0.0,0.0,0.0,0.0,0.0,0.0,0.0,0.0,0.0,0.0,0.0,0.0,0.0,0.0,0.0,0.0,0.0,0.0,0.0,0.0,0.0,0.0,0.0,0.0,0.0,0.0,0.0,0.0,0.0,0.0,0.0,0.0,0.0,-1.4088,-1.4088,-1.4088,-1.4088,-1.4088,-1.4088,-1.4088,-1.5026,-1.7172,-1.7302,0.0,0.0,0.0,0.0,0.0,0.0,0.0,0.0,0.0,0.0,0.0,0.0,0.0,0.0,0.0,0.0,0.0,0.0,0.0,0.0,0.0,0.0,0.0,0.0,0.0,0.0,0.0,0.0,0.0,0.0,0.0,0.0,0.0,0.0,0.0,0.0,0.0,0.0,0.0,0.0,0.0,0.0,0.0,0.0,0.0,0.0,0.0,0.0,0.0,0.0,0.0,0.0,0.0,0.0,0.0,0.0,0.0,0.0,0.0,0.0,0.0,0.0,0.0,0.0,0.0,0.0,0.0,0.0,0.0,0.0,0.0,0.0,0.0,0.0,0.0,0.0,0.0,0.0,0.0,0.0,0.0,0.0,0.0,0.0,0.0,0.0,0.0,0.0,0.0,0.0,0.0,0.0,0.0,0.0,0.0,0.0,0.0,0.0,0.0,0.0,0.0,0.0,-1.4088,-1.4088,-1.4088,-1.4088,-1.4088,-1.4088,-1.4088,-1.5026,-1.7172,-1.7302,0.0,0.0,0.0,0.0,0.0,0.0,0.0,0.0,0.0,0.0,0.0,0.0,0.0,0.0,0.0,0.0,0.0,0.0,0.0,0.0,0.0,0.0,0.0,0.0,0.0,0.0,0.0,0.0,0.0,0.0,0.0,0.0,0.0,0.0,0.0,0.0,0.0,0.0,0.0,0.0,0.0,0.0,0.0,0.0,0.0,0.0,0.0,0.0,0.0,0.0,0.0,0.0,0.0,0.0,0.0,0.0,0.0,0.0,0.0,0.0,0.0,0.0,0.0,0.0,0.0,0.0,0.0,0.0,0.0,0.0,0.0,0.0,0.0,0.0,0.0,0.0,0.0,0.0,0.0,0.0,0.0,0.0,0.0,0.0,0.0,0.0,0.0,0.0,0.0,0.0,0.0,0.0,0.0,0.0,0.0,0.0,0.0,0.0,0.0,0.0,0.0,0.0,-1.4088,-1.4088,-1.4088,-1.4088,-1.4088,-1.4088,-1.4088,-1.5026,-1.7172,-1.7302,0.0,0.0,0.0,0.0,0.0,0.0,0.0,0.0,0.0,0.0,0.0,0.0,0.0,0.0,0.0,0.0,0.0,0.0,0.0,0.0,0.0,0.0,0.0,0.0,0.0,0.0,0.0,0.0,0.0,0.0,0.0,0.0,0.0,0.0,0.0,0.0,0.0,0.0,0.0,0.0,0.0,0.0,0.0,0.0,0.0,0.0,0.0,0.0,0.0,0.0,0.0,0.0,0.0,0.0,0.0,0.0,0.0,0.0,0.0,0.0,0.0,0.0,0.0,0.0,0.0,0.0,0.0,0.0,0.0,0.0,0.0,0.0,0.0,0.0,0.0,0.0,0.0,0.0,0.0,0.0,0.0,0.0,0.0,0.0,0.0,0.0,0.0,0.0,0.0,0.0,0.0,0.0,0.0,0.0,0.0,0.0,0.0,0.0,0.0,0.0,0.0,0.0,-1.4088,-1.4088,-1.4088,-1.4088,-1.4088,-1.4088,-1.4088,-1.5026,-1.7172,0.0,0.0,0.0,0.0,0.0,0.0,0.0,0.0,0.0,0.0,0.0,0.0,0.0,0.0,0.0,0.0,0.0,0.0,0.0,0.0,0.0,0.0,0.0,0.0,0.0,0.0,0.0,0.0,0.0,0.0,0.0,0.0,0.0,0.0,0.0,0.0,0.0,0.0,0.0,0.0,0.0,0.0,0.0,0.0,0.0,0.0,0.0,0.0,0.0,0.0,0.0,0.0,0.0,0.0,0.0,0.0,0.0,0.0,0.0,0.0,0.0,0.0,0.0,0.0,0.0,0.0,0.0,0.0,0.0,0.0,0.0,0.0,0.0,0.0,0.0,0.0,0.0,0.0,0.0,0.0,0.0,0.0,0.0,0.0,0.0,0.0,0.0,0.0,0.0,0.0,0.0,0.0,0.0,0.0,0.0,0.0,0.0,0.0,0.0,0.0,0.0,0.0,-1.4088,-1.4088,-1.4088,-1.4088,-1.4088,-1.4088,-1.4088,-1.4412,-1.5387,-1.7172,0.0,0.0,0.0,0.0,0.0,0.0,0.0,0.0,0.0,0.0,0.0,0.0,0.0,0.0,0.0,0.0,0.0,0.0,0.0,0.0,0.0,0.0,0.0,0.0,0.0,0.0,0.0,0.0,0.0,0.0,0.0,0.0,0.0,0.0,0.0,0.0,0.0,0.0,0.0,0.0,0.0,0.0,0.0,0.0,0.0,0.0,0.0,0.0,0.0,0.0,0.0,0.0,0.0,0.0,0.0,0.0,0.0,0.0,0.0,0.0,0.0,0.0,0.0,0.0,0.0,0.0,0.0,0.0,0.0,0.0,0.0,0.0,0.0,0.0,0.0,0.0,0.0,0.0,0.0,0.0,0.0,0.0,0.0,0.0,0.0,0.0,0.0,0.0,0.0,0.0,0.0,0.0,0.0,0.0,0.0,0.0,0.0,0.0,0.0,0.0,0.0,0.0,-1.4088,-1.4088,-1.4088,-1.4088,-1.4088,-1.4088,-1.4088,-1.5095,-1.615,0.0,0.0,0.0,0.0,0.0,0.0,0.0,0.0,0.0,0.0,0.0,0.0,0.0,0.0,0.0,0.0,0.0,0.0,0.0,0.0,0.0,0.0,0.0,0.0,0.0,0.0,0.0,0.0,0.0,0.0,0.0,0.0,0.0,0.0,0.0,0.0,0.0,0.0,0.0,0.0,0.0,0.0,0.0,0.0,0.0,0.0,0.0,0.0,0.0,0.0,0.0,0.0,0.0,0.0,0.0,0.0,0.0,0.0,0.0,0.0,0.0,0.0,0.0,0.0,0.0,0.0,0.0,0.0,0.0,0.0,0.0,0.0,0.0,0.0,0.0,0.0,0.0,0.0,0.0,0.0,0.0,0.0,0.0,0.0,0.0,0.0,0.0,0.0,0.0,0.0,0.0,0.0,0.0,0.0,0.0,0.0,0.0,0.0,0.0,0.0,0.0,0.0,0.0,-1.4088,-1.4088,-1.4088,-1.4088,-1.4088,-1.4088,-1.4088,-1.5095,-1.615,-1.7212,0.0,0.0,0.0,0.0,0.0,0.0,0.0,0.0,0.0,0.0,0.0,0.0,0.0,0.0,0.0,0.0,0.0,0.0,0.0,0.0,0.0,0.0,0.0,0.0,0.0,0.0,0.0,0.0,0.0,0.0,0.0,0.0,0.0,0.0,0.0,0.0,0.0,0.0,0.0,0.0,0.0,0.0,0.0,0.0,0.0,0.0,0.0,0.0,0.0,0.0,0.0,0.0,0.0,0.0,0.0,0.0,0.0,0.0,0.0,0.0,0.0,0.0,0.0,0.0,0.0,0.0,0.0,0.0,0.0,0.0,0.0,0.0,0.0,0.0,0.0,0.0,0.0,0.0,0.0,0.0,0.0,0.0,0.0,0.0,0.0,0.0,0.0,0.0,0.0,0.0,0.0,0.0,0.0,0.0,0.0,0.0,0.0,0.0,0.0,0.0,0.0,0.0,-1.4088,-1.4088,-1.4088,-1.4088,-1.4088,-1.4088,-1.4088,-1.547,-1.6601,-1.7261,0.0,0.0,0.0,0.0,0.0,0.0,0.0,0.0,0.0,0.0,0.0,0.0,0.0,0.0,0.0,0.0,0.0,0.0,0.0,0.0,0.0,0.0,0.0,0.0,0.0,0.0,0.0,0.0,0.0,0.0,0.0,0.0,0.0,0.0,0.0,0.0,0.0,0.0,0.0,0.0,0.0,0.0,0.0,0.0,0.0,0.0,0.0,0.0,0.0,0.0,0.0,0.0,0.0,0.0,0.0,0.0,0.0,0.0,0.0,0.0,0.0,0.0,0.0,0.0,0.0,0.0,0.0,0.0,0.0,0.0,0.0,0.0,0.0,0.0,0.0,0.0,0.0,0.0,0.0,0.0,0.0,0.0,0.0,0.0,0.0,0.0,0.0,0.0,0.0,0.0,0.0,0.0,0.0,0.0,0.0,0.0,0.0,0.0,0.0,0.0,0.0,0.0,-1.4088,-1.4088,-1.4088,-1.4088,-1.4088,-1.4088,-1.4088,-1.6083,-1.7302,-1.7302,0.0,0.0,0.0,0.0,0.0,0.0,0.0,0.0,0.0,0.0,0.0,0.0,0.0,0.0,0.0,0.0,0.0,0.0,0.0,0.0,0.0,0.0,0.0,0.0,0.0,0.0,0.0,0.0,0.0,0.0,0.0,0.0,0.0,0.0,0.0,0.0,0.0,0.0,0.0,0.0,0.0,0.0,0.0,0.0,0.0,0.0,0.0,0.0,0.0,0.0,0.0,0.0,0.0,0.0,0.0,0.0,0.0,0.0,0.0,0.0,-0.7095,-0.7095,0.0,0.0,0.0,0.0,0.0,0.0,0.0,0.0,0.0,0.0,0.0,0.0,0.0,0.0,0.0,0.0,0.0,0.0,0.0,0.0,0.0,0.0,0.0,0.0,0.0,0.0,0.0,0.0,0.0,0.0,0.0,0.0,0.0,0.0,0.0,0.0,0.0,0.0,0.0,0.0,-1.4088,-1.4088,-1.4088,-1.4088,-1.4088,-1.4088,-1.4088,-1.6083,-1.7302,-1.7302,-1.9392,0.0,0.0,0.0,0.0,0.0,0.0,0.0,0.0,0.0,0.0,0.0,0.0,0.0,0.0,0.0,0.0,0.0,0.0,0.0,0.0,0.0,0.0,0.0,0.0,0.0,0.0,0.0,0.0,0.0,0.0,0.0,0.0,0.0,0.0,0.0,0.0,0.0,0.0,0.0,0.0,0.0,0.0,0.0,0.0,0.0,0.0,0.0,0.0,0.0,0.0,0.0,0.0,0.0,0.0,0.0,0.0,0.0,0.0,0.0,-0.7095,-0.7095,0.0,0.0,0.0,0.0,0.0,0.0,0.0,0.0,0.0,0.0,0.0,0.0,0.0,0.0,0.0,0.0,0.0,0.0,0.0,0.0,0.0,0.0,0.0,0.0,0.0,0.0,0.0,0.0,0.0,0.0,0.0,0.0,0.0,0.0,0.0,0.0,0.0,0.0,0.0,0.0,-1.4088,-1.4088,-1.4088,-1.4088,-1.4088,-1.4292,-1.4817,-1.6363,-1.7536,-1.8069,-1.9678,0.0,0.0,0.0,0.0,0.0,0.0,0.0,0.0,0.0,0.0,0.0,0.0,0.0,0.0,0.0,0.0,0.0,0.0,0.0,0.0,0.0,0.0,0.0,0.0,0.0,0.0,0.0,0.0,0.0,0.0,0.0,0.0,0.0,0.0,0.0,0.0,0.0,0.0,0.0,0.0,0.0,0.0,0.0,0.0,0.0,0.0,0.0,0.0,0.0,0.0,0.0,0.0,0.0,-0.509,-0.5669,-0.6782,-0.6782,-0.6918,-0.7095,-0.7095,-0.7095,-0.7095,-0.7095,0.0,0.0,0.0,0.0,0.0,0.0,0.0,0.0,0.0,0.0,0.0,0.0,0.0,0.0,0.0,0.0,0.0,0.0,0.0,0.0,0.0,0.0,-1.4088,-1.4088,-1.4088,-1.4088,-1.4088,0.0,0.0,0.0,0.0,0.0,0.0,0.0,0.0,0.0,0.0,0.0,-1.4088,-1.4088,-1.4088,-1.4088,-1.4088,-1.4454,-1.5338,-1.656,-1.7698,-1.8638,-1.9883,-2.0605,0.0,0.0,0.0,0.0,0.0,0.0,0.0,0.0,0.0,0.0,0.0,0.0,0.0,0.0,0.0,0.0,0.0,0.0,0.0,0.0,0.0,0.0,0.0,0.0,0.0,0.0,0.0,0.0,0.0,0.0,0.0,0.0,0.0,0.0,0.0,0.0,0.0,0.0,0.0,0.0,0.0,0.0,0.0,0.0,0.0,0.0,0.0,-0.0807,-0.2013,-0.2057,-0.2637,-0.3838,-0.3838,-0.4463,-0.5625,-0.5625,-0.616,-0.7095,-0.7095,0.0,-0.7095,-0.7095,0.0,0.0,0.0,0.0,0.0,0.0,0.0,0.0,0.0,0.0,0.0,0.0,0.0,0.0,0.0,0.0,0.0,0.0,0.0,0.0,0.0,0.0,-1.4088,-1.4088,-1.4088,-1.4088,-1.4088,-1.4088,-1.4088,-1.4088,-1.4088,-1.4088,0.0,0.0,0.0,0.0,0.0,0.0,-1.4088,-1.4088,-1.4088,-1.4088,-1.4088,-1.4166,-1.4292,-1.6165,-1.7374,-1.7496,-1.9471,-2.0605,-2.0605,-2.0605,0.0,0.0,0.0,0.0,0.0,0.0,0.0,0.0,0.0,0.0,0.0,0.0,0.0,0.0,0.0,0.0,0.0,0.0,0.0,0.0,0.0,0.0,0.0,0.0,0.0,0.0,0.0,0.0,0.0,0.1612,0.2013,0.2013,0.2503,0.2592,0.0,0.0,0.0,0.0,0.0,0.0,0.0,0.0,0.0,0.0,0.0,-0.0269,-0.0762,-0.0807,-0.1389,-0.2592,-0.2592,-0.3217,-0.4419,-0.509,-0.5669,-0.616,-0.6827,-0.7095,-0.7095,-0.7095,-0.7095,-0.7095,0.0,0.0,0.0,0.0,-1.1338,-1.2456,-1.3688,-1.4088,-1.4088,-1.4088,0.0,0.0,0.0,0.0,0.0,0.0,0.0,-1.4088,-1.4088,-1.4088,-1.4088,-1.4088,-1.4088,-1.4088,-1.4088,-1.4088,-1.4088,-1.4088,-1.4088,-1.4088,-1.4088,-1.4088,0.0,0.0,0.0,-1.4088,-1.4088,-1.4088,-1.4088,-1.4088,-1.4088,-1.458,-1.5801,-1.6772,-1.7819,-1.9067,-2.0079,-2.0605,-2.0605,-2.0605,-2.0605,0.0,0.0,0.0,0.0,0.0,0.0,0.0,0.0,0.0,0.0,0.0,0.0,0.0,0.0,0.0,0.0,0.0,0.0,0.0,0.0,0.0,0.0,0.0,0.0,0.0,0.0,0.0,0.0,0.3037,0.3614,0.3614,0.3881,0.3927,0.0,0.0,0.0,0.0,0.0,0.0,0.0986,0.0628,0.0449,0.0449,0.018,0.0,0.0,0.0,-0.0449,-0.1344,-0.1344,-0.1969,-0.317,-0.4374,-0.509,-0.5447,-0.6605,-0.7095,-0.7095,-0.7095,-0.7095,-0.7095,-0.7095,-0.7665,-0.8584,-0.9749,-1.0697,-1.1643,-1.3124,-1.3646,-1.3688,-1.3997,-1.4088,-1.4088,-1.4088,0.0,0.0,0.0,0.0,-1.4088,-1.4088,-1.4088,-1.4088,-1.4088,-1.4088,-1.4088,-1.4088,-1.4088,-1.4088,-1.4088,-1.4088,-1.4088,-1.4088,-1.4088,0.0,-1.4088,-1.4088,-1.4088,-1.4088,-1.4088,-1.4088,-1.4088,-1.4088,-1.4741,-1.637,-1.6731,-1.7698,-1.9638,-2.004,-2.0323,-2.0605,-2.0605,-2.0605,-2.0605,0.0,0.0,0.0,0.0,0.0,0.0,0.0,0.0,0.0,0.0,0.0,0.0,0.0,0.0,0.0,0.0,0.0,0.0,0.0,0.0,0.0,0.0,0.0,0.0,0.0,0.0,0.0,0.0,0.0,0.3614,0.4596,0.0,0.0,0.0,0.0,0.3614,0.3525,0.3481,0.3436,0.2325,0.1701,0.1701,0.0583,0.0,0.0,0.0,-0.0045,-0.009,-0.009,-0.0718,-0.1924,-0.3126,-0.433,-0.5447,-0.6605,-0.7095,-0.7095,-0.7095,-0.7095,-0.7095,-0.7095,-0.7139,-0.7316,-0.854,-0.9017,-0.941,-1.1601,-1.237,-1.2589,-1.373,-1.4088,-1.4088,-1.4088,-1.4088,0.0,0.0,-1.4088,-1.4088,-1.4088,-1.4088,-1.4088,-1.4088,-1.4088,-1.4088,-1.4088,-1.4088,-1.4088,-1.4088,-1.4088,-1.4088,-1.4088,0.0,-1.4088,-1.4088,-1.4088,-1.4088,-1.4088,-1.4088,-1.4088,-1.4088,-1.4088,-1.413,-1.425,-1.5179,-1.6273,-1.7374,-1.847,-1.952,-2.0566,-2.0605,-2.0605,-2.0605,-2.0605,0.0,0.0,0.0,0.0,0.0,0.0,0.0,0.0,0.0,0.0,0.0,0.0,0.0,0.0,0.0,0.0,0.0,0.0,0.0,0.0,0.0,0.0,0.0,0.0,0.0,0.0,0.0,0.0,0.5844,0.6248,0.0,0.5888,0.6248,0.6024,0.4865,0.4776,0.4419,0.3659,0.317,0.2948,0.2948,0.179,0.1165,0.1165,0.0404,0.0,0.0,0.0,-0.0225,-0.0673,-0.1879,-0.3083,-0.433,-0.5489,-0.6428,-0.7095,-0.7095,-0.7095,-0.7095,-0.7095,-0.7095,-0.7228,-0.8452,-0.889,-0.9104,-1.0654,-1.1681,-1.2504,-1.3688,-1.4088,-1.4088,-1.4088,-1.4088,-1.4088,-1.4088,-1.4088,-1.4088,-1.4088,-1.4088,-1.4088,-1.4088,-1.4088,-1.4088,-1.4088,-1.4088,-1.4088,-1.4088,-1.4088,-1.4088,-1.4088,-1.4088,-1.4088,-1.4088,-1.4088,-1.4088,-1.4088,-1.4088,-1.4088,-1.4088,-1.4088,-1.4657,-1.6041,-1.6527,-1.7488,-1.9313,-1.9795,-2.0206,-2.0566,-2.0605,-2.0605,-2.0605,-2.0605,-2.0605,0.0,0.0,0.0,0.0,0.0,0.0,0.0,0.0,0.0,0.0,0.0,0.0,0.0,0.0,0.0,0.0,0.0,0.0,0.0,0.0,0.0,0.0,0.0,0.0,0.0,0.6605,0.7095,0.7095,0.7095,0.7095,0.7095,0.7095,0.6786,0.6027,0.5983,0.5622,0.4816,0.4417,0.4196,0.4196,0.3037,0.2191,0.179,0.0986,0.0404,0.0,0.0,0.0,-0.0045,-0.1254,-0.2236,-0.3081,-0.4688,-0.5849,-0.6561,-0.6962,-0.7095,-0.7095,-0.7095,-0.7095,-0.7183,-0.8017,-0.854,-0.9109,-1.0654,-1.1943,-1.3033,-1.3822,-1.4088,-1.4088,-1.4088,-1.4088,-1.4088,-1.4088,-1.4088,-1.4088,-1.4088,-1.4088,-1.4088,-1.4088,-1.4088,-1.4088,-1.4088,-1.4088,-1.4088,-1.4088,-1.4088,-1.4088,-1.4088,-1.4088,-1.4088,-1.4088,-1.4088,-1.4088,-1.4088,-1.4088,-1.4088,-1.4088,-1.4088,-1.4699,-1.6083,-1.6206,-1.7131,-1.9353,-1.9471,-1.9835,-2.0566,-2.0605,-2.0605,-2.0605,-2.0605,-2.0605,-2.0605,0.0,0.0,0.0,0.0,0.0,0.0,0.0,0.0,0.0,0.0,0.0,0.0,0.0,0.0,0.0,0.0,0.0,0.0,0.0,0.0,0.0,0.0,0.0,0.7095,0.7095,0.7095,0.7095,0.7095,0.7095,0.7095,0.7095,0.7095,0.7095,0.7095,0.7098,0.7102,0.6077,0.5455,0.5458,0.4293,0.3087,0.1928,0.1882,0.1256,0.0045,0.0045,0.0045,-0.0045,-0.121,-0.1745,-0.1924,-0.4287,-0.5314,-0.5492,-0.6605,-0.7051,-0.7095,-0.7095,-0.7095,-0.7095,-0.7095,-0.7841,-0.9148,-1.1466,-1.3033,-1.3997,-1.4088,-1.4088,-1.4088,-1.4088,-1.4088,-1.4088,-1.4088,-1.4088,-1.4088,-1.4088,-1.4088,-1.4088,-1.4088,-1.4088,-1.4088,-1.4088,-1.4088,-1.4088,-1.4088,-1.4088,-1.4088,-1.4088,-1.4088,-1.4088,-1.4088,-1.4088,0.0,-1.4088,-1.4088,-1.4088,-1.4088,-1.4088,-1.413,-1.4173,-1.4208,-1.5103,-1.7253,-1.7415,-1.8341,-2.0518,-2.0605,-2.0605,-2.0605,-2.0605,-2.0605,-2.0605,0.0,0.0,0.0,0.0,0.0,0.0,0.0,0.0,0.0,0.0,0.0,0.0,0.0,0.0,0.0,0.0,0.0,0.0,0.0,0.0,0.0,0.8925,0.8105,0.7228,0.7095,0.7095,0.7095,0.7095,0.7095,0.7095,0.7095,0.7095,0.7095,0.7095,0.7146,0.7302,0.7034,0.6901,0.7003,0.5833,0.5037,0.4712,0.3726,0.2653,0.1466,0.1354,0.0852,0.0,-0.0359,-0.0986,-0.1835,-0.2504,-0.3796,-0.5403,-0.5758,-0.634,-0.7095,-0.7095,-0.7095,-0.7095,-0.7095,-0.7316,-0.7925,-1.026,-1.13,-1.1826,-1.3561,-1.4088,-1.4088,-1.4088,-1.4088,-1.4088,-1.4088,-1.4088,-1.4088,-1.4088,-1.4088,-1.4088,-1.4088,-1.4088,-1.4088,-1.4088,-1.4088,-1.4088,-1.4088,-1.4088,-1.4088,-1.4088,-1.4088,-1.4088,-1.4088,-1.4088,-1.4088,-1.4088,-1.4088,-1.4088,-1.4088,-1.4088,-1.4741,-1.6281,-1.6404,-1.7374,-1.955,-1.9678,-1.9962,-2.0566,-2.0605,-2.0605,-2.0605,-2.0605,-2.0605,0.0,0.0,0.0,0.0,0.0,0.0,0.0,0.0,0.0,0.0,0.0,0.0,0.0,0.0,0.0,0.0,0.0,0.0,0.0,0.0,0.0,0.0,1.0053,0.9357,0.8663,0.8141,0.7841,0.7841,0.7841,0.7841,0.7841,0.7841,0.7694,0.7276,0.7238,0.7305,0.7458,0.7465,0.7509,0.7597,0.6929,0.6308,0.5784,0.4977,0.3687,0.1985,0.1854,0.1165,0.0,0.0,-0.0404,-0.1076,-0.1567,-0.2904,-0.4688,-0.5179,-0.6071,-0.7095,0.0,0.0,0.0,0.0,-0.7841,-0.8185,-1.0519,-1.1295,-1.1601,-1.3476,-1.4088,-1.4088,-1.4088,-1.4088,-1.4088,-1.4088,-1.4088,-1.4088,-1.4088,-1.4088,-1.4088,-1.4088,-1.4088,-1.4088,-1.4088,-1.4088,-1.4088,-1.4088,-1.4088,0.0,-1.4088,-1.4088,-1.4088,-1.4088,-1.4088,-1.4088,-1.4088,-1.4088,-1.4088,-1.4088,-1.4088,-1.4615,-1.5835,-1.5959,0.0,0.0,0.0,-1.9638,-2.0566,-2.0605,0.0,0.0,0.0,-2.0605,-2.0605,-2.0605,0.0,0.0,-2.0605,-2.0605,0.0,0.0,0.0,0.0,0.0,0.0,0.0,0.0,0.0,0.0,0.0,0.0,0.0,0.0,0.0,0.0,1.0869,1.0778,1.0778,0.9923,0.9235,0.9104,0.9104,0.9113,0.9135,0.9139,0.8734,0.7699,0.7622,0.7646,0.7617,0.7624,0.0,0.0,0.0,0.7117,0.606,0.589,0.4671,0.2407,0.2126,0.1389,0.018,0.0045,0.0,-0.0045,-0.1121,-0.2281,-0.3482,-0.4688,-0.5935,-0.7095,-0.7095,-0.7095,-0.7228,-0.8321,-0.8715,-0.9017,-1.1166,0.0,0.0,-1.3512,-1.3997,-1.4088,-1.4088,-1.4088,-1.4088,-1.4088,-1.4088,-1.4088,-1.4088,-1.4088,-1.4088,-1.4088,-1.4088,-1.4088,-1.4088,-1.4088,-1.4088,-1.4088,-1.4088,-1.4088,-1.4088,-1.4088,-1.4088,-1.4088,-1.4088,-1.4088,-1.4088,-1.4088,-1.4088,-1.4088,-1.4088,0.0,-1.4292,-1.4258,-1.5108,-1.7172,-1.7415,-1.8381,-2.0323,-2.0527,-2.0605,-2.0605,-2.0605,-2.0605,-2.0605,-2.0605,-2.0605,-2.0605,-2.0605,-2.0605,0.0,0.0,0.0,0.0,0.0,0.0,0.0,0.0,0.0,0.0,0.0,0.0,0.0,0.0,0.0,1.3124,1.2601,1.1986,1.1986,1.1766,1.1295,1.0394,1.0269,1.0377,1.0642,1.0657,1.0258,0.9179,0.9099,0.8718,0.7811,0.777,0.7828,0.7901,0.7904,0.7806,0.7556,0.7352,0.6511,0.5043,0.3817,0.0,0.1433,0.0449,0.0,0.0,-0.0225,-0.1031,-0.2236,-0.3438,-0.5174,-0.7095,-0.7095,-0.7095,-0.7139,-0.736,-0.7445,-0.7665,-0.9056,-1.0183,-1.1128,-1.2291,-1.3294,-1.4088,-1.4088,-1.4088,0.0,-1.4088,-1.4088,-1.4088,-1.4088,-1.4088,-1.4088,-1.4088,-1.4088,-1.4088,-1.4088,-1.4088,-1.4088,-1.4088,-1.4088,-1.4088,-1.4088,-1.4088,-1.4088,-1.4088,-1.4088,-1.4088,-1.4088,-1.4088,-1.4088,-1.4088,-1.4088,-1.4447,-1.5338,-1.5186,-1.5711,-1.7204,-1.8149,-1.8877,-1.9274,-2.0118,-2.0605,-2.0605,-2.0605,-2.0605,-2.0605,-2.0605,-2.0605,-2.0605,-2.0605,-2.0605,0.0,0.0,0.0,0.0,0.0,0.0,0.0,0.0,0.0,0.0,0.0,1.2693,1.387,0.0,1.2735,1.3913,1.3597,1.3203,1.3203,1.3203,1.2772,1.1595,1.1619,1.1783,1.1949,1.2076,1.1703,1.0674,0.999,0.9418,0.8931,0.8262,0.7911,0.7988,0.7988,0.7955,0.7926,0.7709,0.6945,0.5699,0.4258,0.2948,0.1745,0.0539,0.0,0.0,0.0,-0.0673,-0.1924,-0.3751,-0.5531,-0.7095,-0.7095,-0.7095,-0.7095,-0.7095,-0.7095,-0.7272,-0.8496,-0.9279,-0.9923,-1.108,-1.1863,-1.2431,-1.3033,-1.3203,-1.3336,-1.3913,-1.4088,-1.4088,-1.4088,-1.4088,-1.4088,-1.4088,-1.4088,-1.4088,-1.4088,-1.4088,-1.4088,-1.4088,-1.4088,-1.4088,-1.4088,-1.4088,-1.4088,-1.4088,-1.4088,-1.4088,-1.4088,-1.3955,-1.3868,-1.3868,-1.3734,-1.3886,-1.4393,-1.483,-1.5544,-1.6686,-1.7812,-1.877,-1.9437,-1.9956,-2.038,-2.0595,-2.0605,-2.0605,-2.0605,-2.0605,-2.0605,-2.0605,-2.0605,-2.0605,0.0,0.0,0.0,0.0,0.0,0.0,0.0,1.5019,1.4208,1.4664,1.437,1.4208,1.4657,1.4531,1.4489,1.4699,1.4538,1.4412,1.4412,1.4298,1.3815,1.2839,1.299,1.3159,1.3306,1.348,1.3211,1.2178,1.1196,1.0504,1.0382,0.9361,0.8627,0.8382,0.8382,0.821,0.7814,0.7672,0.7053,0.5942,0.4373,0.3081,0.2102,0.0673,0.0,0.0,0.0,-0.0673,-0.1969,-0.4154,-0.5714,-0.6786,-0.7007,-0.7095,-0.7095,-0.7095,-0.7095,-0.7228,-0.8233,-0.8846,-0.9366,-1.0053,-1.0567,-1.108,-1.1766,-1.1986,-1.2157,-1.3167,-1.3561,-1.3688,-1.3476,-1.3737,-1.4039,-1.3822,-1.3913,-1.4088,-1.4088,-1.4088,-1.4088,-1.4088,-1.4088,-1.4088,-1.4088,-1.4088,-1.4088,-1.4088,-1.4041,-1.4001,-1.4001,-1.37,-1.352,-1.352,-1.3313,-1.3186,-1.3126,-1.397,-1.4803,-1.5485,-1.6807,-1.8061,-1.9146,-1.9551,-2.0,-2.0468,-2.0478,-2.0517,-2.0605,-2.0605,-2.0605,-2.0605,-2.0605,-2.0605,1.2509,1.4077,1.5389,1.6618,1.5504,1.4615,0.0,1.5553,1.4664,1.6568,1.5436,1.4699,1.6609,1.6157,1.5827,1.6772,1.6157,1.5538,1.5538,1.4922,1.4426,1.4289,1.4272,1.454,1.5061,1.514,1.4748,1.3718,1.3544,1.293,1.175,1.1556,1.0974,0.9805,0.9756,0.9131,0.7814,0.7672,0.7476,0.7184,0.4732,0.3525,0.3303,0.1031,0.0,0.0,0.0,-0.0673,-0.1924,-0.326,-0.4508,-0.5672,-0.6694,-0.7095,-0.7095,-0.7095,-0.7095,-0.7139,-0.7272,-0.8663,-1.0265,-0.9366,-1.0481,-1.1938,-1.1042,-1.0778,-1.0826,-1.0956,-1.1729,-1.2285,-1.1257,-1.2559,-1.3822,-1.2766,-1.3336,-1.4088,-1.4088,-1.4088,-1.4088,-1.4088,-1.4088,-1.4088,-1.4088,-1.4088,-1.4088,-1.4088,-1.3861,-1.3653,-1.3653,-1.344,-1.326,-1.326,-1.3227,-1.31,-1.2857,-1.3163,-1.3321,-1.3182,-1.5186,-1.6472,-1.6628,-1.8397,-1.9561,-1.998,-1.999,-2.0176,-2.0605,-2.0605,-2.0605,-2.0605,-2.0605,-2.0605,1.4952,1.6026,1.6887,1.802,1.7139,1.637,1.7948,1.709,1.6206,1.7139,1.6609,1.6247,1.7139,1.6927,1.6764,1.7212,1.6927,1.6713,1.7002,1.6741,1.6682,1.7115,1.65,1.5908,1.5463,1.5545,1.5456,1.5038,1.4316,1.368,1.3102,1.2334,1.1312,1.0047,0.9998,0.9231,0.7689,0.7631,0.7478,0.7189,0.5468,0.4283,0.3525,0.1835,0.0673,0.0,0.0,-0.1076,-0.2903,-0.3392,-0.4683,-0.6428,-0.6918,-0.7095,-0.7095,-0.7095,-0.7095,-0.7095,-0.7095,-0.8185,-0.9536,-0.9061,-1.0009,-1.1338,-1.1509,-1.1595,-1.1729,-1.2431,-1.2997,-1.3252,-1.2778,-1.3343,-1.3955,-1.347,-1.373,-1.4088,-1.4088,-1.4088,-1.4088,-1.4088,-1.4088,-1.4088,-1.4088,-1.3941,-1.3828,-1.3828,-1.3686,-1.354,-1.3373,-1.3126,-1.2872,-1.2705,-1.2685,-1.2632,-1.2536,-1.2605,-1.2845,-1.3305,-1.4215,-1.5368,-1.6737,-1.7615,-1.8548,-1.9541,-1.9785,-2.0,-2.0185,-2.0478,-2.0605,-2.0605,-2.0605,-2.0605,1.76,1.8228,1.8726,1.9304,1.8572,1.8035,1.9195,1.835,1.7464,1.806,1.7738,1.7496,1.8101,1.798,1.7868,1.8141,1.8066,1.8065,1.8378,1.8347,1.8503,1.9035,1.8364,1.7348,1.6153,1.5886,1.5784,1.5784,1.4949,1.4411,1.4411,1.3494,1.2382,1.1116,1.0675,0.9721,0.8153,0.774,0.7404,0.7095,0.5938,0.4776,0.357,0.2013,0.0807,0.0,0.0,-0.0986,-0.2681,-0.3303,-0.4594,-0.6201,-0.6827,-0.7095,-0.7095,-0.7095,-0.7095,-0.7095,-0.7095,-0.7885,-0.8846,-0.8496,-0.9187,-1.0221,-1.0735,-1.1117,-1.1558,-1.2431,-1.3124,-1.3512,-1.3215,-1.3603,-1.3997,-1.3688,-1.3864,-1.4088,-1.4088,-1.4088,-1.4088,-1.4088,-1.4088,-1.4062,-1.3981,-1.3746,-1.3547,-1.338,-1.3394,-1.332,-1.3113,-1.2851,-1.2583,-1.2325,-1.2305,-1.2305,-1.2305,-1.2305,-1.2703,-1.3637,-1.3954,-1.5,-1.6964,-1.7267,-1.7934,-1.9065,-1.9404,-1.9678,-1.9912,-2.0234,-2.0488,-2.0605,-2.0605,-2.0605,2.0465,2.1022,2.1563,2.076,1.9642,1.9067,2.0294,1.8868,1.79,2.0079,1.8789,1.794,2.0118,1.9638,1.9274,2.0323,1.9965,1.9525,1.9534,1.9256,1.9068,1.9093,1.931,1.8977,1.7762,1.652,1.5784,1.5784,1.5778,1.573,1.573,1.5683,1.5099,1.3824,1.2395,1.0942,0.9473,0.8081,0.7299,0.7095,0.5938,0.4776,0.3525,0.1121,0.0045,0.0,0.0,-0.0045,-0.0269,-0.2637,-0.3659,-0.3926,-0.6201,-0.7095,-0.7095,-0.7095,-0.7095,-0.7095,-0.7095,-0.7885,-0.8715,-0.7533,-0.7973,-0.8759,-0.7621,-0.8057,-0.9021,-0.9065,-1.0654,-1.2114,-1.0999,-1.2388,-1.3779,-1.2632,-1.3252,-1.4088,-1.4088,-1.4088,-1.4088,-1.4088,-1.4088,-1.3995,-1.3666,-1.3613,-1.3407,-1.2898,-1.2811,-1.2811,-1.2797,-1.2536,-1.2311,-1.2305,-1.2305,-1.2305,-1.2305,-1.2305,-1.2703,-1.3637,-1.4629,-1.5587,-1.6585,-1.7486,-1.8188,-1.8617,-1.8637,-1.9046,-1.9912,-1.9922,-2.0156,-2.0605,-2.0605,-2.0605,2.3399,2.3135,2.2881,2.259,2.2211,2.2029,2.243,2.1958,2.1456,2.1507,2.1476,2.1265,2.0702,2.0798,2.0894,2.0634,2.065,2.0783,2.1059,2.1278,2.1451,2.172,2.1132,2.0522,2.0124,1.8265,1.6716,1.5872,1.5784,1.5784,1.5784,1.5784,1.5242,1.3926,1.3195,1.1776,0.952,0.8839,0.8042,0.7095,0.5938,0.5179,0.4732,0.2282,0.121,0.1165,0.0359,-0.0449,-0.1299,-0.2948,-0.4061,-0.4954,-0.6514,-0.7095,-0.7095,-0.7095,-0.7095,-0.7095,-0.7095,-0.7885,-0.8846,-0.8408,-0.91,-0.9966,-0.9531,-0.9701,-1.0009,-1.0009,-1.0567,-1.1257,-1.1638,-1.2291,-1.3027,-1.3385,-1.3779,-1.4088,-1.4088,-1.4088,-1.4088,-1.4088,-1.4088,-1.3988,-1.3653,-1.3447,-1.3146,-1.2545,-1.2489,-1.2489,-1.2489,-1.2365,-1.2305,-1.2305,-1.2305,-1.2305,-1.2305,-1.2305,-1.2445,-1.2732,-1.3091,-1.3694,-1.4629,-1.5623,-1.65,-1.7265,-1.8161,-1.8744,-1.9026,-1.9639,-1.999,-2.0137,-2.0468,-2.0605,2.5844,2.5618,2.5226,2.4208,2.422,2.4315,2.3649,2.3514,2.3331,2.2664,2.3036,2.311,2.1859,2.1859,2.1977,2.1924,2.167,2.1734,2.2601,2.2715,2.2789,2.3062,2.2403,2.1756,2.1337,1.9898,1.8265,1.6622,1.6062,1.5784,1.5784,1.5784,1.5439,1.4603,1.3778,1.2346,1.0255,0.9408,0.8383,0.7095,0.5938,0.5403,0.5314,0.335,0.2191,0.1745,0.0986,-0.0045,-0.1254,-0.2458,-0.3395,-0.4287,-0.5891,-0.6473,-0.6561,-0.6962,-0.7095,-0.7095,-0.7095,-0.7621,-0.8277,-0.8277,-0.875,-0.9353,-0.9353,-0.9657,-1.0009,-1.0009,-1.0308,-1.0783,-1.1509,-1.1681,-1.1901,-1.2644,-1.3167,-1.347,-1.347,-1.3779,-1.4088,-1.4088,-1.4001,-1.3834,-1.35,-1.3153,-1.2752,-1.2358,-1.2305,-1.2305,-1.2305,-1.2305,-1.2305,-1.2305,-1.2305,-1.2305,-1.2305,-1.2305,-1.2445,-1.2769,-1.2806,-1.3237,-1.4207,-1.4843,-1.5658,-1.6567,-1.7469,-1.8117,-1.8598,-1.9153,-1.9609,-1.9922,-2.0205,-2.0458,2.7916,2.837,2.841,2.5719,2.579,2.599,2.4146,2.3722,2.3697,2.3588,2.3635,2.3624,2.3514,2.2761,2.2584,2.3987,2.2922,2.2446,2.3898,2.3529,2.3091,2.3091,2.3091,2.2633,2.1525,2.1337,2.0305,1.7963,1.6615,1.5872,1.5784,1.5784,1.5771,1.5758,1.4176,1.274,1.1573,0.9776,0.8321,0.7183,0.6027,0.5492,0.5447,0.4239,0.3037,0.1879,0.1835,0.1121,-0.009,-0.1299,-0.179,-0.2058,-0.4465,-0.5403,-0.5536,-0.6694,-0.7095,-0.7095,-0.7095,-0.7095,-0.7095,-0.7095,-0.7095,-0.7095,-0.7095,-0.7885,-0.8803,-0.8803,-0.9579,-1.0438,-1.0481,-1.0524,-1.0524,-1.0611,-1.1423,-1.22,-1.22,-1.3118,-1.3913,-1.3913,-1.3703,-1.3405,-1.3154,-1.2654,-1.2305,-1.2305,-1.2305,-1.2305,-1.2305,-1.2305,-1.2305,-1.2305,-1.2305,-1.2305,-1.2305,-1.2305,-1.2666,-1.3564,-1.3637,-1.4063,-1.5021,-1.5092,-1.5552,-1.6419,-1.6498,-1.7141,-1.8418,-1.8482,-1.8945,-1.9769,-1.9855,-2.0137,3.0081,3.0023,2.9584,2.8837,2.8865,2.8624,2.7,2.6646,2.6236,2.4909,2.5217,2.5276,2.3781,2.3556,2.3504,2.3174,2.2676,2.2467,2.2862,2.3034,2.3091,2.3091,2.3091,2.3003,2.2677,2.1845,2.0657,1.9131,1.7909,1.6803,1.5825,1.5784,1.5732,1.5511,1.4871,1.3886,1.2504,1.0099,0.8759,0.8408,0.7221,0.665,0.665,0.5489,0.4285,0.3081,0.2191,0.1121,-0.009,-0.1299,-0.179,-0.2058,-0.4465,-0.5403,-0.5536,-0.6694,-0.7095,-0.7095,-0.7095,-0.7095,-0.7095,-0.7095,-0.7095,-0.7095,-0.7095,-0.7316,-0.7577,-0.7577,-0.7749,-0.8185,-0.91,-0.9323,-0.9536,-1.0394,-1.0821,-1.1037,-1.1037,-1.1257,-1.1477,-1.1477,-1.181,-1.1954,-1.1733,-1.2055,-1.2305,-1.2305,-1.2305,-1.2305,-1.2305,-1.2305,-1.2305,-1.2305,-1.2305,-1.2305,-1.2305,-1.2305,-1.2409,-1.2622,-1.2666,-1.2769,-1.3018,-1.3702,-1.4207,-1.4414,-1.5199,-1.5736,-1.6086,-1.7072,-1.7686,-1.7907,-1.9275,-1.9971,3.1057,3.1028,3.0557,3.0215,2.9838,2.9316,2.8478,2.7703,2.6981,2.6308,2.6346,2.6164,2.5016,2.4852,2.4773,2.443,2.3735,2.3301,2.3493,2.3282,2.3091,2.3091,2.3091,2.3091,2.3091,2.2492,2.1578,2.0395,1.9177,1.7716,1.592,1.6339,1.6248,1.545,1.5162,1.4205,1.2588,1.011,0.889,0.889,0.7665,0.7095,0.7095,0.6428,0.522,0.357,0.2903,0.1612,-0.0045,-0.0718,-0.1031,-0.121,-0.3084,-0.4154,-0.4732,-0.5935,-0.665,-0.7095,-0.7095,-0.7095,-0.7095,-0.7095,-0.7095,-0.7095,-0.7095,-0.7095,-0.7095,-0.7095,-0.7095,-0.7272,-0.7925,-0.8105,-0.8277,-0.8921,-0.9488,-0.9836,-0.9836,-1.0265,-1.055,-1.0311,-1.0567,-1.0726,-1.0429,-1.1083,-1.1657,-1.1657,-1.204,-1.2305,-1.2305,-1.2305,-1.2305,-1.2305,-1.2305,-1.2305,-1.2305,-1.2305,-1.2305,-1.2305,-1.2305,-1.2305,-1.2305,-1.2806,-1.3273,-1.3709,-1.4243,-1.4772,-1.5199,-1.5951,-1.6427,-1.6629,-1.8046,-1.891,3.1204,3.1466,3.135,3.0748,3.0043,2.9383,2.9052,2.7887,2.6973,2.7451,2.7007,2.6499,2.6499,2.6175,2.5978,2.6226,2.5145,2.4346,2.4565,2.3714,2.3091,2.3091,2.3091,2.3091,2.3091,2.3091,2.2589,2.1382,2.0486,1.881,1.6197,1.7084,1.6972,1.5397,1.5017,1.4145,1.2553,1.0443,0.9279,0.9104,0.7925,0.7272,0.7095,0.7095,0.5888,0.3838,0.3659,0.2324,0.0225,0.0045,0.0,-0.0135,-0.1344,-0.2458,-0.3527,-0.491,-0.6027,-0.6915,-0.7051,-0.7095,-0.7095,-0.7095,-0.7095,-0.7095,-0.7095,-0.7095,-0.7095,-0.7095,-0.7095,-0.7095,-0.7095,-0.7095,-0.7095,-0.7095,-0.7885,-0.8671,-0.8671,-0.9444,-1.0004,-0.9575,-0.9574,-0.9562,-0.9181,-0.9927,-1.0602,-1.0602,-1.1354,-1.1885,-1.1885,-1.2114,-1.2305,-1.2305,-1.2305,-1.2305,-1.2305,-1.2305,-1.2305,-1.2305,-1.2305,-1.2305,-1.2305,-1.2305,-1.2666,-1.3491,-1.3528,-1.3954,-1.4807,-1.495,-1.5176,-1.5552,-1.6567,-1.7421,3.0749,3.1316,3.1489,3.2059,3.2086,3.1447,2.9445,2.878,2.8214,2.6973,2.6589,2.6499,2.6499,2.642,2.6115,2.5242,2.4884,2.4374,2.3541,2.3222,2.3091,2.3091,2.3091,2.3091,2.3091,2.3091,2.2589,2.1382,2.2041,2.0998,1.7544,1.7598,1.687,1.5147,1.4559,1.4097,1.3779,1.2419,1.1252,1.0308,0.9144,0.8061,0.7095,0.7095,0.6381,0.5045,0.4016,0.2814,0.1388,0.0404,0.0,-0.0135,-0.1344,-0.1924,-0.237,-0.4601,-0.5536,-0.5849,-0.6782,-0.7095,-0.7095,-0.7095,-0.7095,-0.7095,-0.7095,-0.7095,-0.7095,-0.7095,-0.7095,-0.7095,-0.7095,-0.7095,-0.7095,-0.7095,-0.7272,-0.7404,-0.7404,-0.7573,-0.761,-0.7333,-0.7918,-0.8411,-0.8112,-0.8879,-0.9556,-0.9556,-0.9707,-0.9825,-0.9825,-1.1285,-1.2305,-1.2305,-1.2305,-1.2305,-1.2305,-1.2305,-1.2305,-1.2305,-1.2305,-1.2305,-1.2305,-1.2305,-1.2378,-1.2556,-1.2556,-1.2629,-1.2799,-1.3593,-1.3985,-1.4082,-1.5414,-1.6257,2.9681,3.0107,3.0198,3.0616,3.0393,2.9879,2.9178,2.833,2.7571,2.7196,2.6782,2.6587,2.6876,2.7149,2.7072,2.6229,2.5857,2.5305,2.4135,2.3464,2.3091,2.3091,2.3091,2.3091,2.3091,2.3091,2.2862,2.2262,2.2775,2.1498,1.787,1.682,1.5805,1.4794,1.4315,1.4088,1.4088,1.2899,1.1724,1.0611,0.9449,0.8277,0.7095,0.7095,0.647,0.5359,0.4776,0.3484,0.1745,0.1165,0.0584,-0.0045,-0.0628,-0.1254,-0.2013,-0.3796,-0.4865,-0.5581,-0.6694,-0.7095,-0.7095,-0.7095,-0.7095,-0.7095,-0.7095,-0.7095,-0.7095,-0.7095,-0.7095,-0.7095,-0.7095,-0.7095,-0.7095,-0.7095,-0.7095,-0.7095,-0.7095,-0.7095,-0.7007,-0.6759,-0.7109,-0.733,-0.708,-0.7859,-0.8504,-0.8504,-0.8955,-0.9296,-0.9296,-1.0126,-1.0944,-1.1465,-1.1996,-1.2305,-1.2305,-1.2305,-1.2305,-1.2305,-1.2305,-1.2305,-1.2305,-1.2305,-1.2305,-1.2305,-1.2305,-1.2305,-1.2305,-1.2732,-1.2989,-1.2989,-1.4187,-1.4912,2.8414,2.8716,2.878,2.8939,2.8492,2.8117,2.862,2.7703,2.6871,2.7351,2.6939,2.6663,2.718,2.7733,2.7928,2.7382,2.7035,2.6378,2.4999,2.4049,2.3387,2.3135,2.3091,2.3091,2.3091,2.3091,2.3091,2.3091,2.2862,2.1319,1.8172,1.6359,1.5127,1.4529,1.4242,1.4088,1.4088,1.316,1.1986,1.0611,0.971,0.8492,0.7095,0.7095,0.6605,0.5761,0.5492,0.4332,0.2549,0.2013,0.1254,0.0359,0.009,-0.0584,-0.1567,-0.2769,-0.3972,-0.5179,-0.6337,-0.6915,-0.7095,-0.7095,-0.7095,-0.7095,-0.7095,-0.7095,-0.7095,-0.7095,-0.7095,-0.7095,-0.7095,-0.7095,-0.7095,-0.7095,-0.7095,-0.7095,-0.7095,-0.7095,-0.7007,-0.6759,-0.6702,-0.6607,-0.6351,-0.6949,-0.748,-0.748,-0.8161,-0.8656,-0.8656,-0.8841,-0.9291,-1.0072,-1.1242,-1.1959,-1.1959,-1.2187,-1.2305,-1.2305,-1.2305,-1.2305,-1.2305,-1.2305,-1.2305,-1.2305,-1.2305,-1.2305,-1.2305,-1.2305,-1.2305,-1.2335,-1.3062,-1.3631,2.7358,2.7835,2.8019,2.8812,2.8939,2.8684,2.7986,2.7703,2.7384,2.6748,2.6555,2.6663,2.718,2.7733,2.7928,2.7382,2.7672,2.7227,2.5115,2.4702,2.4253,2.3222,2.3091,2.3091,2.3091,2.3091,2.3091,2.3091,2.2076,2.074,1.9071,1.7489,1.5973,1.4529,1.4242,1.4088,1.4088,1.3997,1.282,1.0611,1.0481,0.927,0.7095,0.7095,0.7051,0.6874,0.5849,0.527,0.4912,0.2683,0.1746,0.1522,0.0449,-0.009,-0.0314,-0.1522,-0.2726,-0.3927,-0.5134,-0.6248,-0.7095,-0.7095,-0.7095,-0.7095,-0.7095,-0.7095,-0.7095,-0.7095,-0.7095,-0.7095,-0.7095,-0.7095,-0.7095,-0.7095,-0.7095,-0.7095,-0.7095,-0.7095,-0.7007,-0.6759,-0.6702,-0.6607,-0.6351,-0.6377,-0.6451,-0.6451,-0.6528,-0.6567,-0.6567,-0.7365,-0.797,-0.8084,-0.9809,-1.0932,-1.0932,-1.1768,-1.2305,-1.2305,-1.2305,-1.2305,-1.2305,-1.2305,-1.2305,-1.2305,-1.2305,-1.2305,-1.2305,-1.2305,-1.2305,-1.2305,-1.2372,-1.2608,2.5894,2.6539,2.7074,2.7417,2.7517,2.7384,2.7074,2.6973,2.6871,2.6555,2.6499,2.6763,2.7607,2.7959,2.8238,2.8728,2.8424,2.7792,2.6889,2.6243,2.5378,2.4253,2.4125,2.3844,2.3178,2.3091,2.3091,2.3091,2.2447,2.1361,1.9859,1.7874,1.6017,1.4318,1.4148,1.4088,1.4088,1.4088,1.3252,1.1638,1.0907,0.9749,0.8145,0.7448,0.7095,0.7095,0.6605,0.6027,0.527,0.3573,0.2458,0.17,0.0449,0.0,-0.0135,-0.1344,-0.2102,-0.2815,-0.4732,-0.5716,-0.6204,-0.6874,-0.7095,-0.7095,-0.7095,-0.7095,-0.7095,-0.7095,-0.7095,-0.7095,-0.7095,-0.7095,-0.7095,-0.7095,-0.7095,-0.7095,-0.7095,-0.7095,-0.7007,-0.6759,-0.6702,-0.6607,-0.6351,-0.63,-0.63,-0.63,-0.63,-0.63,-0.63,-0.6644,-0.6911,-0.6911,-0.8689,-0.9895,-0.9895,-1.0271,-1.0757,-1.1354,-1.1391,-1.1657,-1.2268,-1.2305,-1.2305,-1.2305,-1.2305,-1.2305,-1.2305,-1.2305,-1.2305,-1.2305,-1.2305,-1.2365,2.4826,2.5511,2.6129,2.6418,2.6499,2.6499,2.6499,2.6499,2.6499,2.6499,2.6499,2.6788,2.7682,2.7996,2.8411,2.9377,2.9008,2.8478,2.8136,2.7452,2.6543,2.5462,2.4999,2.45,2.3671,2.3299,2.3042,2.2916,2.2676,2.1773,2.0101,1.8498,1.6699,1.4629,1.4573,1.4412,1.4088,1.4088,1.3512,1.2279,1.1123,1.0009,0.8846,0.7665,0.7095,0.7095,0.7095,0.665,0.5802,0.4641,0.3438,0.2191,0.0986,0.0314,-0.009,-0.0941,-0.1478,-0.2058,-0.3753,-0.4554,-0.5043,-0.6204,-0.6605,-0.665,-0.7007,-0.7095,-0.7095,-0.7095,-0.7095,-0.7095,-0.7095,-0.7095,-0.7095,-0.7095,-0.7095,-0.7095,-0.7095,-0.7095,-0.7007,-0.6759,-0.6702,-0.6607,-0.6351,-0.63,-0.63,-0.63,-0.63,-0.63,-0.63,-0.63,-0.63,-0.63,-0.7553,-0.8542,-0.8846,-0.915,-0.9593,-1.0303,-1.0378,-1.0677,-1.1397,-1.17,-1.1848,-1.1848,-1.215,-1.2305,-1.2305,-1.2305,-1.2305,-1.2305,-1.2305,-1.2305,2.4445,2.5004,2.5264,2.6233,2.6499,2.6499,2.6499,2.6499,2.6499,2.6499,2.6499,2.6663,2.7228,2.7733,2.8285,2.8813,2.9415,2.9404,2.8255,2.8096,2.7683,2.6595,2.5504,2.4787,2.4787,2.3757,2.2925,2.2549,2.251,2.1648,1.9711,1.9584,1.8365,1.5752,1.5696,1.5179,1.413,1.4088,1.3512,1.2279,1.1123,1.0009,0.8846,0.7665,0.7095,0.7095,0.7095,0.7095,0.7007,0.5849,0.4688,0.3481,0.2236,0.1031,0.0,0.0,-0.0762,-0.179,-0.1835,-0.2637,-0.3838,-0.5045,-0.5403,-0.5625,-0.6738,-0.7095,-0.7095,-0.7095,-0.7095,-0.7095,-0.7095,-0.7095,-0.7095,-0.7095,-0.7095,-0.7095,-0.7095,-0.7095,-0.7007,-0.6759,-0.6702,-0.6607,-0.6351,-0.63,-0.63,-0.63,-0.63,-0.63,-0.63,-0.63,-0.63,-0.63,-0.63,-0.6718,-0.7744,-0.8727,-0.9296,-0.9301,-0.9334,-0.9334,-0.9334,-1.0303,-1.0826,-1.0826,-1.1774,-1.2305,-1.2305,-1.2305,-1.2305,-1.2305,-1.2305,-1.2305,2.2776,2.3441,2.4036,2.4361,2.4433,2.4624,2.5335,2.4957,2.4624,2.5335,2.4921,2.462,2.5133,2.5657,2.6412,2.7726,2.7696,2.7666,2.8056,2.7481,2.6584,2.5462,2.4339,2.3637,2.3637,2.3299,2.2916,2.2549,2.2246,2.1661,2.0757,2.0442,1.8865,1.5779,1.5696,1.5179,1.413,1.4088,1.3906,1.3512,1.2334,1.1166,1.0009,0.8842,0.7885,0.7095,0.7095,0.7095,0.7007,0.5891,0.4688,0.3481,0.2281,0.1076,0.0,0.0,-0.0225,-0.0673,-0.1522,-0.2057,-0.2547,-0.3794,-0.415,-0.4372,-0.5578,-0.6473,-0.7095,-0.7095,-0.7095,-0.7095,-0.7095,-0.7095,-0.7095,-0.7095,-0.7095,-0.7095,-0.7095,-0.7095,-0.7007,-0.6759,-0.6702,-0.6607,-0.6351,-0.63,-0.63,-0.63,-0.63,-0.63,-0.63,-0.63,-0.63,-0.63,-0.63,-0.6416,-0.6756,-0.7061,-0.7557,-0.8237,-0.8275,-0.858,-0.9258,-0.9599,-0.9782,-0.9782,-1.0752,-1.1273,-1.1279,-1.1959,-1.2305,-1.2305,-1.2305,-1.2305,2.1676,2.244,2.3036,2.3404,2.3514,2.3661,2.4301,2.3963,2.3672,2.4301,2.3927,2.3615,2.3955,2.4534,2.5328,2.6399,2.6519,2.6719,2.74,2.6924,2.6099,2.4957,2.4168,2.3551,2.3135,2.2955,2.2734,2.2305,2.1885,2.1445,2.1006,2.0752,1.9265,1.6396,1.6314,1.5587,1.413,1.4088,1.4088,1.4088,1.2893,1.1681,1.0567,0.941,0.8237,0.7095,0.7095,0.7095,0.0,0.6337,0.5356,0.415,0.2948,0.1746,0.0628,0.018,0.0,-0.009,-0.0852,-0.1121,-0.1299,-0.2547,-0.3215,-0.3838,-0.5045,-0.6204,-0.7095,-0.7095,-0.7095,-0.7095,-0.7095,-0.7095,-0.7095,-0.7095,-0.7095,-0.7095,-0.7095,-0.7095,-0.7007,-0.6759,-0.6702,-0.6607,-0.6351,-0.63,-0.63,-0.63,-0.63,-0.63,-0.63,-0.63,-0.63,-0.63,-0.63,-0.63,-0.63,-0.63,-0.6567,-0.7215,-0.7249,-0.7518,-0.8122,-0.8542,-0.8732,-0.8732,-1.0072,-1.0596,-1.0228,-1.1242,-1.1922,-1.2305,-1.2305,-1.2305,0.0,2.1725,2.2027,2.3036,2.3294,2.3294,2.3368,2.3331,0.0,2.3368,2.3331,2.3305,2.335,2.4126,2.4809,2.4932,2.5694,2.6307,2.6359,2.6307,2.585,2.4787,2.467,2.4243,2.3173,2.2744,2.2324,2.1875,2.1465,2.1035,2.0625,2.0605,1.9629,1.7496,1.7334,1.6281,1.413,1.4088,1.4088,1.4088,1.2942,1.1809,1.0697,0.9536,0.8364,0.7228,0.7139,0.7095,0.7095,0.7095,0.6428,0.527,0.415,0.2948,0.1657,0.0539,0.009,0.0,0.0,0.0,-0.018,-0.1299,-0.2503,-0.3659,-0.4821,-0.6024,-0.7007,-0.7095,-0.7095,-0.7095,-0.7095,-0.7095,-0.7095,-0.7095,-0.7095,-0.7095,-0.7095,-0.7088,-0.6997,-0.6756,-0.6692,-0.6593,-0.6351,-0.63,-0.63,-0.63,-0.63,-0.63,-0.63,-0.63,-0.63,-0.63,-0.63,-0.63,-0.63,-0.63,-0.63,-0.63,-0.63,-0.63,-0.63,-0.7215,-0.7706,-0.7706,-0.9583,-1.019,-0.941,-1.034,-1.1316,-1.2305,-1.2305,-1.2305,1.7994,0.0,1.9963,2.1029,2.127,2.1451,0.0,0.0,0.0,0.0,0.0,2.1381,2.1696,2.2211,2.3012,2.4181,2.4105,2.4221,2.5083,2.4467,2.38,2.3507,2.3507,2.3258,2.2685,2.2568,2.2197,2.1405,2.1249,2.1035,2.0625,2.0605,2.0001,1.8638,1.7747,1.6281,1.413,1.4088,1.4088,1.4088,1.3822,1.3033,1.1852,1.074,0.9575,0.8408,0.7489,0.7095,0.7095,0.7095,0.6428,0.5359,0.509,0.3662,0.1745,0.1478,0.0807,0.0,0.0,0.0,-0.0045,-0.0314,-0.1254,-0.2281,-0.2549,-0.4109,-0.5983,-0.6874,-0.7095,-0.7095,-0.7095,-0.7095,-0.7095,-0.7095,-0.7095,-0.7095,-0.7095,-0.7011,-0.6879,-0.6736,-0.6607,-0.6508,-0.633,-0.63,-0.63,-0.63,-0.63,-0.63,-0.63,-0.63,-0.63,-0.63,-0.63,-0.63,-0.63,-0.63,-0.63,-0.63,-0.63,-0.63,-0.63,-0.6528,-0.6644,-0.6644,-0.7855,-0.9135,-1.0453,-1.0671,-1.1316,-1.2305,-1.2305,-1.2305,1.572,1.7556,1.9155,1.9717,2.0245,2.075,2.1221,0.0,0.0,0.0,0.0,2.0703,2.1112,2.1592,2.2219,2.3243,2.3229,2.3299,2.392,2.3474,2.3091,2.3091,2.2925,2.2721,2.2539,2.2158,2.1697,2.1229,2.1045,2.082,2.0615,2.0605,2.0128,1.9036,1.7908,1.6527,1.4859,1.4334,1.4088,1.4088,1.4088,1.347,1.2242,1.1128,0.9966,0.8846,0.7621,0.7095,0.7095,0.7095,0.6738,0.6115,0.5581,0.4601,0.3306,0.2192,0.1389,0.0763,0.018,0.0,0.0,0.0,-0.0449,-0.1076,-0.1612,-0.2727,-0.4109,-0.5847,-0.6337,-0.6428,-0.6962,-0.7095,-0.7095,-0.7095,-0.7095,-0.7095,-0.7095,-0.6987,-0.6839,-0.6729,-0.6576,-0.6467,-0.6323,-0.63,-0.63,-0.63,-0.63,-0.63,-0.63,-0.63,-0.63,-0.63,-0.63,-0.63,-0.63,-0.63,-0.63,-0.63,-0.63,-0.63,-0.63,-0.63,-0.6528,-0.6984,-0.7061,-0.8118,-1.0115,-0.9664,-1.019,-1.162,-1.162,-1.1848,1.408,1.6506,1.8501,1.8827,1.9633,2.0324,2.0547,0.0,0.0,0.0,2.0605,2.0703,2.1112,2.1592,2.2021,2.2441,2.2818,2.3091,2.3091,2.3042,2.3003,2.3003,2.2676,2.2393,2.2324,2.1619,2.1161,2.1103,2.0781,2.0605,2.0605,2.0605,2.0167,1.9274,1.8149,1.7131,1.6232,1.4817,1.4088,1.4088,1.4088,1.3555,1.2547,1.1386,1.0226,0.9104,0.7885,0.7272,0.7095,0.7095,0.7095,0.7007,0.6027,0.5536,0.5134,0.3084,0.2102,0.1612,0.0404,0.0,0.0,0.0,0.0,-0.018,-0.121,-0.1522,-0.1969,-0.4243,-0.5001,-0.5356,-0.6337,-0.6558,-0.6602,-0.6782,-0.6827,-0.6871,-0.7051,-0.6967,-0.6854,-0.6725,-0.6559,-0.6443,-0.632,-0.63,-0.63,-0.63,-0.63,-0.63,-0.63,-0.63,-0.63,-0.63,-0.63,-0.63,-0.63,-0.63,-0.63,-0.63,-0.63,-0.63,-0.63,-0.63,-0.6718,-0.7557,-0.6718,-0.7215,-0.9069,-0.8199,-0.8761,-1.0565,-1.0565,-1.1093,1.3413,1.4783,1.6277,1.8133,1.8683,1.9132,2.0324,2.0605,2.0605,2.0605,2.0605,2.0703,2.1112,2.1592,2.2021,2.2441,2.2818,2.3091,2.3091,2.2789,2.2607,2.2607,2.2236,2.1836,2.1424,2.1268,2.1074,2.0742,2.0644,2.0605,2.0605,2.0605,2.0527,2.0362,1.9313,1.8678,1.851,1.5553,1.4088,1.4088,1.4088,1.3997,1.3779,1.2595,1.1423,1.0265,0.9104,0.8061,0.7095,0.7095,0.7095,0.7095,0.6918,0.6248,0.5359,0.5001,0.3573,0.1612,0.0404,0.0,0.0,0.0,0.0,-0.0045,-0.0225,-0.0269,-0.0584,-0.1969,-0.3083,-0.3927,-0.4103,-0.4148,-0.4417,-0.5401,-0.5669,-0.5938,-0.6871,-0.6883,-0.6729,-0.6705,-0.6481,-0.6323,-0.6303,-0.63,-0.63,-0.63,-0.63,-0.63,-0.63,-0.63,-0.63,-0.63,-0.63,-0.63,-0.63,-0.63,-0.63,-0.63,-0.63,-0.63,-0.63,-0.63,-0.6377,-0.6528,-0.6377,-0.6872,-0.805,-0.7859,-0.8389,-0.9518,-0.9518,-1.0083,1.288,1.3761,1.4572,1.6347,1.7333,1.8171,1.9434,1.9717,1.9883,2.0479,2.0605,2.0703,2.1112,2.1356,2.168,2.2109,2.2334,2.2461,2.2461,2.2295,2.2178,2.2178,2.1797,2.1455,2.121,2.1016,2.0791,2.0615,2.0605,2.0605,2.0605,2.0605,2.0605,2.0605,1.9559,1.8997,1.8997,1.6895,1.5553,1.4977,1.437,1.4088,1.4046,1.2851,1.2023,1.1423,0.9666,0.8584,0.8017,0.736,0.7095,0.7095,0.7095,0.6782,0.6248,0.5625,0.3887,0.1701,0.1165,0.0539,0.0,0.0,0.0,0.0,0.0,0.0,-0.0135,-0.0673,-0.1701,-0.2769,-0.3436,-0.3614,-0.3748,-0.4283,-0.4419,-0.4732,-0.5935,-0.5961,-0.5907,-0.6574,-0.6504,-0.63,-0.63,-0.63,-0.63,-0.63,-0.63,-0.63,-0.63,-0.63,-0.63,-0.63,-0.63,-0.63,-0.63,-0.63,-0.63,-0.63,-0.63,-0.63,-0.63,-0.63,-0.63,-0.63,-0.63,-0.6528,-0.6984,-0.6984,-0.7518,-0.8504,-0.8504,-0.9031,1.2313,1.3107,1.3574,1.4738,1.6106,1.7508,1.874,1.9195,1.9599,2.044,2.0605,2.0713,2.1016,2.1122,2.1337,2.1816,2.1885,2.1885,2.1885,2.1797,2.1738,2.1738,2.1348,2.1074,2.1074,2.0762,2.0605,2.0605,2.0605,2.0605,2.0605,2.0605,2.0605,2.0605,1.9805,1.9362,1.9362,1.827,1.705,1.5696,1.4859,1.4294,1.3939,1.3018,1.2421,1.202,1.0288,0.9228,0.8673,0.7726,0.7229,0.7048,0.7048,0.7065,0.6962,0.5805,0.4243,0.2593,0.2325,0.1433,0.0404,0.0404,0.0225,0.0,0.0,0.0,0.0,0.0,-0.0673,-0.1612,-0.2503,-0.2769,-0.2815,-0.3126,-0.317,-0.3522,-0.4705,-0.4951,-0.5186,-0.6112,-0.6278,-0.63,-0.63,-0.63,-0.63,-0.63,-0.63,-0.63,-0.63,-0.63,-0.63,-0.63,-0.63,-0.63,-0.63,-0.63,-0.63,-0.63,-0.63,-0.63,-0.63,-0.63,-0.63,-0.63,-0.63,-0.63,-0.63,-0.63,-0.6679,-0.7442,-0.7442,-0.7974,1.1583,1.2763,1.3681,1.4058,1.5579,1.7299,1.8669,1.9756,2.0527,2.0566,2.0605,2.0615,2.0644,2.0957,2.1337,2.1816,2.1885,2.1885,2.1885,2.1543,2.1239,2.1239,2.0889,2.0654,2.0654,2.0625,2.0605,2.0605,2.0605,2.0605,2.0605,2.0605,2.0605,2.0605,2.0527,2.0479,2.0479,1.9402,1.7819,1.5696,1.5621,1.4903,1.3633,1.3551,1.281,1.1543,1.1376,1.0156,0.8247,0.8164,0.7644,0.6903,0.6903,0.698,0.6962,0.5805,0.527,0.5001,0.3838,0.2681,0.1656,0.1656,0.0897,0.0,0.0,0.0,0.0,0.0,-0.0045,-0.0135,-0.0225,-0.0269,-0.0539,-0.1657,-0.1924,-0.227,-0.3488,-0.4346,-0.4914,-0.5014,-0.5729,-0.63,-0.63,-0.63,-0.63,-0.63,-0.63,-0.63,-0.63,-0.63,-0.63,-0.63,-0.63,-0.63,-0.63,-0.63,-0.63,-0.63,-0.63,-0.63,-0.63,-0.63,-0.63,-0.63,-0.63,-0.63,-0.63,-0.63,-0.6338,-0.6412,-0.6412,-0.6949,1.1788,1.3004,1.3948,1.4055,1.5662,1.7281,1.7834,1.8789,1.9795,2.044,2.0605,2.0605,2.0605,2.0703,2.0869,2.1075,2.1104,2.1104,2.1104,2.0928,2.082,2.082,2.0713,2.0605,2.0605,2.0605,2.0605,2.0605,2.0605,2.0605,2.0605,2.0605,2.0605,2.0605,2.0605,2.0605,2.0605,2.0206,1.9234,1.7738,1.6347,1.5327,1.4629,1.392,1.3231,1.2512,1.1816,1.063,0.9217,0.8487,0.7635,0.6787,0.6787,0.682,0.678,0.6351,0.5752,0.5024,0.4549,0.3606,0.2492,0.1891,0.1377,0.0861,0.0216,0.0,0.0,0.0,0.0,0.0,0.0,0.0,-0.0135,-0.0584,-0.0673,-0.1026,-0.2221,-0.2681,-0.3245,-0.4637,-0.5125,-0.5512,-0.618,-0.63,-0.63,-0.63,-0.63,-0.63,-0.63,-0.63,-0.63,-0.63,-0.63,-0.63,-0.63,-0.63,-0.63,-0.63,-0.63,-0.63,-0.63,-0.63,-0.63,-0.63,-0.63,-0.63,-0.63,-0.63,-0.63,-0.63,-0.63,-0.649,1.1401,1.2638,1.3603,1.3997,1.547,1.6887,1.7212,1.843,1.9717,2.045,2.0605,2.0605,2.0605,2.0605,2.0605,2.0605,2.0605,2.0605,2.0605,2.0605,2.0605,2.0605,2.0605,2.0605,2.0605,2.0605,2.0605,2.0605,2.0605,2.0605,2.0605,2.0605,2.0605,2.0605,2.0605,2.0605,2.0605,2.0605,2.0235,1.9481,1.7491,1.6052,1.5093,1.3907,1.32,1.2881,1.2078,1.1161,1.0127,0.9339,0.8265,0.7078,0.6805,0.6702,0.6702,0.6702,0.6156,0.5488,0.5488,0.4689,0.3559,0.2847,0.2179,0.1468,0.0714,0.0255,0.0,0.0,0.0,0.0,0.0,0.0,0.0,0.0,0.0,-0.0221,-0.1036,-0.1434,-0.206,-0.358,-0.4029,-0.4414,-0.5157,-0.5276,-0.5276,-0.5276,-0.5589,-0.5786,-0.5786,-0.6103,-0.63,-0.63,-0.63,-0.63,-0.63,-0.63,-0.63,-0.63,-0.63,-0.63,-0.63,-0.63,-0.63,-0.63,-0.63,-0.63,-0.63,-0.63,-0.63,-0.63,-0.63,-0.63,1.0249,1.1423,1.2589,1.3779,1.4894,1.5985,1.705,1.8988,2.0605,2.0605,2.0605,2.0605,2.0605,2.0605,2.0605,2.0605,2.0605,2.0605,2.0605,2.0605,2.0605,2.0605,2.0605,2.0605,2.0605,2.0605,2.0605,2.0605,2.0605,2.0605,2.0605,2.0605,2.0605,2.0605,2.0605,2.0605,2.0605,2.0605,2.0605,2.0595,1.9016,1.7102,1.4787,1.3442,1.2623,1.2298,1.2305,1.1731,1.0783,1.0783,0.9675,0.7903,0.704,0.6695,0.6698,0.6698,0.6698,0.6698,0.6698,0.5901,0.4897,0.4897,0.3432,0.1633,0.1592,0.0839,0.0,0.0,0.0,0.0,0.0,0.0,0.0,0.0,0.0,0.0,0.0,-0.0826,-0.1572,-0.1615,-0.2386,-0.3085,-0.3085,-0.3085,-0.3085,-0.3085,-0.4021,-0.4686,-0.4688,-0.5628,-0.63,-0.63,-0.63,-0.63,-0.63,-0.63,-0.63,-0.63,-0.63,-0.63,-0.63,-0.63,-0.63,-0.63,-0.63,-0.63,-0.63,-0.63,-0.63,-0.63,-0.63,-0.63,1.0293,1.1423,1.2589,1.3779,1.4894,1.5779,1.6108,1.79,1.9687,2.044,2.0605,2.0605,2.0605,2.0605,2.0605,2.0605,2.0605,2.0605,2.0605,2.0605,2.0605,2.0605,2.0605,2.0605,2.0605,2.0605,2.0605,2.0605,2.0605,2.0605,2.0605,2.0605,2.0605,2.0605,2.0605,2.0605,2.0605,2.0605,2.0605,2.0595,1.8853,1.7658,1.6925,1.4758,1.3621,1.3237,1.2592,1.1731,1.0746,1.004,0.8989,0.7828,0.7575,0.7053,0.6429,0.6429,0.6429,0.6429,0.6429,0.6192,0.575,0.4989,0.4309,0.351,0.2038,0.1377,0.0985,0.0205,0.0,0.0,0.0,0.0,0.0,0.0,0.0,0.0,0.0,-0.0245,-0.0686,-0.1457,-0.1841,-0.2268,-0.2968,-0.3085,-0.3085,-0.3085,-0.3357,-0.3865,-0.4608,-0.496,-0.5473,-0.6222,-0.63,-0.63,-0.63,-0.63,-0.63,-0.63,-0.63,-0.63,-0.63,-0.63,-0.63,-0.63,-0.63,-0.63,-0.63,-0.63,-0.63,-0.63,-0.63,-0.63,0.9618,1.0783,1.1901,1.3075,1.4216,1.5179,1.5621,1.7407,1.9323,2.0362,2.0605,2.0605,2.0605,2.0605,2.0605,2.0605,2.0605,2.0605,2.0605,2.0605,2.0605,2.0605,2.0605,2.0605,2.0605,2.0934,2.1155,2.1155,2.1527,2.1565,2.1193,2.1155,2.1011,2.0605,2.0605,2.0605,2.0605,2.0605,2.0605,2.0595,1.9155,1.8461,1.8359,1.5356,1.3895,1.3637,1.2703,1.1959,1.1316,1.0303,0.9556,0.8912,0.8122,0.7442,0.6834,0.6451,0.63,0.63,0.63,0.63,0.6183,0.555,0.504,0.4453,0.3205,0.2529,0.196,0.0922,0.0652,0.054,0.0125,0.0,0.0,0.0,0.0,0.0,0.0,0.0,-0.02,-0.0826,-0.098,-0.1176,-0.176,-0.1877,-0.1877,-0.1877,-0.2229,-0.2891,-0.3943,-0.4062,-0.4295,-0.496,-0.504,-0.504,-0.504,-0.504,-0.5198,-0.5628,-0.567,-0.5867,-0.63,-0.63,-0.63,-0.63,-0.63,-0.63,-0.63,-0.63,-0.63,-0.63,-0.63,-0.63,0.8584,0.9666,1.074,1.198,1.3203,1.4412,1.5579,1.7407,1.9155,2.0235,2.0518,2.0605,2.0605,2.0605,2.0605,2.0605,2.0605,2.0605,2.0605,2.0605,2.0605,2.0605,2.0683,2.0712,2.0712,2.1593,2.214,2.214,2.2999,2.311,2.2178,2.2027,2.1593,2.075,2.0644,2.0605,2.0605,2.0605,2.0605,2.0595,1.9734,1.9287,1.9185,1.5602,1.3882,1.3637,1.2703,1.2305,1.2224,1.1316,1.0901,1.0596,0.8685,0.7897,0.7668,0.6679,0.63,0.63,0.63,0.63,0.63,0.63,0.5628,0.4844,0.4727,0.4021,0.3046,0.2035,0.1672,0.1377,0.0405,0.0082,0.0,0.0,0.0,0.0,0.0,0.0,0.0,0.0,0.0,0.0,0.0,0.0,0.0,0.0,-0.0824,-0.1801,-0.2851,-0.2968,-0.3007,-0.3085,-0.3085,-0.3085,-0.3085,-0.3085,-0.3513,-0.4491,-0.4569,-0.504,-0.6103,-0.6261,-0.63,-0.63,-0.63,-0.63,-0.63,-0.63,-0.63,-0.63,-0.63,-0.63,0.8584,0.9065,0.9753,1.1809,1.3203,1.4615,1.6527,1.7334,1.7989,1.9116,2.0001,2.0605,2.0605,2.0605,2.0605,2.0605,2.0605,2.0605,2.0605,2.0605,2.0605,2.0605,2.127,2.1707,2.1707,2.259,2.3184,2.3184,2.3368,2.3404,2.3184,2.244,2.1924,2.1697,2.0972,2.0605,2.0605,2.0605,2.0605,2.0595,1.9734,1.9287,1.9221,1.7008,1.5155,1.3637,1.2703,1.2305,1.2261,1.207,1.1502,1.0671,0.9442,0.8504,0.7668,0.6679,0.63,0.63,0.63,0.63,0.63,0.63,0.6141,0.5786,0.496,0.453,0.4139,0.3086,0.2199,0.154,0.1304,0.0635,0.0,0.0,0.0,0.0,0.0,0.0,0.0,0.0,0.0,0.0,0.0,0.0,0.0,0.0,-0.0196,-0.0745,-0.1802,-0.1919,-0.2231,-0.3007,-0.3085,-0.3085,-0.3085,-0.3085,-0.3202,-0.3435,-0.3435,-0.3943,-0.5002,-0.5867,-0.63,-0.63,-0.63,-0.63,-0.63,-0.63,-0.63,-0.63,-0.63,-0.63,0.7885,0.8452,0.9449,1.1724,1.2766,1.3669,1.5379,1.6157,1.6846,1.7948,1.9471,2.0605,2.0605,2.0605,2.0605,2.0605,2.0605,2.0605,2.0605,2.0605,2.0789,2.1231,2.1697,2.2178,2.2664,2.3624,2.4228,2.4228,2.466,2.4731,2.4228,2.3708,2.2999,2.2027,2.1517,2.1039,2.0605,2.0605,2.0605,2.0595,1.9734,1.9072,1.8617,1.723,1.5544,1.3673,1.3164,1.2732,1.2305,1.2305,1.1996,1.1428,1.0415,0.9405,0.8389,0.7403,0.6718,0.63,0.63,0.63,0.63,0.63,0.63,0.6183,0.5628,0.5473,0.5237,0.4178,0.3125,0.219,0.1723,0.0784,0.0,0.0,0.0,0.0,0.0,0.0,0.0,0.0,0.0,0.0,0.0,0.0,0.0,0.0,0.0,-0.0196,-0.0745,-0.0824,-0.1019,-0.1565,-0.1604,-0.1604,-0.1604,-0.1604,-0.1839,-0.2347,-0.2386,-0.2852,-0.3904,-0.4491,-0.5237,-0.63,-0.63,-0.63,-0.63,-0.63,-0.63,-0.63,-0.63,-0.63,0.7051,0.7969,0.9366,1.1252,1.2029,1.2632,1.3808,1.4929,1.5985,1.709,1.8908,2.0362,2.0566,2.0605,2.0605,2.0605,2.0605,2.0605,2.0605,2.0605,2.0934,2.1886,2.214,2.2664,2.3661,2.4671,2.5264,2.5264,2.6025,2.6129,2.53,2.5075,2.4228,2.259,2.2366,2.1811,2.0857,2.0828,2.075,2.0595,1.9734,1.8877,1.8081,1.7245,1.586,1.4163,1.3665,1.3091,1.2519,1.2372,1.2305,1.2187,1.1205,1.0303,0.9405,0.8237,0.7288,0.6528,0.6377,0.63,0.63,0.63,0.63,0.63,0.63,0.63,0.6103,0.5237,0.4217,0.3124,0.2113,0.1058,0.0236,0.0039,0.0,0.0,0.0,0.0,0.0,0.0,0.0,0.0,0.0,0.0,0.0,0.0,0.0,0.0,0.0,0.0,0.0,0.0,0.0,0.0,0.0,0.0,-0.0392,-0.1254,-0.1333,-0.1761,-0.2812,-0.2851,-0.3748,-0.5709,-0.5944,-0.6025,-0.6025,-0.6222,-0.63,-0.63,-0.63,-0.63,0.6827,0.7969,0.8978,0.9279,1.0826,1.2614,1.3743,1.4886,1.5985,1.709,1.831,1.9481,2.045,2.0605,2.0605,2.0605,2.0605,2.0605,2.0605,2.0605,2.0934,2.1886,2.2776,2.3697,2.4707,2.5687,2.6314,2.6314,2.6418,2.6452,2.6314,2.5476,2.4898,2.46,2.3745,2.2813,2.1811,2.1811,2.1413,2.0595,1.9734,1.9033,1.85,1.8036,1.7217,1.607,1.3585,1.2879,1.3455,1.2629,1.2305,1.2187,1.1205,1.0714,1.0372,0.8499,0.7706,0.748,0.6606,0.63,0.63,0.63,0.63,0.63,0.63,0.63,0.6261,0.6141,0.5315,0.4256,0.3164,0.2151,0.1137,0.0236,0.0,0.0,0.0,0.0,0.0,0.0,0.0,0.0,0.0,0.0,0.0,0.0,0.0,0.0,0.0,0.0,0.0,0.0,0.0,0.0,0.0,0.0,-0.0079,-0.0196,-0.0196,-0.0706,-0.1762,-0.1802,-0.2347,-0.3515,-0.4453,-0.4921,-0.4924,-0.5867,-0.63,-0.63,-0.63,-0.63,0.6786,0.7489,0.8061,0.8715,1.0139,1.1638,1.2778,1.3944,1.5095,1.6191,1.7293,1.839,1.9481,2.0196,2.0605,2.0605,2.0605,2.0605,2.0605,2.1039,2.1745,2.2739,2.3745,2.4743,2.5734,2.6245,2.6499,2.6499,2.6499,2.6499,2.6499,2.6094,2.5581,2.5016,2.4564,2.3588,2.2027,2.1989,2.1394,2.0195,1.9824,1.9414,1.8948,1.7972,1.6933,1.572,1.4486,1.3557,1.2879,1.2482,1.2305,1.2261,1.1805,1.1316,1.0726,0.9969,0.8937,0.7865,0.7577,0.7057,0.6491,0.6446,0.6419,0.6405,0.6323,0.63,0.63,0.63,0.5512,0.4608,0.41,0.2815,0.1489,0.102,0.0432,0.0,0.0,0.0,0.0,0.0,0.0,0.0,0.0,0.0,0.0,0.0,0.0,0.0,0.0,0.0,0.0,0.0,0.0,0.0,0.0,0.0,0.0,0.0,0.0,-0.0196,-0.0667,-0.0706,-0.0902,-0.137,-0.3554,-0.4688,-0.4688,-0.5786,-0.63,-0.63,-0.63,-0.63,0.6428,0.6874,0.7316,0.8233,0.9318,1.0481,1.1595,1.2772,1.3977,1.5054,1.6157,1.7253,1.835,1.9678,2.0605,2.0605,2.0605,2.0673,2.0934,2.1555,2.2478,2.3745,2.4552,2.5406,2.6383,2.6499,2.6499,2.6499,2.6499,2.6499,2.6499,2.6499,2.6164,2.5406,2.537,2.4552,2.2776,2.2253,2.1343,2.0078,1.9971,1.9746,1.9397,1.8263,1.7054,1.5867,1.5139,1.4127,1.2981,1.2519,1.2305,1.2311,1.2385,1.1958,1.1301,1.131,1.0297,0.8892,0.8513,0.7835,0.7087,0.6688,0.6545,0.6494,0.6385,0.6327,0.63,0.63,0.5709,0.504,0.4766,0.3556,0.2271,0.1724,0.098,0.0314,0.0039,0.0,0.0,0.0,0.0,0.0,0.0,0.0,0.0,0.0,0.0,0.0,0.0,0.0,0.0,0.0,0.0,0.0,0.0,0.0,0.0,0.0,0.0,0.0,0.0,0.0,0.0,0.0,-0.2581,-0.3908,-0.3908,-0.5237,-0.5906,-0.5906,-0.618,-0.63,0.5492,0.6293,0.7095,0.7183,0.8101,0.9279,1.0438,1.1558,1.2717,1.3948,1.5054,1.6108,1.7172,1.9146,2.0605,2.0605,2.0605,2.0895,2.1811,2.1952,2.2739,2.4671,2.4969,2.5406,2.6383,2.6499,2.6499,2.6499,2.6499,2.6499,2.6499,2.6499,2.6499,2.6418,2.6418,2.5908,2.4862,2.2962,2.1507,2.0566,2.0107,1.9902,1.9863,1.9407,1.8681,1.7602,1.4924,1.4279,1.4914,1.3055,1.2305,1.2331,1.265,1.2726,1.2599,1.1939,1.1604,1.1198,0.9131,0.836,0.8115,0.7057,0.659,0.6511,0.6504,0.6405,0.63,0.63,0.6261,0.5983,0.496,0.4611,0.4023,0.2075,0.1568,0.1254,0.0236,0.0,0.0,0.0,0.0,0.0,0.0,0.0,0.0,0.0,0.0,0.0,0.0,0.0,0.0,0.0,0.0,0.0,0.0,0.0,0.0,0.0,0.0,0.0,0.0,0.0,0.0,0.0,-0.1176,-0.1762,-0.1762,-0.3791,-0.4766,-0.4805,-0.5825,-0.63,0.4956,0.5714,0.6204,0.6918,0.8017,0.9021,0.9405,1.0956,1.2413,1.2857,1.4399,1.6026,1.709,1.855,1.9805,2.0489,2.0605,2.0712,2.1039,2.2188,2.322,2.3963,2.5182,2.6094,2.6465,2.6499,2.6499,2.6499,2.6499,2.6499,2.6499,2.6499,2.6499,2.6499,2.6499,2.5721,2.4036,2.2702,2.1517,2.0605,2.0449,2.0332,2.0312,1.9883,1.9501,1.9079,1.7208,1.5819,1.4856,1.3442,1.2886,1.2893,1.2999,1.3046,1.304,1.2965,1.2441,1.1629,1.028,0.9318,0.8495,0.7254,0.681,0.6729,0.6573,0.6477,0.6416,0.6327,0.63,0.6222,0.5825,0.5198,0.4181,0.2075,0.1607,0.1293,0.0236,0.0,0.0,0.0,0.0,0.0,0.0,0.0,0.0,0.0,0.0,0.0,0.0,0.0,0.0,0.0,0.0,0.0,0.0,0.0,0.0,0.0,0.0,0.0,0.0,0.0,0.0,0.0,-0.0392,-0.0902,-0.1607,-0.3008,-0.4021,-0.4686,-0.4375,-0.4999,0.4241,0.509,0.5669,0.6827,0.7709,0.8408,0.8803,1.0351,1.1858,1.2237,1.3811,1.5504,1.656,1.7658,1.8917,2.0362,2.0605,2.0828,2.1489,2.2675,2.3734,2.4433,2.5687,2.6499,2.6499,2.6499,2.6499,2.6499,2.6499,2.6499,2.6499,2.6499,2.6499,2.6499,2.6499,2.5534,2.3514,2.285,2.1849,2.0605,2.0605,2.0605,2.0595,2.0264,2.0127,2.0079,1.8833,1.7365,1.571,1.4311,1.3738,1.3713,1.3433,1.3313,1.3353,1.3646,1.3278,1.2487,1.1503,1.0438,0.9257,0.7978,0.7268,0.6839,0.6627,0.6552,0.648,0.634,0.63,0.63,0.63,0.5512,0.4258,0.2503,0.1841,0.1293,0.0236,0.0,0.0,0.0,0.0,0.0,0.0,0.0,0.0,0.0,0.0,0.0,0.0,0.0,0.0,0.0,0.0,0.0,0.0,0.0,0.0,0.0,0.0,0.0,0.0,0.0,0.0,0.0,0.0,-0.0353,-0.1058,-0.2112,-0.2969,-0.3634,-0.3281,-0.4062,0.0,0.0,0.0,0.6827,0.7095,0.7401,0.8584,0.9753,1.0913,1.2023,1.3245,1.4412,1.5496,1.656,1.798,2.0157,2.0566,2.127,2.3147,2.3441,2.4181,2.6164,2.6452,2.6452,2.6499,2.6499,2.6499,2.6499,2.6499,2.6499,2.6499,2.6499,2.6499,2.6499,2.6499,2.5534,2.3514,2.3514,2.2526,2.0605,2.0605,2.0605,2.0605,2.0605,2.0605,2.0527,1.9481,1.8602,1.7774,1.5704,1.4824,1.4745,1.3932,1.3613,1.3646,1.3981,1.4088,1.3913,1.2723,1.1552,1.0394,0.9279,0.7997,0.6862,0.6749,0.6597,0.6491,0.634,0.63,0.63,0.63,0.5512,0.4491,0.3396,0.2386,0.1411,0.0314,0.0079,0.0039,0.0,0.0,0.0,0.0,0.0,0.0,0.0,0.0,0.0,0.0,0.0,0.0,0.0,0.0,0.0,0.0,0.0,0.0,0.0,0.0,0.0,0.0,0.0,0.0,0.0,0.0,0.0,0.0,-0.1058,-0.1568,-0.1607,-0.2618,-0.3671,0.3037,0.0,0.0,0.0,0.0,0.0,0.7536,0.9139,1.0697,1.0999,1.2693,1.4412,1.5496,1.5944,1.6601,1.798,1.9559,2.0789,2.1346,2.2,2.2888,2.4181,2.4957,2.5699,2.6418,2.6499,2.6499,2.6499,2.6499,2.6499,2.6499,2.6499,2.6499,2.6499,2.6499,2.5534,2.3514,2.3514,2.2526,2.0605,2.0605,2.0605,2.0605,2.0605,2.0605,2.0566,2.0284,1.9595,1.8515,1.6348,1.5468,1.536,1.4331,1.3968,1.3975,1.4055,1.4088,1.3913,1.2723,1.1552,1.0394,0.9279,0.8074,0.6991,0.6776,0.6671,0.6583,0.6371,0.63,0.63,0.63,0.6064,0.5589,0.453,0.4064,0.3556,0.2462,0.1683,0.0941,0.0157,0.0,0.0,0.0,0.0,0.0,0.0,0.0,0.0,0.0,0.0,0.0,0.0,0.0,0.0,0.0,0.0,0.0,0.0,0.0,0.0,0.0,0.0,0.0,0.0,0.0,0.0,0.0,-0.0314,-0.0824,-0.1607,-0.2618,-0.324,0.3081,0.3614,0.4061,0.5935,0.0,0.0,0.7095,0.8532,0.9879,0.9879,1.174,1.3542,1.4189,1.5067,1.5902,1.6519,1.8101,1.9541,2.0391,2.1382,2.2366,2.3368,2.4011,2.4588,2.5205,2.5616,2.5873,2.5873,2.6267,2.6499,2.6499,2.6499,2.6499,2.6499,2.6499,2.5721,2.4145,2.3708,2.2702,2.1193,2.0789,2.0605,2.0605,2.0605,2.0605,2.0605,2.0605,2.0001,1.8877,1.7082,1.6108,1.5579,1.4531,1.4088,1.4088,1.4088,1.4088,1.3997,1.3294,1.2291,1.1128,0.9966,0.8798,0.7705,0.6992,0.6753,0.6651,0.6457,0.6344,0.63,0.63,0.63,0.6025,0.496,0.4688,0.4414,0.3318,0.2308,0.1411,0.0784,0.0314,0.0,0.0,0.0,0.0,0.0,0.0,0.0,0.0,0.0,0.0,0.0,0.0,0.0,0.0,0.0,0.0,0.0,0.0,0.0,0.0,0.0,0.0,0.0,0.0,0.0,0.0,0.0,-0.0314,-0.0941,-0.1527,-0.2033,0.3126,0.3481,0.3881,0.509,0.6248,0.0,0.7095,0.8013,0.889,0.889,1.0611,1.2151,1.2285,1.3973,1.5365,1.5496,1.6437,1.7794,1.977,2.1008,2.2054,2.3025,2.3257,2.3368,2.3478,2.4301,2.4898,2.4981,2.5921,2.6499,2.6499,2.6499,2.6499,2.6499,2.6499,2.5943,2.4862,2.3963,2.2925,2.1849,2.1011,2.0605,2.0605,2.0605,2.0605,2.0605,2.0605,1.9923,1.8718,1.7698,1.6683,1.5579,1.4531,1.4088,1.4088,1.4088,1.4088,1.4088,1.4088,1.3294,1.2114,1.095,0.9836,0.8638,0.7314,0.682,0.6664,0.6538,0.6399,0.63,0.63,0.63,0.6064,0.5118,0.4882,0.4608,0.3669,0.2659,0.1958,0.1958,0.0902,0.0039,0.0157,0.0079,0.0,0.0,0.0,0.0,0.0,0.0,0.0,0.0,0.0,0.0,0.0,0.0,0.0,0.0,0.0,0.0,0.0,0.0,0.0,0.0,0.0,0.0,0.0,0.0,0.0,0.0,0.0,-0.0588,0.2102,0.2858,0.3881,0.509,0.6248,0.0,0.7095,0.8013,0.889,0.889,0.9966,1.1209,1.2109,1.2662,1.3269,1.4237,1.5296,1.647,1.7721,1.889,1.9944,2.0901,2.1769,2.2627,2.3404,2.3672,2.412,2.4933,2.5921,2.6499,2.6499,2.6499,2.6499,2.6499,2.6499,2.5652,2.3818,2.3588,2.2638,2.0857,2.0683,2.0605,2.0605,2.0605,2.0605,2.0605,2.0605,1.9471,1.7617,1.7383,1.6683,1.5579,1.4531,1.4088,1.4088,1.4088,1.4088,1.4088,1.4088,1.3294,1.2114,1.095,0.9836,0.8638,0.7314,0.682,0.6644,0.6416,0.632,0.63,0.63,0.63,0.6261,0.6025,0.5983,0.5944,0.5709,0.4846,0.4103,0.4103,0.1879,0.0275,0.1137,0.0588,0.0,0.0,0.0,0.0,0.0,0.0,0.0,0.0,0.0,0.0,0.0,0.0,0.0,0.0,0.0,0.0,0.0,0.0,0.0,0.0,0.0,0.0,0.0,0.0,0.0,0.0,0.0,-0.0588,0.1969,0.2681,0.3748,0.433,0.58,0.0,0.0,0.7577,0.8017,0.8017,0.8925,0.9923,1.0481,1.108,1.1643,1.2254,1.279,1.3532,1.4664,1.674,1.8541,1.9582,2.0178,2.0923,2.1973,2.2478,2.3368,2.4898,2.5921,2.6499,2.6499,2.6499,2.6499,2.6499,2.6499,2.5769,2.4264,2.3745,2.275,2.1298,2.0818,2.0605,2.0605,2.0605,2.0605,2.0566,2.004,1.8829,1.7261,1.6723,1.5869,1.4859,1.4328,1.4088,1.4088,1.4088,1.4088,1.4088,1.4088,1.3688,1.2899,1.1171,1.0221,0.9387,0.7574,0.6878,0.6637,0.6381,0.63,0.63,0.63,0.63,0.63,0.63,0.63,0.63,0.63,0.547,0.4844,0.5392,0.3359,0.1566,0.1606,0.0706,0.0,0.0,0.0,0.0,0.0,0.0,0.0,0.0,0.0,0.0,0.0,0.0,0.0,0.0,0.0,0.0,0.0,0.0,0.0,0.0,0.0,0.0,0.0,0.0,0.0,0.0,0.0,-0.0275,0.2147,0.2503,0.3303,0.3525,0.5218,0.6827,0.0,0.0,0.0,0.7095,0.7885,0.8627,0.8846,0.9666,1.0351,1.0567,1.0611,1.0913,1.1852,1.4323,1.661,1.8181,1.855,1.9116,2.0206,2.1326,2.2664,2.4301,2.5358,2.5931,2.5931,2.6094,2.6129,2.5943,2.6094,2.5652,2.4409,2.3635,2.2702,2.1735,2.0972,2.0605,2.0605,2.0605,2.0605,2.0527,1.9481,1.835,1.722,1.615,1.5054,1.4088,1.4088,1.4088,1.4088,1.4088,1.4088,1.4088,1.4088,1.4088,1.3695,1.1343,1.0308,0.9557,0.7632,0.6888,0.6637,0.6381,0.63,0.63,0.63,0.63,0.63,0.63,0.63,0.63,0.63,0.5628,0.5276,0.6141,0.4727,0.3086,0.2074,0.1019,0.0236,0.0039,0.0,0.0,0.0,0.0,0.0,0.0,0.0,0.0,0.0,0.0,0.0,0.0,0.0,0.0,0.0,0.0,0.0,0.0,0.0,0.0,0.0,0.0,0.0,0.0,0.0,0.0,0.2147,0.1879,0.2281,0.3347,0.4596,0.5849,0.6874,0.0,0.7095,0.7095,0.0,0.7621,0.8715,0.0,0.0,1.0438,1.0611,1.0654,1.0783,1.1117,1.2511,1.5681,1.6927,1.7948,1.9076,2.0884,2.2103,2.2328,2.3257,2.3843,2.3843,2.4707,2.4743,2.3879,2.4707,2.4264,2.2366,2.2215,2.1707,2.075,2.0634,2.0605,2.0605,2.0605,2.0605,2.0527,1.9481,1.835,1.722,1.615,1.5054,1.4088,1.4088,1.4088,1.4088,1.4088,1.4088,1.4088,1.4088,1.4088,1.3695,1.1343,0.9179,0.7392,0.6912,0.6725,0.6637,0.6381,0.63,0.63,0.63,0.63,0.63,0.63,0.63,0.63,0.63,0.6222,0.6141,0.6261,0.5354,0.4178,0.3124,0.2074,0.1097,0.0157,0.0,0.0,0.0,0.0,0.0,0.0,0.0,0.0,0.0,0.0,0.0,0.0,0.0,0.0,0.0,0.0,0.0,0.0,0.0,0.0,0.0,0.0,0.0,0.0,0.0,0.0,0.2325,0.2816,0.384,0.3659,0.4508,0.5714,0.6827,0.6605,0.6293,0.6962,0.0,0.0,0.0,0.0,0.0,0.0,0.8571,0.8794,0.9536,0.9623,1.0633,1.3361,1.4677,1.607,1.7859,1.9876,2.1064,2.1064,2.2595,2.3514,2.3514,2.3891,2.3927,2.3514,2.3891,2.3441,2.2027,2.1989,2.1517,2.0605,2.0605,2.0605,2.0605,2.0605,2.0605,2.0489,1.8749,1.7738,1.718,1.547,1.4496,1.4088,1.4088,1.4088,1.4088,1.4088,1.4088,1.4088,1.4088,1.4088,1.3695,1.1343,0.9008,0.7041,0.679,0.6702,0.6637,0.6381,0.63,0.63,0.63,0.63,0.63,0.63,0.63,0.63,0.63,0.63,0.6323,0.6409,0.606,0.5442,0.4418,0.2788,0.145,0.098,0.0392,0.0,0.0,0.0,0.0,0.0,0.0,0.0,0.0,0.0,0.0,0.0,0.0,0.0,0.0,0.0,0.0,0.0,0.0,0.0,0.0,0.0,0.0,0.0,0.0,0.0,0.3263,0.384,0.4776,0.4241,0.4508,0.5223,0.6381,0.5755,0.522,0.6381,0.665,0.0,0.0,0.0,0.6514,0.6201,0.0,0.646,0.7335,0.7467,0.8543,1.1406,1.3073,1.465,1.625,1.832,1.9545,1.9545,2.1255,2.2269,2.2269,2.2802,2.2962,2.2702,2.2962,2.2627,2.1631,2.1631,2.126,2.0605,2.0605,2.0605,2.0605,2.0284,2.0157,2.004,1.7811,1.6846,1.6723,1.4859,1.4088,1.4088,1.4088,1.4088,1.4088,1.4088,1.4088,1.4088,1.4088,1.3695,1.2869,1.1128,0.9008,0.7041,0.679,0.6702,0.6637,0.6381,0.63,0.63,0.63,0.63,0.63,0.63,0.63,0.63,0.63,0.633,0.6388,0.6494,0.6545,0.6322,0.5673,0.3869,0.2354,0.1757,0.0993,0.0356,0.004,0.0,0.0,0.0,0.0,0.0,0.0,0.0,0.0,0.0,0.0,0.0,0.0,0.0,0.0,0.0,0.0,0.0,0.0,0.0,0.0,0.0,0.0,0.0,0.5314,0.4508,0.3927,0.5045,0.4508,0.3972,0.5179,0.4508,0.4016,0.5223,0.5447,0.5447,0.5447,0.5447,0.5087,0.3881,0.3703,0.0,0.0,0.3792,0.5463,1.012,1.2632,1.4023,1.4107,1.6111,1.7415,1.7415,1.847,1.9155,1.9155,2.0989,2.1631,2.0712,2.1555,2.1593,2.0634,2.0644,2.0644,2.0605,2.0605,2.0605,2.0566,1.952,1.9036,1.8917,1.6715,1.5737,1.5662,1.4573,1.4088,1.4088,1.4088,1.4088,1.4088,1.4088,1.4088,1.4088,1.4088,1.2601,1.0697,1.0611,0.9008,0.7041,0.679,0.6702,0.6637,0.6381,0.63,0.63,0.63,0.63,0.63,0.63,0.63,0.63,0.63,0.6409,0.6508,0.6511,0.6593,0.6695,0.6657,0.5726,0.4257,0.2132,0.1765,0.1336,0.0163,0.0,0.0,0.0,0.0,0.0,0.0,0.0,0.0,0.0,0.0,0.0,0.0,0.0,0.0,0.0,0.0,0.0,0.0,0.0,0.0,0.0,0.0,0.0,0.5625,0.5667,0.5844,0.5492,0.509,0.491,0.5314,0.4463,0.3703,0.4105,0.4196,0.4196,0.4196,0.4196,0.4061,0.3659,0.3614,0.3614,0.0,0.3614,0.4188,0.5772,0.8032,1.0029,1.1616,1.3807,1.5107,1.5107,1.6822,1.7868,1.7868,1.8514,1.9079,1.952,1.9855,2.0207,2.0605,2.0605,2.0605,2.0605,2.0605,2.0605,2.0566,1.9481,1.8997,1.8877,1.6675,1.5696,1.5621,1.4531,1.4088,1.4088,1.4088,1.4088,1.4088,1.4088,1.4088,1.4088,1.4088,1.2565,1.0611,1.0611,0.9008,0.7058,0.6866,0.678,0.6658,0.6497,0.6371,0.63,0.63,0.63,0.63,0.63,0.63,0.6327,0.6419,0.6477,0.6573,0.6736,0.6817,0.6881,0.693,0.6684,0.558,0.3154,0.2206,0.1369,0.0166,0.0,0.0,0.0,0.0,0.0,0.0,0.0,0.0,0.0,0.0,0.0,0.0,0.0,0.0,0.0,0.0,0.0,0.0,0.0,0.0,0.0,0.0,0.0,0.6204,0.6561,0.6918,0.6204,0.5714,0.5403,0.5403,0.4152,0.3215,0.4061,0.3571,0.3215,0.4061,0.3527,0.2948,0.2948,0.2592,0.2324,0.0,0.2324,0.2496,0.2917,0.5393,0.7705,0.92,1.1434,1.2802,1.2802,1.4858,1.6119,1.6119,1.6879,1.7626,1.835,1.839,1.8709,1.9432,1.9432,1.9432,1.9432,1.9432,1.9432,1.9392,1.8301,1.7819,1.7738,1.591,1.5137,1.5095,1.437,1.4088,1.4088,1.4088,1.4088,1.4088,1.4088,1.4088,1.4088,1.4088,1.2565,1.0611,1.0611,0.9008,0.7068,0.6927,0.6861,0.6739,0.6569,0.6446,0.6364,0.6313,0.6337,0.6375,0.6375,0.6416,0.648,0.6532,0.6597,0.6695,0.6849,0.6927,0.6991,0.7082,0.7095,0.6411,0.4346,0.311,0.1995,0.0808,0.0626,0.0494,0.0041,0.0365,0.0481,0.004,0.0,0.0,0.0,0.0,0.0,0.0,0.0,0.0,0.0,0.0,0.0,0.0,0.0,0.0,0.0,0.0,0.0]}]]